[[{"header":{"parameterUnit":"m.s-1","parameterCategory":1,"la1":30.6,"la2":29.2853,"lo1":-89.7004,"lo2":-87.6739,"dy":0.0162,"dx":0.0183,"nx":112,"ny":82,"refTime":"2023-07-18T12:00:00:Z","depth":0,"parameterNumber":2,"parameterNumberName":"U-component_of_WINDS"},"data":[0.0,0.0,0.0,0.0,0.0,0.0,0.0,0.0,0.0,0.0,0.0,0.0,0.0,0.0,0.0,0.0,0.0,0.0,0.0,0.0,0.0,0.0,0.0,0.0,0.0,0.0,0.0,0.0,0.0,0.0,0.0,0.0,0.0,0.0,0.0,0.0,0.0,0.0,0.0,0.0,0.0,0.0,0.0,0.0,0.0,0.0,0.0,0.0,0.0,0.0,0.0,0.0,0.0,0.0,0.0,0.0,0.0,0.0,0.0,0.0,0.0,0.0,0.0,0.0,0.0,0.0,0.0,0.0,0.0,0.0,0.0,0.0,0.0,0.0,0.0,0.0,0.0,0.0,0.0,0.0,0.0,0.0,0.0,0.0,0.0,0.0,0.0,0.0,0.0,0.0,1.6415,1.5788,1.5137,1.4469,1.3692,1.3009,1.2381,1.1703,0.0,0.0,0.0,0.0,0.0,0.0,0.0,0.0,0.0,0.0,0.0,0.0,0.0,0.0,0.0,0.0,0.0,0.0,0.0,0.0,0.0,0.0,0.0,0.0,0.0,0.0,0.0,0.0,0.0,0.0,0.0,0.0,0.0,0.0,0.0,0.0,0.0,0.0,0.0,0.0,0.0,0.0,0.0,0.0,0.0,0.0,0.0,0.0,0.0,0.0,0.0,0.0,0.0,0.0,0.0,0.0,0.0,0.0,0.0,0.0,0.0,0.0,0.0,0.0,0.0,0.0,0.0,0.0,0.0,0.0,0.0,0.0,0.0,0.0,0.0,0.0,0.0,0.0,0.0,0.0,0.0,0.0,0.0,0.0,0.0,0.0,0.0,0.0,0.0,0.0,0.0,0.0,0.0,0.0,0.0,0.0,0.0,0.0,0.0,0.0,0.0,0.0,0.0,0.0,1.6877,1.5788,1.4843,1.4249,1.413,1.3631,1.307,1.2381,0.0,0.0,0.0,0.0,0.0,0.0,0.0,0.0,0.0,0.0,0.0,0.0,0.0,0.0,0.0,0.0,0.0,0.0,0.0,0.0,0.0,0.0,0.0,0.0,0.0,0.0,0.0,0.0,0.0,0.0,0.0,0.0,0.0,0.0,0.0,0.0,0.0,0.0,0.0,0.0,0.0,0.0,0.0,0.0,0.0,0.0,0.0,0.0,0.0,0.0,0.0,0.0,0.0,0.0,0.0,0.0,0.0,0.0,0.0,0.0,0.0,0.0,0.0,0.0,0.0,0.0,0.0,0.0,0.0,0.0,0.0,0.0,0.0,0.0,0.0,0.0,0.0,0.0,0.0,0.0,0.0,0.0,0.0,0.0,0.0,0.0,0.0,0.0,0.0,0.0,0.0,0.0,0.0,0.0,0.0,0.0,0.0,0.0,0.0,0.0,0.0,0.0,0.0,1.7011,1.6581,1.5788,1.5264,1.4784,1.4249,1.4001,1.3502,1.2573,1.1058,0.0,0.0,0.0,0.0,0.0,0.0,0.0,0.0,0.0,0.0,0.0,0.0,0.0,0.0,0.0,0.0,0.0,0.0,0.0,0.0,0.0,0.0,0.0,0.0,0.0,0.0,0.0,0.0,0.0,0.0,0.0,0.0,0.0,0.0,0.0,0.0,0.0,0.0,0.0,0.0,0.0,0.0,0.0,0.0,0.0,0.0,0.0,0.0,0.0,0.0,0.0,0.0,0.0,0.0,0.0,0.0,0.0,0.0,0.0,0.0,0.0,0.0,0.0,0.0,0.0,0.0,0.0,0.0,0.0,0.0,0.0,0.0,0.0,0.0,0.0,0.0,0.0,0.0,0.0,0.0,0.0,0.0,0.0,0.0,0.0,0.0,0.0,0.0,0.0,0.0,0.0,0.0,0.0,0.0,0.0,0.0,0.0,0.0,0.0,0.0,0.0,0.0,1.6786,1.642,1.5904,1.5798,1.5323,1.4428,1.4249,1.3752,1.2818,1.1888,0.0,0.0,0.0,0.0,0.0,0.0,0.0,0.0,0.0,0.0,0.0,0.0,0.0,0.0,0.0,0.0,0.0,0.0,0.0,0.0,0.0,0.0,0.0,0.0,0.0,0.0,0.0,0.0,0.0,0.0,0.0,0.0,0.0,0.0,0.0,0.0,0.0,0.0,0.0,0.0,0.0,0.0,0.0,0.0,0.0,0.0,0.0,0.0,0.0,0.0,0.0,0.0,0.0,0.0,0.0,0.0,0.0,0.0,0.0,0.0,0.0,0.0,0.0,0.0,0.0,0.0,0.0,0.0,0.0,0.0,0.0,0.0,0.0,0.0,0.0,0.0,0.0,0.0,0.0,0.0,0.0,0.0,0.0,0.0,0.0,0.0,0.0,0.0,0.0,0.0,0.0,0.0,0.0,0.0,0.0,0.0,0.0,0.0,0.0,0.0,0.0,0.0,1.6968,1.6944,1.6431,1.5972,1.5498,1.4893,1.4428,1.4001,1.3442,1.2197,0.0,0.0,0.0,0.0,0.0,0.0,0.0,0.0,0.0,0.0,0.0,0.0,0.0,0.0,0.0,0.0,0.0,0.0,0.0,0.0,0.0,0.0,0.0,0.0,0.0,0.0,0.0,0.0,0.0,0.0,0.0,0.0,0.0,0.0,0.0,0.0,0.0,0.0,0.0,0.0,0.0,0.0,0.0,0.0,0.0,0.0,0.0,0.0,0.0,0.0,0.0,0.0,0.0,0.0,0.0,0.0,0.0,0.0,0.0,0.0,0.0,0.0,0.0,0.0,0.0,0.0,0.0,0.0,0.0,0.0,0.0,0.0,0.0,0.0,0.0,0.0,0.0,0.0,0.0,0.0,0.0,0.0,0.0,0.0,0.0,0.0,0.0,0.0,0.0,0.0,0.0,0.0,0.0,0.0,0.0,0.0,0.0,0.0,0.0,0.0,0.0,0.0,1.5979,1.6056,1.5536,1.5313,1.502,1.4488,1.4309,1.401,1.3511,0.0,0.0,0.0,0.0,0.0,0.0,0.0,0.0,0.0,0.0,0.0,0.0,0.0,0.0,0.0,0.0,0.0,0.0,0.0,0.0,0.0,0.0,0.0,0.0,0.0,0.0,0.0,0.0,0.0,0.0,0.0,0.0,0.0,0.0,0.0,0.0,0.0,0.0,0.0,0.0,0.0,0.0,0.0,0.0,0.0,0.0,0.0,0.0,0.0,0.0,0.0,0.0,0.0,0.0,0.0,0.0,0.0,0.0,0.0,0.0,0.0,0.0,0.0,0.0,0.0,0.0,0.0,0.0,0.0,0.0,0.0,0.0,0.0,0.0,0.0,0.0,0.0,0.0,0.0,0.0,0.0,0.0,0.0,0.0,0.0,0.0,0.0,0.0,0.0,0.0,0.0,0.0,0.0,0.0,0.0,0.0,0.0,0.0,0.0,0.0,0.0,0.0,1.4715,1.5079,1.5196,1.4834,1.4765,1.4538,1.3941,1.3881,1.364,1.3086,0.0,0.0,0.0,0.0,0.0,0.0,0.0,0.0,0.0,0.0,0.0,0.0,0.0,0.0,0.0,0.0,0.0,0.0,0.0,0.0,0.0,0.0,0.0,0.0,0.0,0.0,0.0,0.0,0.0,0.0,0.0,0.0,0.0,0.0,0.0,0.0,0.0,0.0,0.0,0.0,0.0,0.0,0.0,0.0,0.0,0.0,0.0,0.0,0.0,0.0,0.0,0.0,0.0,0.0,0.0,0.0,0.0,0.0,0.0,0.0,0.0,0.0,0.0,0.0,0.0,0.0,0.0,0.0,0.0,0.0,0.0,0.0,0.0,0.0,0.0,0.0,0.0,0.0,0.0,0.0,0.0,0.0,0.0,0.0,0.0,0.0,0.0,0.0,0.0,0.0,0.0,0.0,0.0,0.0,0.0,0.0,0.0,0.0,0.0,0.0,0.0,0.0,1.4198,1.4369,1.4478,1.4488,1.4488,1.4181,1.3338,1.3277,1.2911,0.0,0.0,0.0,0.0,0.0,0.0,0.0,0.0,0.0,0.0,0.0,0.0,0.0,0.0,0.0,0.0,0.0,0.0,0.0,0.0,0.0,0.0,0.0,0.0,0.0,0.0,0.0,0.0,0.0,0.0,0.0,0.0,0.0,0.0,0.0,0.0,0.0,0.0,0.0,0.0,0.0,0.0,0.0,0.0,0.0,0.0,0.0,0.0,0.0,0.0,0.0,0.0,0.0,0.0,0.0,0.0,0.0,0.0,0.0,0.0,0.0,0.0,0.0,0.0,0.0,0.0,0.0,0.0,0.0,0.0,0.0,0.0,0.0,0.0,0.0,0.0,0.0,0.0,0.0,0.0,0.0,0.0,0.0,0.0,0.0,0.0,0.0,0.0,0.0,0.0,0.0,0.0,0.0,0.0,0.0,0.0,0.0,0.0,0.0,0.0,0.0,0.0,0.0,1.3027,1.3755,1.417,1.3801,1.3801,1.3534,1.2868,1.281,1.254,1.1808,0.0,0.0,0.0,0.0,0.0,0.0,0.0,0.0,0.0,0.0,0.0,0.0,0.0,0.0,0.0,0.0,0.0,0.0,0.0,0.0,0.0,0.0,0.0,0.0,0.0,0.0,0.0,0.0,0.0,0.0,0.0,0.0,0.0,0.0,0.0,0.0,0.0,0.0,0.0,0.0,0.0,0.0,0.0,0.0,0.0,0.0,0.0,0.0,0.0,0.0,0.0,0.0,0.0,0.0,0.0,0.0,0.0,0.0,0.0,0.0,0.0,0.0,0.0,0.0,0.0,0.0,0.0,0.0,0.0,0.0,0.0,0.0,0.0,0.0,0.0,0.0,0.0,0.0,0.0,0.0,0.0,0.0,0.0,0.0,0.0,0.0,0.0,0.0,0.0,0.0,0.0,0.0,0.0,0.0,0.0,0.0,0.0,0.0,0.0,0.0,0.0,0.0,1.2211,1.2846,1.3168,1.2639,1.2571,1.2369,1.188,1.1819,1.1608,1.1129,0.0,0.0,0.0,0.0,0.0,0.0,0.0,0.0,0.0,0.0,0.0,0.0,0.0,0.0,0.0,0.0,0.0,0.0,0.0,0.0,0.0,0.0,0.0,0.0,0.0,0.0,0.0,0.0,0.0,0.0,0.0,0.0,0.0,0.0,0.0,0.0,0.0,0.0,0.0,0.0,0.0,0.0,0.0,0.0,0.0,0.0,0.0,0.0,0.0,0.0,0.0,0.0,0.0,0.0,0.0,0.0,0.0,0.0,0.0,0.0,0.0,0.0,0.0,0.0,0.0,0.0,0.0,0.0,0.0,0.0,0.0,0.0,0.0,0.0,0.0,0.0,0.0,0.0,0.0,0.0,0.0,0.0,0.0,0.0,0.0,0.0,0.0,0.0,0.0,0.0,0.0,0.0,0.0,0.0,0.0,0.0,0.0,0.0,0.0,0.0,0.0,0.0,1.1648,1.1881,1.1833,1.1276,1.1276,1.1076,1.0729,1.0729,1.0526,1.0184,0.0,0.0,0.0,0.0,0.0,0.0,0.0,0.0,0.0,0.0,0.0,0.0,0.0,0.0,0.0,0.0,0.0,0.0,0.0,0.0,0.0,0.0,0.0,0.0,0.0,0.0,0.0,0.0,0.0,0.0,0.0,0.0,0.0,0.0,0.0,0.0,0.0,0.0,0.0,0.0,0.0,0.0,0.0,0.0,0.0,0.0,0.0,0.0,0.0,0.0,0.0,0.0,0.0,0.0,0.0,0.0,0.0,0.0,0.0,0.0,0.9958,0.0,0.0,0.0,0.0,0.0,0.0,0.0,0.0,0.0,0.0,0.0,0.0,0.0,0.0,0.0,0.0,0.0,0.0,0.0,0.0,0.0,0.0,0.0,0.0,0.0,0.0,0.0,0.0,0.0,0.0,0.0,0.0,0.0,0.0,0.0,0.0,0.0,0.0,0.0,0.0,0.0,1.0914,1.1389,1.1747,1.1595,1.1601,1.1376,1.0795,1.0795,1.0574,0.9988,0.9818,0.0,0.0,0.0,0.0,0.0,0.0,0.0,0.0,0.0,0.0,0.0,0.0,0.0,0.0,0.0,0.0,0.0,0.0,0.0,0.0,0.0,0.0,0.0,0.0,0.0,0.0,0.0,0.0,0.0,0.0,0.0,0.0,0.0,0.0,0.0,0.0,0.0,0.0,0.0,0.0,0.0,0.0,0.0,0.0,0.0,0.0,0.0,0.0,0.0,0.0,0.0,0.0,0.0,0.0,0.0,0.0,0.0,0.0,0.0,0.0,0.9454,0.0,0.0,0.0,0.0,0.0,0.0,0.0,0.0,0.0,0.0,0.0,0.0,0.0,0.0,0.0,0.0,0.0,0.0,0.0,0.0,0.0,0.0,0.0,0.0,0.0,0.0,0.0,0.0,0.0,0.0,0.0,0.0,0.0,0.0,0.0,0.0,0.0,0.0,0.0,0.0,1.0398,1.0879,1.1186,1.0887,1.0812,1.0738,1.0368,1.0368,1.0218,0.9916,0.9809,0.0,0.0,0.0,0.0,0.0,0.0,0.0,0.0,0.0,0.0,0.0,0.0,0.0,0.0,0.0,0.0,0.0,0.0,0.0,0.0,0.0,0.0,0.0,0.0,0.0,0.0,0.0,0.0,0.0,0.0,0.0,0.0,0.0,0.0,0.0,0.0,0.0,0.0,0.0,0.0,0.0,0.0,0.0,0.0,0.0,0.0,0.0,0.0,0.0,0.0,0.0,0.0,0.0,0.9244,0.9261,0.8438,0.7943,0.7678,0.7737,0.8368,0.8559,0.8433,0.8761,0.0,0.0,0.0,0.0,0.0,0.0,0.0,0.0,0.0,0.0,0.0,0.0,0.0,0.0,0.0,0.0,0.0,0.0,0.0,0.0,0.0,0.0,0.0,0.0,1.124,1.107,1.1342,0.0,0.0,0.0,0.0,0.0,0.0,0.0,0.0,0.0,0.0,0.0,0.9765,1.0137,1.0212,0.9765,0.9533,0.9458,0.9458,0.9458,0.9458,0.9458,0.9458,0.9458,0.0,0.0,0.0,0.0,0.0,0.0,0.0,0.0,0.0,0.0,0.0,0.0,0.0,0.0,0.0,0.0,0.0,0.0,0.0,0.0,0.0,0.0,0.0,0.0,0.0,0.0,0.0,0.0,0.0,0.0,0.0,0.0,1.2443,1.1826,0.0,0.0,0.0,0.0,0.0,0.0,0.0,0.0,0.0,0.0,0.0,0.0,0.0,0.8576,0.8517,0.8848,0.8611,0.773,0.8112,0.785,0.7086,0.6966,0.6978,0.6978,0.7024,0.0,0.8135,0.8831,0.0,0.0,0.0,0.0,0.0,0.0,0.0,0.0,0.0,0.0,0.0,0.0,0.0,0.0,0.0,0.0,0.0,0.0,0.0,0.0,0.0,0.0,1.0444,1.0438,1.025,1.0043,0.0,1.1238,1.1982,1.1281,1.142,0.0,0.0,0.0,0.0,0.0,0.0,0.0,0.8927,0.8927,0.8927,0.8856,0.8232,0.7846,0.7846,0.7846,0.7846,0.7846,0.7846,0.777,0.7544,0.8367,0.0,0.0,0.0,0.0,0.0,0.0,0.0,0.0,0.0,0.0,0.0,0.0,0.0,0.0,0.0,0.0,0.0,0.0,0.0,0.0,0.0,0.0,0.0,0.0,0.0,0.0,0.0,0.0,0.0,1.2634,1.2197,1.1571,1.0647,0.9958,0.0,0.0,0.0,0.0,0.0,0.0,0.0,0.0,0.0,0.8711,0.8834,0.8696,0.822,0.8314,0.8012,0.7176,0.7107,0.6932,0.6583,0.6168,0.5988,0.5995,0.6226,0.6488,0.6916,0.7812,0.765,0.6932,0.0,0.0,0.0,0.0,0.8714,0.927,0.9625,0.9759,0.9829,1.0164,0.0,0.0,0.0,0.0,0.0,0.0,0.0,0.0,0.0,0.0,0.9304,0.8846,0.8632,0.8631,0.8631,0.9251,0.9882,0.0,1.0209,0.9873,0.9555,0.0,0.0,0.0,0.0,0.8564,0.825,0.8171,0.8171,0.8171,0.7848,0.7688,0.7688,0.7592,0.7536,0.7536,0.7516,0.7464,0.7387,0.8003,0.8389,0.0,0.0,0.0,0.0,0.0,0.0,0.0,0.0,0.0,0.0,0.0,0.0,0.0,0.0,0.0,0.0,0.0,0.0,0.0,0.0,0.0,0.0,0.0,0.0,0.0,0.0,0.0,0.0,1.2143,1.1834,1.1337,1.0401,0.9773,0.0,0.0,0.0,0.0,0.0,0.0,0.8689,0.8856,0.8879,0.8675,0.8837,0.8498,0.7721,0.7771,0.7364,0.6508,0.6397,0.6193,0.5981,0.5423,0.5168,0.5173,0.5499,0.5559,0.5575,0.6908,0.686,0.6124,0.7142,0.7436,0.7292,0.7803,0.8303,0.8734,0.8734,0.8734,0.8734,0.8734,0.8734,0.8836,0.9013,0.0,0.0,0.0,0.0,0.9242,0.8622,0.8471,0.8311,0.768,0.7624,0.7641,0.7641,0.7744,0.8085,0.0,0.8855,0.8516,0.8586,0.0,0.0,0.0,0.0,0.7675,0.7428,0.7428,0.7428,0.7342,0.7263,0.718,0.7102,0.7071,0.7002,0.6921,0.6889,0.6802,0.6758,0.7301,0.7825,0.8318,0.0,0.0,0.0,0.0,0.0,0.0,0.0,0.0,0.0,0.0,0.0,0.0,0.0,0.0,0.0,0.0,0.0,0.0,0.0,0.0,0.0,0.0,0.0,0.0,0.0,0.0,0.0,0.0,0.0,1.0604,1.0098,0.0,0.0,0.0,0.0,0.8829,0.8912,0.8942,0.9157,0.9179,0.8834,0.8061,0.8066,0.765,0.6873,0.7033,0.667,0.5635,0.5997,0.5681,0.4761,0.4924,0.4927,0.4768,0.4774,0.4604,0.4449,0.6588,0.6981,0.6217,0.6294,0.6294,0.6294,0.6294,0.6827,0.7588,0.7588,0.7588,0.7588,0.7588,0.7588,0.7592,0.76,0.7651,0.0,0.0,0.7845,0.7897,0.7897,0.7816,0.7812,0.7816,0.782,0.7827,0.7827,0.7835,0.7835,0.0,0.7893,0.7816,0.7827,0.0,0.7499,0.6761,0.7342,0.7428,0.6436,0.6516,0.6513,0.6016,0.5696,0.5452,0.5124,0.5366,0.536,0.5116,0.5108,0.4974,0.4698,0.5651,0.6537,0.7242,0.7855,0.0,0.0,0.0,0.0,0.0,0.0,0.0,0.0,0.0,0.0,0.0,0.0,0.0,0.0,0.0,0.0,0.0,0.0,0.0,0.0,0.0,0.0,0.0,0.0,0.0,0.0,0.0,0.0,0.9594,0.9355,0.0,0.9058,0.9002,0.899,0.9077,0.8592,0.8349,0.8423,0.8054,0.7689,0.7398,0.7586,0.7277,0.646,0.6511,0.6086,0.518,0.5303,0.5124,0.4569,0.4639,0.451,0.4265,0.4424,0.4362,0.4311,0.5333,0.5557,0.5476,0.5885,0.6205,0.6361,0.6361,0.6764,0.7243,0.7243,0.7243,0.7243,0.7243,0.7323,0.748,0.748,0.7612,0.7663,0.7578,0.7624,0.7675,0.6933,0.6929,0.6847,0.6197,0.6092,0.6069,0.5902,0.5966,0.6019,0.6019,0.6392,0.6798,0.6898,0.6326,0.5758,0.5578,0.5849,0.5849,0.5502,0.5502,0.5502,0.5328,0.5244,0.5075,0.4988,0.5013,0.4976,0.4891,0.4826,0.477,0.4646,0.5218,0.5891,0.6462,0.6931,0.7815,0.0,0.0,0.0,0.0,0.0,0.0,0.0,0.0,0.0,0.0,0.0,0.0,0.0,0.0,0.0,0.0,0.0,0.0,0.0,0.0,0.0,0.0,0.0,0.0,0.0,0.0,0.9361,0.892,0.8669,0.8769,0.9184,0.8692,0.8528,0.8882,0.8174,0.7699,0.7838,0.7446,0.7064,0.684,0.7003,0.6702,0.5846,0.5896,0.5604,0.5055,0.4973,0.4846,0.4599,0.4502,0.4367,0.4116,0.4281,0.4298,0.4246,0.4418,0.4605,0.4794,0.5312,0.5696,0.5853,0.5853,0.6022,0.6271,0.6271,0.6271,0.6271,0.6271,0.6433,0.6595,0.6595,0.6636,0.6759,0.6589,0.6709,0.6665,0.599,0.5902,0.5902,0.5147,0.5033,0.5082,0.491,0.4963,0.501,0.501,0.5418,0.5849,0.5935,0.5344,0.4934,0.509,0.5099,0.501,0.501,0.501,0.4921,0.4743,0.4921,0.501,0.4924,0.4861,0.4823,0.4741,0.4762,0.4709,0.4671,0.4925,0.5452,0.6134,0.6697,0.7259,0.7944,0.0,0.0,0.0,0.0,0.0,0.0,0.0,0.0,0.0,0.0,0.0,0.0,0.0,0.0,0.0,0.0,0.0,0.0,0.0,0.0,0.0,0.0,0.0,0.8064,0.8654,0.8874,0.8529,0.8141,0.8372,0.9303,0.781,0.7245,0.8221,0.7499,0.721,0.7464,0.7395,0.7015,0.6177,0.6321,0.5993,0.5192,0.5309,0.5282,0.5113,0.5045,0.4883,0.4713,0.472,0.4552,0.4296,0.4296,0.427,0.4185,0.4185,0.4234,0.4378,0.4623,0.4713,0.4713,0.4713,0.4713,0.4713,0.4713,0.4713,0.4713,0.4713,0.4713,0.4713,0.4713,0.4784,0.4779,0.4779,0.4934,0.501,0.501,0.501,0.501,0.501,0.501,0.501,0.5008,0.4919,0.4921,0.5008,0.4919,0.4921,0.5008,0.5008,0.5099,0.5371,0.5102,0.0,0.5008,0.5008,0.4832,0.4387,0.4743,0.4921,0.4659,0.4835,0.4921,0.4661,0.4661,0.4617,0.4521,0.4692,0.524,0.6114,0.7012,0.7093,0.6378,0.0,0.0,0.0,0.0,0.0,0.0,0.0,0.0,0.0,0.0,0.0,0.0,0.0,0.0,0.0,0.0,0.0,0.0,0.0,0.0,0.0,0.0,0.7345,0.8055,0.7776,0.7377,0.7287,0.7339,0.7423,0.7715,0.7323,0.7195,0.7466,0.6707,0.6314,0.6465,0.5848,0.5577,0.5592,0.5301,0.5154,0.5074,0.4939,0.4868,0.4787,0.494,0.484,0.4671,0.4813,0.4695,0.4514,0.4514,0.453,0.4463,0.4463,0.4477,0.4479,0.4476,0.4401,0.4401,0.4401,0.4401,0.4401,0.4401,0.4401,0.4401,0.4401,0.4579,0.4669,0.4669,0.4773,0.4882,0.4796,0.4903,0.501,0.4837,0.4924,0.4921,0.4837,0.4748,0.4748,0.4565,0.3939,0.3671,0.4387,0.331,0.2862,0.4478,0.4656,0.4476,0.4567,0.4565,0.0,0.4476,0.4476,0.4476,0.43,0.4387,0.4478,0.4389,0.4476,0.4478,0.4389,0.4389,0.4378,0.4351,0.444,0.457,0.4984,0.5901,0.6245,0.0,0.0,0.0,0.0,0.0,0.0,0.0,0.0,0.0,0.0,0.0,0.0,0.0,0.0,0.0,0.0,0.0,0.0,0.0,0.0,0.0,0.0,0.7037,0.6721,0.7298,0.7094,0.686,0.6566,0.6656,0.6862,0.7088,0.6572,0.6345,0.6716,0.594,0.5607,0.5822,0.5183,0.4971,0.5204,0.4957,0.4918,0.5006,0.448,0.4255,0.4257,0.3812,0.358,0.3402,0.3387,0.3328,0.3235,0.3235,0.3235,0.3235,0.3235,0.3235,0.0,0.0,0.0,0.0,0.0,0.4414,0.4414,0.4414,0.4414,0.4414,0.4414,0.4505,0.4691,0.4691,0.478,0.4778,0.4691,0.478,0.4686,0.4135,0.404,0.404,0.34,0.3307,0.3215,0.3032,0.2573,0.239,0.294,0.2112,0.0,0.3032,0.3169,0.3132,0.3223,0.3132,0.3132,0.3223,0.3492,0.3582,0.3132,0.3849,0.4119,0.3762,0.403,0.0,0.0,0.0,0.4389,0.448,0.448,0.0,0.0,0.0,0.5315,0.5183,0.0,0.0,0.0,0.7215,0.7884,0.0,0.0,0.0,0.0,0.0,0.0,0.0,0.0,0.0,0.0,0.0,0.0,0.0,0.0,0.0,0.0,0.6457,0.6086,0.6086,0.6504,0.6614,0.6073,0.6009,0.6247,0.6802,0.5569,0.4999,0.5833,0.5289,0.502,0.5299,0.0,0.0,0.0,0.0,0.4593,0.4595,0.3831,0.3425,0.3425,0.2193,0.1719,0.1624,0.1435,0.1341,0.1341,0.1341,0.1341,0.1341,0.1341,0.1341,0.1532,0.3433,0.4189,0.4189,0.4189,0.4189,0.4189,0.4189,0.0,0.0,0.4189,0.4189,0.4189,0.4189,0.4189,0.4189,0.4189,0.4189,0.3998,0.3042,0.2851,0.2568,0.1522,0.1332,0.1332,0.1332,0.1237,0.1142,0.1237,0.1142,0.1047,0.1142,0.1293,0.1442,0.1713,0.1532,0.1442,0.1713,0.2344,0.2345,0.1442,0.0,0.0,0.2786,0.3497,0.3939,0.3939,0.4119,0.43,0.4661,0.4661,0.4661,0.4661,0.4661,0.453,0.4187,0.4187,0.4228,0.4309,0.6072,0.6882,0.0,0.0,0.0,0.0,0.0,0.0,0.0,0.0,0.0,0.0,0.0,0.0,0.0,0.0,0.0,0.6276,0.5767,0.5246,0.5246,0.522,0.5134,0.5007,0.501,0.4967,0.4981,0.4751,0.4637,0.4658,0.467,0.4718,0.4649,0.3853,0.3474,0.3807,0.2599,0.2162,0.2351,0.199,0.1807,0.1808,0.0,0.0,0.156,0.1585,0.1496,0.1496,0.1496,0.1496,0.1496,0.1496,0.1496,0.1591,0.183,0.1903,0.1903,0.1903,0.1903,0.1903,0.1903,0.1903,0.1903,0.1903,0.1903,0.1903,0.1903,0.1903,0.0,0.1903,0.1903,0.1902,0.1712,0.1617,0.1617,0.1332,0.1332,0.1332,0.1332,0.0667,0.0381,0.1142,0.0095,-0.0763,-0.0,0.0851,0.1317,0.1411,0.1317,0.1317,0.1411,0.1505,0.1505,0.1317,0.1669,0.1927,0.1744,0.1897,0.1969,0.1969,0.2686,0.3494,0.4389,0.4389,0.4389,0.4389,0.4389,0.438,0.4275,0.4275,0.4265,0.433,0.5339,0.5979,0.0,0.0,0.0,0.0,0.0,0.0,0.0,0.0,0.0,0.0,0.0,0.5628,0.0,0.0,0.5093,0.5553,0.5165,0.4878,0.4859,0.4706,0.4624,0.4706,0.4785,0.4668,0.4447,0.454,0.4582,0.4431,0.4048,0.3851,0.4022,0.292,0.2411,0.2623,0.1815,0.1449,0.1642,0.0975,0.0689,0.0596,0.01,-0.0101,-0.0102,-0.0103,-0.0,-0.0,-0.0,-0.0,-0.0,-0.0,-0.0,-0.0103,-0.0203,0.0498,0.147,0.147,0.147,0.147,0.147,0.147,0.147,0.147,0.147,0.147,0.147,0.147,0.147,0.147,0.147,0.1372,0.0784,0.0686,0.049,-0.0,-0.0196,-0.0196,-0.0196,-0.0491,-0.0687,-0.0196,-0.0883,-0.1375,-0.0884,-0.0491,-0.0097,-0.0096,-0.0095,-0.0095,-0.0095,0.0286,0.0381,-0.0095,0.0755,0.1125,0.0657,0.1104,0.1364,0.1364,0.1891,0.2327,0.2864,0.3314,0.3583,0.3583,0.403,0.43,0.43,0.43,0.43,0.4297,0.4727,0.4996,0.0,0.0,0.0,0.0,0.0,0.0,0.0,0.0,0.5018,0.5018,0.5018,0.5018,0.5018,0.4937,0.4945,0.4969,0.4813,0.4693,0.4806,0.4575,0.4501,0.4688,0.4752,0.4697,0.4382,0.4393,0.4357,0.421,0.3299,0.2814,0.306,0.1988,0.134,0.134,0.1073,0.0888,0.0892,0.0101,-0.0307,-0.0313,-0.1252,-0.1682,-0.1704,-0.1704,-0.1704,-0.1704,-0.1704,-0.1704,-0.1704,-0.1704,-0.1704,-0.1704,-0.1704,-0.0628,0.0917,0.0917,0.0917,0.0917,0.0917,0.0917,0.0917,0.0917,0.0917,0.0917,0.0917,0.0917,0.0917,0.0917,0.0917,0.0713,-0.0102,-0.0306,-0.051,-0.1429,-0.163,-0.1626,-0.1626,-0.1621,-0.1617,-0.1617,-0.1617,-0.1617,-0.1617,-0.1617,-0.16,-0.1551,-0.1544,-0.1544,-0.1544,-0.0868,-0.0675,-0.1447,-0.0192,0.0478,-0.0286,0.0375,0.0929,0.1115,0.1093,0.1171,0.135,0.2154,0.2597,0.2597,0.3314,0.376,0.376,0.376,0.376,0.376,0.376,0.3907,0.4795,0.4898,0.4977,0.5052,0.5063,0.4996,0.0,0.0,0.5018,0.5018,0.5018,0.5018,0.5018,0.4859,0.4734,0.4836,0.4688,0.4563,0.467,0.4516,0.438,0.4554,0.4402,0.4387,0.4486,0.3718,0.3166,0.3019,0.2298,0.1764,0.1516,0.058,0.0098,0.0098,-0.0797,-0.132,-0.1341,-0.1448,-0.1462,-0.1486,-0.1593,-0.1701,-0.1704,-0.1704,-0.1704,-0.1704,-0.1704,-0.1704,-0.1704,-0.1704,-0.1704,-0.1704,-0.1704,-0.1594,-0.1376,-0.1376,-0.1376,-0.1376,-0.1376,-0.1376,-0.1376,-0.1376,-0.1376,-0.1376,-0.1376,-0.1376,-0.1376,-0.1376,-0.1376,-0.1376,-0.1482,-0.1482,-0.1588,-0.1695,-0.1675,-0.1657,-0.1657,-0.1636,-0.1617,-0.1617,-0.1617,-0.1617,-0.1617,-0.1617,-0.1614,-0.1608,-0.1607,-0.1607,-0.1607,-0.1506,-0.1506,-0.1607,-0.1384,-0.1263,-0.1337,-0.1237,-0.0855,-0.0,0.0093,0.0553,0.138,0.1537,0.1611,0.1611,0.17,0.17,0.17,0.17,0.17,0.17,0.17,0.2681,0.4607,0.498,0.0,0.0,0.5018,0.5018,0.5018,0.5018,0.4937,0.4859,0.4857,0.48,0.4706,0.4639,0.4593,0.0,0.4055,0.3586,0.3668,0.3082,0.2674,0.2908,0.2715,0.2886,0.3532,0.2771,0.2176,0.203,0.1132,0.0575,0.0484,-0.0395,-0.0997,-0.0997,-0.1424,-0.165,-0.1662,-0.1678,-0.1701,-0.1731,-0.1731,-0.174,-0.1757,-0.1757,-0.1757,-0.1757,-0.1757,-0.1757,-0.1757,-0.1757,-0.1757,-0.1757,-0.1757,-0.1757,-0.1752,-0.1717,-0.1704,-0.1704,-0.1704,-0.1704,-0.1704,-0.1704,-0.1704,-0.1704,-0.1704,-0.1704,-0.1704,-0.1704,-0.1704,-0.1704,-0.1704,-0.1704,-0.1704,-0.1704,-0.1695,-0.1686,-0.1686,-0.1677,-0.1667,-0.1667,-0.1654,-0.1643,-0.1643,-0.1628,-0.1617,-0.1617,-0.1617,-0.1617,-0.1617,-0.1617,-0.1617,-0.1617,-0.1605,-0.1593,-0.158,-0.1563,-0.1358,-0.097,-0.0952,-0.0659,-0.0282,0.0277,0.0547,0.0547,0.1081,0.1431,0.1431,0.1431,0.1431,0.1431,0.1431,0.1878,0.3429,0.0,0.0,0.4151,0.4151,0.4151,0.4151,0.4151,0.407,0.3992,0.3934,0.3893,0.3798,0.3747,0.371,0.3796,0.3049,0.2476,0.253,0.1838,0.1409,0.1697,0.1253,0.1256,0.1987,0.1557,0.1206,0.1032,0.0096,-0.0491,-0.0494,-0.1203,-0.1621,-0.1629,-0.1651,-0.167,-0.1686,-0.1707,-0.1732,-0.1762,-0.1762,-0.1774,-0.1795,-0.1795,-0.1795,-0.1795,-0.1795,-0.1795,-0.1795,-0.1795,-0.1795,-0.1795,-0.1795,-0.1795,-0.179,-0.1746,-0.1729,-0.1729,-0.1729,-0.1729,-0.1729,-0.1729,-0.1729,-0.1729,-0.1729,-0.1729,-0.1729,-0.1729,-0.1729,-0.1729,-0.1729,-0.1729,-0.1729,-0.1729,-0.1722,-0.1717,-0.1717,-0.171,-0.1704,-0.1704,-0.1688,-0.1674,-0.1674,-0.1656,-0.1638,-0.163,-0.1629,-0.1626,-0.1618,-0.1617,-0.1617,-0.1617,-0.1617,-0.1617,-0.1617,-0.1596,-0.1584,-0.1584,-0.1555,-0.1538,-0.1538,-0.0849,-0.0373,-0.0373,0.0274,0.0632,0.0632,0.0628,0.0627,0.0627,0.0627,0.0627,0.0,0.0,0.2033,0.2033,0.2033,0.2033,0.2033,0.2033,0.1955,0.1955,0.1911,0.1861,0.1862,0.1733,0.1603,0.1725,0.1474,0.1398,0.1427,0.143,0.1431,0.1431,0.0627,0.009,0.0,0.0092,-0.0,-0.0098,-0.098,-0.1584,-0.1513,-0.1616,-0.163,-0.166,-0.1662,-0.169,-0.1746,-0.1748,-0.1763,-0.1793,-0.1793,-0.1794,-0.1795,-0.1795,-0.1795,-0.1795,-0.1795,-0.1795,-0.1795,-0.1795,-0.1795,-0.1795,-0.1795,-0.1795,-0.1795,-0.1793,-0.1792,-0.1792,-0.1792,-0.1792,-0.1792,-0.1792,-0.1792,-0.1792,-0.1792,-0.1792,-0.1792,-0.1792,-0.1792,-0.1792,-0.1792,-0.1792,-0.1792,-0.1792,-0.177,-0.1748,-0.1748,-0.1725,-0.1704,-0.1704,-0.1703,-0.1703,-0.1703,-0.1702,-0.1692,-0.1665,-0.1661,-0.165,-0.1621,-0.1617,-0.1617,-0.1617,-0.1617,-0.1617,-0.1617,-0.1616,-0.1615,-0.1615,-0.1587,-0.157,-0.157,-0.154,-0.143,-0.143,-0.1401,-0.1387,-0.1387,-0.1359,-0.1345,-0.1345,-0.1345,-0.1345,0.0,0.0,0.1252,0.1799,0.1877,0.1877,0.1877,0.1877,0.1885,0.1675,0.1611,0.1554,0.1519,0.1452,0.1383,0.15,0.0886,0.0445,0.0448,-0.009,-0.0448,-0.0448,-0.0717,0.0,0.0,0.0,0.0,-0.1077,-0.1391,-0.1606,-0.1616,-0.1636,-0.1652,-0.1662,-0.17,-0.173,-0.1749,-0.177,-0.1785,-0.1795,-0.1795,-0.1795,-0.1795,-0.1795,-0.1795,-0.1795,-0.1795,-0.1795,-0.1795,-0.202,-0.202,-0.2132,-0.2356,-0.2357,-0.2357,-0.2357,-0.2357,-0.2356,-0.1908,-0.1795,-0.1795,-0.1795,-0.1795,-0.1795,-0.1795,-0.1795,-0.1795,-0.1795,-0.1795,-0.1795,-0.1795,-0.1795,-0.1795,-0.1795,-0.1787,-0.178,-0.178,-0.1772,-0.1765,-0.1765,-0.1748,-0.1734,-0.1734,-0.1718,-0.1701,-0.1692,-0.1657,-0.1628,-0.1618,-0.1617,-0.1617,-0.1617,-0.1617,-0.1617,-0.1617,-0.1617,-0.1617,-0.1617,-0.1607,-0.1601,-0.1601,-0.1573,-0.1556,-0.1556,-0.1526,-0.151,-0.151,-0.15,-0.1495,-0.1495,-0.1495,-0.1495,-0.0235,0.0078,0.0157,0.0626,0.0783,0.0783,0.0783,0.0788,0.0717,0.0566,0.0493,0.0419,0.0345,0.035,0.0353,0.0357,-0.009,-0.0538,-0.0538,-0.0987,-0.1436,-0.1436,-0.1444,-0.1471,0.0,0.0,0.0,-0.1585,-0.1606,-0.1617,-0.1617,-0.1646,-0.1667,-0.1677,-0.1725,-0.1755,-0.1765,-0.1785,-0.1795,-0.1795,-0.1795,-0.1795,-0.1908,-0.1908,-0.202,-0.2132,-0.2132,-0.2132,-0.2132,-0.2356,-0.2356,-0.2357,-0.2581,-0.2693,-0.2693,-0.2693,-0.2581,-0.2469,-0.2244,-0.2132,-0.2132,-0.2132,-0.202,-0.1908,-0.1908,-0.1907,-0.1795,-0.1795,-0.1795,-0.1795,-0.1795,-0.1795,-0.1795,-0.1795,-0.1795,-0.1795,-0.1795,-0.1795,-0.1795,-0.1795,-0.1779,-0.1765,-0.1765,-0.174,-0.172,-0.172,-0.1679,-0.1644,-0.1635,-0.1633,-0.1629,-0.1618,-0.1617,-0.1617,-0.1617,-0.1617,-0.1617,-0.1617,-0.1617,-0.1617,-0.1617,-0.1598,-0.1588,-0.1588,-0.1558,-0.1542,-0.1542,-0.1531,-0.1526,-0.1526,-0.1526,-0.1526,-0.1335,-0.1335,-0.1335,-0.1335,-0.1335,-0.1336,-0.1338,-0.1282,-0.1303,-0.1307,-0.1351,-0.1391,0.0,0.0,-0.1436,-0.1436,-0.1436,-0.1436,-0.1436,-0.1436,-0.1436,0.0,0.0,0.0,0.0,0.0,0.0,-0.1614,0.0,-0.1618,-0.1619,-0.1648,-0.1677,-0.1705,-0.1736,-0.1765,-0.1795,-0.1795,-0.1795,-0.1795,-0.1795,-0.1908,-0.2244,-0.2244,-0.2357,-0.2693,-0.2693,-0.2693,-0.2693,-0.2693,-0.2693,-0.2693,-0.2693,-0.2693,-0.2693,-0.2693,-0.258,-0.2356,-0.2581,-0.2693,-0.2693,-0.2693,-0.2469,-0.2132,-0.2132,-0.202,-0.1795,-0.1795,-0.1795,-0.1795,-0.1795,-0.1795,-0.1795,-0.1795,-0.1795,-0.1795,-0.1795,-0.1795,-0.1795,-0.1795,-0.1795,-0.1795,-0.1795,-0.1771,-0.1752,-0.1752,-0.1727,-0.1698,-0.1668,-0.1665,-0.1653,-0.1622,-0.162,-0.1619,-0.1617,-0.1617,-0.1617,-0.1617,-0.1617,-0.1617,-0.1617,-0.1617,-0.1617,-0.1617,-0.1589,-0.1574,-0.1574,-0.1545,-0.153,-0.153,-0.153,-0.153,-0.1335,-0.1335,-0.1335,-0.1335,-0.1335,-0.1263,-0.1286,-0.1297,-0.1315,-0.1358,-0.138,-0.1397,0.0,0.0,0.0,-0.1436,-0.1436,0.0,-0.1436,-0.1436,0.0,-0.1436,0.0,-0.1493,-0.1523,-0.1553,0.0,0.0,-0.1617,-0.1626,-0.165,-0.1678,-0.1707,-0.1737,-0.1988,-0.2011,-0.1795,-0.1795,-0.1795,-0.1795,-0.202,-0.2132,-0.2244,-0.2469,-0.2581,-0.2693,-0.2693,-0.2693,-0.2693,-0.2915,-0.3027,-0.3027,-0.3251,-0.3365,-0.3365,-0.3365,-0.3365,-0.3251,-0.3365,-0.2803,-0.202,-0.202,-0.202,-0.1907,-0.1907,-0.1907,-0.1795,-0.1795,-0.1795,-0.1795,-0.1795,-0.1795,-0.1795,-0.1795,-0.1795,-0.1795,-0.1795,-0.1795,-0.1795,-0.1795,-0.1795,-0.1795,-0.1795,-0.1789,-0.1783,-0.1783,-0.1777,-0.1752,-0.17,-0.1693,-0.1682,-0.1654,-0.1651,-0.1641,-0.1619,-0.1617,-0.1617,-0.1617,-0.1617,-0.1617,-0.1617,-0.1617,-0.1617,-0.1617,-0.1609,-0.1605,-0.1605,-0.1598,-0.1594,-0.1594,-0.1594,-0.1594,-0.1335,-0.1335,-0.1335,-0.1335,-0.1335,-0.1265,-0.1296,-0.1313,-0.1335,-0.138,-0.14,0.0,0.0,0.0,0.0,0.0,0.0,0.0,-0.1436,-0.1436,-0.1436,0.0,-0.1474,0.0,-0.162,-0.1664,-0.1698,0.0,-0.1617,-0.163,-0.166,-0.1795,-0.1933,-0.1968,-0.2224,-0.2244,-0.202,-0.202,-0.202,-0.202,-0.2244,-0.2468,-0.2579,-0.2805,-0.2917,-0.3141,0.0,-0.3141,-0.3141,-0.3251,-0.3362,-0.3362,-0.3475,-0.3587,-0.3587,-0.3587,-0.3475,-0.3362,-0.3362,-0.2915,-0.2244,-0.2467,-0.2467,-0.2354,-0.2354,-0.2243,-0.2244,-0.2244,-0.2244,-0.2244,-0.2244,-0.2132,-0.202,-0.2132,-0.2132,-0.202,-0.2132,-0.2244,-0.2132,-0.202,-0.202,-0.1908,-0.1795,-0.1795,-0.1795,-0.1795,-0.1795,-0.1782,-0.1748,-0.1733,-0.1713,-0.1684,-0.1681,-0.1674,-0.1656,-0.1643,-0.1637,-0.1637,-0.1624,-0.1617,-0.1617,-0.1617,-0.1617,-0.1617,-0.1617,-0.1617,-0.1617,-0.1718,-0.1819,-0.1819,-0.1819,-0.1818,-0.1492,-0.1492,-0.1492,-0.1492,-0.1414,-0.1266,-0.1301,-0.1329,-0.1357,-0.1389,0.0,-0.1436,-0.1436,-0.1436,-0.1436,-0.1436,0.0,-0.1436,-0.1614,-0.1614,-0.1614,-0.1614,-0.1671,-0.1807,-0.1812,-0.1676,-0.1713,-0.2021,-0.1819,-0.1734,-0.177,-0.2008,-0.2258,-0.2303,-0.2562,-0.2581,-0.2356,-0.2244,-0.2244,-0.2244,-0.2581,-0.2917,-0.3137,-0.3137,-0.3362,-0.3587,-0.3587,-0.3587,-0.3587,-0.3587,-0.3587,-0.3587,-0.3587,-0.3587,-0.3587,-0.3587,-0.3362,-0.3138,-0.3138,-0.3027,-0.2918,-0.3365,-0.325,-0.3026,-0.3026,-0.2915,-0.2693,-0.2693,-0.2693,-0.2693,-0.2693,-0.2469,-0.2356,-0.2581,-0.2469,-0.2356,-0.2581,-0.2693,-0.2581,-0.2356,-0.2244,-0.2244,-0.1908,-0.1908,-0.1908,-0.1908,-0.1907,-0.1907,-0.1907,-0.1772,-0.1744,-0.1714,-0.171,-0.1709,-0.1705,-0.1682,-0.1668,-0.1668,-0.1643,-0.1628,-0.1628,-0.1625,-0.1623,-0.1623,-0.1619,-0.1617,-0.1617,-0.1819,-0.1921,-0.1921,-0.1921,-0.2124,-0.251,-0.2276,-0.2276,-0.2276,-0.1805,-0.1272,-0.1327,-0.126,0.0,0.0,0.0,-0.1436,-0.1436,-0.1436,0.0,-0.1436,0.0,0.0,0.0,0.0,-0.2599,0.0,0.0,0.0,0.0,0.0,0.0,0.0,0.0,-0.1948,-0.2118,-0.2127,-0.2377,-0.2899,-0.28,-0.2805,-0.2914,-0.2692,-0.2581,-0.2581,-0.2915,-0.3026,-0.3137,-0.3362,-0.3587,-0.3587,-0.3587,0.0,-0.3587,-0.3587,-0.3587,-0.3587,-0.3587,-0.3587,-0.3587,-0.3587,-0.3587,-0.3475,-0.3475,-0.3475,-0.3363,-0.303,-0.2806,-0.2805,-0.2805,-0.2693,-0.2693,-0.2693,-0.2693,-0.2693,-0.2693,-0.2693,-0.2581,-0.2693,-0.2693,-0.2581,-0.2693,-0.2693,-0.2693,-0.2581,-0.2581,-0.2581,-0.2581,-0.2581,-0.2581,-0.2581,-0.2356,-0.2132,-0.2132,-0.1903,-0.1776,-0.1745,-0.1742,-0.1731,-0.1706,-0.1699,-0.1697,-0.1697,-0.1692,-0.1689,-0.1689,-0.1667,-0.1654,-0.1654,-0.163,-0.1617,-0.1617,-0.1617,-0.1718,-0.1718,-0.1718,-0.1732,-0.3288,-0.321,-0.321,-0.321,-0.2898,-0.2617,-0.2661,0.0,0.0,0.0,-0.1793,-0.1436,-0.1436,0.0,0.0,0.0,0.0,0.0,0.0,0.0,0.0,0.0,0.0,0.0,0.0,0.0,0.0,0.0,0.0,-0.2257,-0.2446,-0.26,-0.2866,-0.3361,-0.3027,-0.2914,-0.3137,-0.3585,-0.3586,-0.2915,-0.3808,-0.392,-0.3362,-0.3475,-0.3587,-0.3587,-0.3587,-0.3587,-0.3587,-0.3587,-0.3587,-0.3587,-0.3587,-0.3587,-0.3587,-0.3587,-0.3587,-0.3587,-0.3587,-0.3587,-0.3587,-0.3253,-0.3141,-0.3141,-0.3141,-0.3141,-0.3141,-0.3141,-0.3141,-0.3141,-0.3141,-0.3029,-0.2915,-0.3141,-0.3141,-0.3141,-0.3141,-0.3141,-0.3141,-0.2915,-0.2915,-0.2917,-0.2693,-0.2693,-0.2693,-0.2693,-0.2581,-0.2469,-0.2469,-0.2356,-0.2237,-0.1997,-0.1995,-0.2099,-0.2191,-0.1955,-0.1836,-0.1944,-0.182,-0.1704,-0.1704,-0.1691,-0.1684,-0.1684,-0.1669,-0.1662,-0.1662,-0.1766,-0.187,-0.187,-0.187,-0.1983,-0.4142,-0.4066,-0.4066,-0.4066,-0.3908,-0.3801,-0.3983,-0.3271,0.0,0.0,-0.2055,-0.1433,-0.1694,0.0,0.0,0.0,0.0,0.0,0.0,0.0,0.0,0.0,0.0,0.0,0.0,0.0,0.0,0.0,0.0,0.0,-0.3082,-0.3628,-0.4029,-0.4365,-0.414,-0.3917,-0.3917,-0.492,-0.492,-0.3917,-0.5144,-0.5258,-0.4365,-0.4365,-0.4365,-0.4365,-0.4365,-0.4365,-0.4365,-0.4365,-0.4365,-0.4365,-0.4365,-0.4365,-0.4365,-0.4365,-0.4143,-0.4033,-0.4255,-0.4033,-0.3587,-0.3923,-0.3811,-0.3587,-0.3587,-0.3587,-0.3587,-0.3587,-0.3587,-0.3587,-0.3587,-0.3362,-0.325,-0.3587,-0.3587,-0.3587,-0.3587,-0.3587,-0.3475,-0.325,-0.325,-0.3138,-0.2917,-0.2918,-0.2918,-0.2918,-0.2806,-0.2806,-0.2806,-0.2806,-0.2692,-0.2468,-0.2356,-0.2469,-0.2693,-0.2217,-0.209,-0.231,-0.2063,-0.1939,-0.1939,-0.1825,-0.1821,-0.1821,-0.1814,-0.1811,-0.1811,-0.2024,-0.2237,-0.2237,-0.2449,-0.2666,-0.5082,-0.4924,-0.4924,-0.4924,-0.4377,-0.3801,-0.3983,0.0,0.0,-0.2771,-0.2034,-0.1694,-0.2534,-0.283,0.0,0.0,0.0,0.0,0.0,0.0,0.0,0.0,0.0,0.0,0.0,0.0,0.0,0.0,0.0,0.0,-0.4671,-0.5918,-0.6695,-0.6808,-0.6695,-0.6695,-0.6695,-0.6805,-0.6805,-0.6695,-0.6916,-0.6916,-0.6808,-0.6808,-0.6808,-0.6808,-0.6808,-0.6808,0.0,-0.6808,-0.6808,-0.6808,-0.6808,-0.6808,-0.6808,-0.6808,-0.6144,-0.5369,-0.6364,-0.5365,-0.3811,-0.4925,-0.448,-0.3587,-0.3587,-0.3587,-0.3587,-0.3587,-0.3587,-0.3587,-0.3587,-0.3587,-0.3587,-0.3587,-0.3587,-0.3587,-0.3587,-0.3587,-0.3587,-0.3587,-0.3587,-0.3587,-0.3475,-0.3475,-0.3475,-0.3475,-0.325,-0.3026,-0.3026,-0.3026,-0.3026,-0.3026,-0.2805,-0.2693,-0.2693,-0.269,-0.2575,-0.2687,-0.2572,-0.257,-0.257,-0.2311,-0.2182,-0.2182,-0.2148,-0.2131,-0.2131,-0.2451,-0.2558,-0.2558,-0.3719,-0.4174,-0.5944,-0.5789,-0.5789,-0.5789,-0.5553,-0.5384,-0.5556,0.0,0.0,-0.3698,-0.2793,-0.2105,-0.1999,-0.2911,-0.3844,0.0,0.0,0.0,0.0,0.0,0.0,0.0,0.0,0.0,0.0,0.0,0.0,0.0,0.0,0.0,-0.7098,-0.7116,-0.7138,-0.7138,-0.7138,-0.7138,-0.7138,-0.7808,-0.7808,-0.7138,-0.7808,-0.7805,-0.7138,-0.7138,-0.7138,-0.7138,-0.7138,-0.7138,0.0,-0.7138,-0.7138,-0.7138,-0.7138,-0.7138,-0.7138,-0.7138,-0.6808,-0.6478,-0.6919,-0.6475,-0.5808,-0.6255,-0.6144,-0.5477,-0.4033,-0.3587,-0.3587,-0.3587,-0.3587,-0.3587,-0.3587,-0.3587,-0.3587,-0.3587,-0.3587,-0.3587,-0.3587,-0.3587,-0.3587,-0.3587,-0.3587,-0.3587,-0.3587,-0.3587,-0.3587,-0.3587,-0.3475,-0.3362,-0.3362,-0.3362,-0.3362,-0.3362,-0.3138,-0.3027,-0.3253,-0.2918,-0.2805,-0.2915,-0.2806,-0.2693,-0.2693,-0.2565,-0.2555,-0.2555,-0.2538,-0.2529,-0.2529,-0.3293,-0.3729,-0.3729,-0.4926,-0.549,-0.6338,-0.6338,-0.6338,-0.6338,-0.6338,-0.6325,0.0,0.0,0.0,-0.4216,-0.3092,-0.2251,-0.2238,-0.3337,-0.4467,0.0,0.0,0.0,0.0,0.0,0.0,0.0,0.0,0.0,0.0,0.0,0.0,0.0,0.0,0.0,-0.91,-0.8534,-0.8137,-0.8137,-0.8137,-0.8137,-0.8137,-0.9027,-0.9027,-0.8137,-0.903,-0.9027,-0.8137,-0.8137,-0.8137,-0.8137,-0.8137,-0.8137,0.0,-0.8137,-0.8137,-0.8137,-0.8137,-0.8137,-0.8137,-0.8137,-0.7916,-0.7695,-0.8026,-0.7695,-0.7138,-0.7473,-0.7362,-0.6805,-0.5142,-0.4589,-0.4589,-0.4589,-0.4367,-0.4145,-0.4145,-0.3921,-0.3587,-0.3587,-0.3587,-0.3587,-0.3587,-0.3587,-0.3587,-0.3587,-0.3587,-0.3587,-0.3587,-0.3587,-0.3587,-0.3587,-0.3587,-0.3587,-0.3587,-0.3587,-0.3587,-0.3587,-0.3362,-0.3362,-0.3587,-0.3253,-0.3029,-0.325,-0.3027,-0.2918,-0.2918,-0.3251,-0.3363,-0.3363,-0.3696,-0.3918,-0.3918,-0.4806,-0.525,-0.525,-0.647,-0.7138,-0.6338,-0.6338,-0.6338,-0.6338,-0.6338,-0.6298,0.0,0.0,0.0,-0.3972,-0.2608,-0.1984,-0.3792,-0.4257,-0.491,-0.6782,0.0,0.0,0.0,0.0,0.0,0.0,0.0,0.0,0.0,0.0,0.0,0.0,0.0,0.0,-1.016,-1.0497,-1.0692,-1.0692,-1.0692,-1.0692,-1.0692,-1.0692,-1.0692,-1.0692,-1.0692,-1.0692,-1.0692,-1.0692,-1.0692,-1.0692,-1.0692,-1.0692,0.0,-1.0692,-1.0692,-1.0692,-1.0692,-1.0692,-1.0692,-1.0692,-0.9915,-0.903,-1.0249,-0.9133,-0.7252,-0.8475,-0.8029,-0.7138,-0.7027,-0.7027,-0.7027,-0.7027,-0.6255,-0.5371,-0.5371,-0.448,-0.3587,-0.3587,-0.3587,-0.3587,-0.3587,-0.3587,-0.3587,-0.3587,-0.3587,-0.3587,-0.3587,-0.3587,-0.3587,-0.3587,-0.3587,-0.3587,-0.3587,-0.3587,-0.3587,-0.3587,-0.3587,-0.3587,-0.3587,-0.3587,-0.3587,-0.3587,-0.3587,-0.3587,-0.3587,-0.4365,-0.492,-0.492,-0.6026,-0.6689,-0.6689,-0.6914,-0.7027,-0.7138,-0.8364,-0.9475,-0.6307,-0.6338,-0.6338,-0.6338,-0.6338,-0.6298,-0.6441,0.0,0.0,-0.4118,-0.3073,-0.2201,-0.2189,-0.3391,-0.4467,-0.509,-0.6248,0.0,0.0,0.0,0.0,0.0,0.0,0.0,0.0,0.0,0.0,0.0,0.0,0.0,-1.0156,-1.0387,-1.057,-1.0688,-1.0692,-1.0692,-1.0692,-1.0692,-1.0692,-1.0692,-1.0692,-1.0692,-1.0692,-1.0692,-1.0692,-1.0692,-1.0692,-1.0692,-1.0692,-1.0692,-1.0692,-1.0692,-1.0692,-1.0692,-1.0692,-1.0692,-1.0468,-1.0139,-1.0582,-1.0245,-0.9581,-1.0025,-0.9915,-0.9581,-0.9581,-0.8358,-0.7138,-0.7138,-0.6808,-0.6586,-0.6586,-0.6253,-0.5808,-0.5035,-0.4814,-0.4592,-0.3811,-0.3587,-0.3587,-0.3587,-0.3587,-0.3587,-0.3587,-0.3587,-0.3587,-0.3587,-0.3587,-0.3587,-0.3587,-0.3587,-0.3587,-0.3587,-0.3587,-0.3587,-0.3587,-0.3587,-0.3587,-0.3587,-0.4367,-0.4814,-0.4814,-0.581,-0.6362,-0.6362,-0.6805,-0.7025,-0.7025,-0.7919,-0.8806,-0.9581,-0.9915,-1.0359,0.0,-0.6338,-0.6338,-0.6338,-0.6338,0.0,0.0,0.0,0.0,0.0,0.0,-0.2185,-0.2354,-0.3478,-0.4556,-0.5267,-0.6337,0.0,0.0,0.0,0.0,0.0,0.0,0.0,0.0,0.0,0.0,0.0,0.0,0.0,-1.005,-1.0298,-1.0485,-1.059,-1.066,-1.0692,-1.0692,-1.0692,-1.0692,-1.0692,-1.0692,-1.0692,-1.0692,-1.0692,-1.0692,-1.0692,-1.0692,-1.0692,0.0,-1.0692,-1.0692,-1.0692,-1.0692,-1.0692,-1.0692,-1.0692,-1.0692,-1.0692,-1.0692,-1.0692,-1.0692,-1.0692,-1.0692,-1.0692,-1.0692,-0.9691,-0.8468,-0.8468,-0.8137,-0.7805,-0.7805,-0.7473,-0.6919,-0.6255,-0.6035,-0.5813,-0.5033,-0.4921,-0.4921,-0.4921,-0.4921,-0.4921,-0.4921,-0.4589,-0.4257,-0.4257,-0.3923,-0.3587,-0.3587,-0.3587,-0.3811,-0.4257,-0.4257,-0.4479,-0.4921,-0.4143,-0.4033,-0.481,-0.5258,-0.5592,-0.6035,-0.7143,-0.7805,-0.7805,-0.8247,-0.8468,-0.8468,-0.9251,-0.9915,-1.0692,-1.0692,-1.0692,0.0,0.0,0.0,0.0,0.0,0.0,0.0,0.0,0.0,0.0,0.0,0.0,0.0,-0.4257,-0.5001,-0.6694,-0.7051,0.0,0.0,0.0,0.0,0.0,0.0,0.0,0.0,0.0,0.0,0.0,0.0,0.0,-0.9884,-1.0221,-1.0424,-1.0436,-1.0603,-1.0692,-1.0692,-1.0692,-1.0692,-1.0692,-1.0692,-1.0692,-1.0692,-1.0692,-1.0692,0.0,-1.0692,-1.0692,-1.0692,-1.0692,-1.0692,-1.0692,-1.0692,-1.0692,-1.0692,-1.0692,-1.0692,-1.0692,-1.0692,-1.0692,-1.0692,-1.0692,-1.0692,-1.0692,-1.0692,-1.0692,-1.0692,-1.0692,-0.9915,-0.9034,-0.9034,-0.8251,-0.736,-0.7249,-0.7252,-0.7249,-0.7138,-0.7138,-0.7138,-0.7138,-0.7138,-0.7138,-0.7138,-0.6255,-0.5483,-0.5483,-0.459,-0.381,-0.381,-0.381,-0.4257,-0.5369,-0.5483,-0.6035,-0.7138,-0.5144,-0.481,-0.6916,-0.6146,-0.6146,-0.7138,-0.8364,-0.9034,-0.9034,-1.0139,-1.0692,-1.0692,-1.0692,-1.0692,-1.0692,-1.0692,-1.0692,-0.6176,0.0,-0.6338,-0.6338,-0.6338,0.0,0.0,0.0,0.0,0.0,0.0,0.0,0.0,0.0,0.0,0.0,0.0,0.0,0.0,0.0,0.0,0.0,0.0,0.0,0.0,0.0,0.0,0.0,0.0,-0.9746,-0.988,-1.0103,-1.029,-1.0432,-1.0603,-1.0692,-1.0692,-1.0692,-1.0692,-1.0692,-1.0692,-1.0692,-1.0692,-1.0692,-1.0692,-1.0692,-1.0692,-1.0692,-1.0692,-1.0692,-1.0692,-1.0692,-1.0692,-1.0692,-1.0692,-1.0692,-1.0692,-1.0692,-1.0692,-1.0692,-1.0692,-1.0692,-1.0692,-1.0692,-1.0692,-1.0692,-1.0692,-1.0692,-1.0468,-1.0249,-1.0249,-1.0025,-0.9581,-0.8696,-0.8475,-0.8254,-0.7252,-0.7138,-0.7138,-0.7138,-0.7138,-0.7138,-0.7138,-0.6919,-0.6697,-0.6697,-0.6475,-0.6253,-0.6253,-0.6253,-0.6364,-0.6697,-0.6697,-0.7141,-0.8364,-0.7141,-0.6473,-0.7027,-0.7697,-0.8146,-0.8475,-0.9585,-1.0249,-1.0249,-1.0582,-1.0692,-1.0692,-1.0692,-1.0692,-1.0692,-1.0692,-1.0692,-0.6091,-0.6207,-0.6338,-0.6338,-0.6338,-0.6338,0.0,0.0,0.0,0.0,0.0,0.0,0.0,0.0,0.0,0.0,0.0,0.0,0.0,0.0,0.0,0.0,0.0,0.0,0.0,0.0,0.0,0.0,0.0,-0.9669,-0.9762,-0.9937,-1.0119,-1.0306,-1.0481,-1.0611,-1.0692,-1.0692,-1.0692,-1.0692,-1.0692,-1.0692,-1.0692,-1.0692,-1.0692,-1.0692,-1.0692,-1.0692,-1.0692,-1.0692,-1.0692,-1.0692,-1.0692,-1.0692,-1.0692,-1.0692,-1.0692,-1.0692,-1.0692,-1.0692,-1.0692,-1.0692,-1.0692,-1.0692,-1.0692,-1.0692,-1.0692,-1.0692,-1.0692,-1.0692,-1.0692,-1.0692,-1.0582,-0.9919,-0.9695,-0.9581,-0.8913,-0.8803,-0.8803,-0.8803,-0.8803,-0.8803,-0.8803,-0.8251,-0.7919,-0.7919,-0.7473,-0.7138,-0.7138,-0.7138,-0.7362,-0.7916,-0.7919,-0.8361,-0.9585,-0.9137,-0.8803,-0.8803,-0.8806,-0.9144,-0.9695,-1.0359,-1.0692,-1.0692,-1.0692,-1.0692,-1.0692,-1.0692,-1.0692,-1.0692,-1.0692,-1.0692,-0.6017,-0.6162,-0.6338,-0.6338,-0.6338,-0.6338,0.0,0.0,0.0,0.0,0.0,0.0,0.0,0.0,0.0,0.0,0.0,0.0,0.0,0.0,0.0,0.0,0.0,0.0,0.0,0.0,0.0,0.0,0.0,-0.9628,-0.9628,-0.9791,-0.9957,-1.0115,-1.0327,-1.0505,-1.0651,-1.068,-1.0692,-1.0692,-1.0692,-1.0692,-1.0692,-1.0692,-1.0692,-1.0692,0.0,0.0,-1.0692,-1.0692,-1.0692,-1.0692,-1.0692,-1.0692,-1.0692,-1.0692,-1.0692,-1.0692,-1.0692,-1.0692,-1.0692,-1.0692,-1.0692,-1.0692,-1.0692,-1.0692,-1.0692,-1.0692,-1.0692,-1.0692,-1.0692,-1.0692,-1.0692,-1.0692,-1.0692,-1.0692,-1.0692,-1.0692,-1.0692,-1.0692,-1.0692,-1.0692,-1.0692,-0.9805,-0.914,-0.914,-0.8251,-0.7692,-0.7692,-0.7692,-0.8026,-0.903,-0.914,-0.9585,-1.0582,-1.0692,-1.0692,-1.0692,-0.9695,-0.9585,-1.0692,-1.0692,-1.0692,-1.0692,-1.0692,-1.0692,-1.0692,-1.0692,-1.0692,-1.0692,-1.0692,-1.0692,-0.6149,-0.6244,-0.6338,-0.6338,-0.6338,-0.6338,0.0,0.0,0.0,0.0,0.0,0.0,0.0,0.0,0.0,0.0,0.0,0.0,0.0,0.0,0.0,0.0,0.0,0.0,0.0,0.0,0.0,0.0,0.0,-0.9628,-0.9628,-0.9791,-0.9896,-0.9929,-1.0257,-1.0448,-1.0473,-1.0619,-1.0692,-1.0692,-1.0692,-1.0692,-1.0692,-1.0692,-1.0692,-1.0692,0.0,-1.0692,-1.0692,-1.0692,-1.0692,-1.0692,-1.0692,-1.0692,-1.0692,-1.0692,-1.0692,-1.0692,-1.0692,-1.0692,-1.0692,-1.0692,-1.0692,-1.0692,-1.0692,-1.0692,-1.0692,-1.0692,-1.0692,-1.0692,-1.0692,-1.0692,-1.0692,-1.0692,-1.0692,-1.0692,-1.0692,-1.0692,-1.0692,-1.0692,-1.0692,-1.0692,-1.0692,-1.0582,-1.0472,-1.0472,-1.0249,-1.0135,-1.0135,-1.0135,-1.0245,-1.0359,-1.0472,-1.0468,-1.0692,-1.0692,-1.0692,-1.0692,-1.0582,-1.0468,-1.0692,-1.0692,-1.0692,-1.0692,-1.0692,-1.0692,-1.0692,-1.0692,-1.0692,-1.0692,-1.0692,-1.0692,-0.62,-0.6412,-0.649,-0.649,-0.649,-0.649,0.0,0.0,0.0,0.0,0.0,0.0,0.0,0.0,0.0,0.0,0.0,0.0,0.0,0.0,0.0,0.0,0.0,0.0,0.0,0.0,0.0,0.0,0.0,0.0,-0.9628,-0.9701,-0.9786,-0.9884,-1.005,-1.0233,-1.0432,-1.0513,-1.0599,-1.0692,-1.0692,-1.0692,-1.0692,-1.0692,-1.0692,-1.0692,0.0,-1.0692,-1.0692,-1.0692,-1.0692,-1.0692,-1.0692,-1.0692,-1.0692,-1.0692,-1.0692,-1.0692,-1.0692,-1.0692,-1.0692,-1.0692,-1.0692,-1.0692,-1.0692,-1.0692,-1.0692,-1.0692,-1.0692,-1.0692,-1.0692,-1.0692,-1.0692,-1.0692,-1.0692,-1.0692,-1.0692,-1.0692,-1.0692,-1.0692,-1.0692,-1.0692,-1.0692,-1.0692,-1.0692,-1.0692,-1.0692,-1.0692,-1.0692,-1.0692,-1.0692,-1.0692,-1.0692,-1.0692,-1.0692,-1.0692,-1.0692,-1.0692,-1.0692,-1.0692,-1.0692,-1.0692,-1.0692,-1.0692,-1.0692,-1.0692,-1.0692,-1.0692,-1.0692,-1.0692,-1.0692,-1.0692,-0.6217,-0.6412,-0.6563,0.0,0.0,0.0,0.0,0.0,0.0,0.0,0.0,0.0,0.0,0.0,0.0,0.0,0.0,0.0,0.0,0.0,0.0,0.0,0.0,0.0,0.0,0.0,0.0,0.0,0.0,0.0,-0.9628,-0.9821,-1.0078,-1.0213,-1.0264,-1.0326,-1.0615,-1.0498,-1.0521,-1.0692,-1.0692,-1.0692,-1.0692,-1.0692,-1.0692,-1.0692,-1.0692,-1.0692,-1.0692,-1.0692,-1.0692,-1.0692,-1.0692,-1.0692,-1.0692,-1.0692,-1.0692,-1.0692,-1.0692,-1.0692,-1.0692,-1.0692,-1.0692,-1.0692,-1.0692,-1.0692,-1.0692,-1.0692,-1.0692,-1.0692,-1.0692,-1.0692,-1.0692,-1.0692,-1.0692,-1.0692,-1.0692,-1.0692,-1.0692,-1.0692,-1.0692,-1.0692,-1.0692,-1.0692,-1.0692,-1.0692,-1.0692,-1.0692,-1.0692,-1.0692,-1.0692,-1.0692,-1.0692,-1.0692,-1.0692,-1.0692,-1.0692,-1.0692,-1.0692,-1.0692,-1.0692,-1.0692,-1.0692,-1.0692,-1.0692,-1.0692,-1.0692,-1.0692,-1.0692,-1.0692,-1.0692,-1.0692,-0.6217,-0.6338,-0.6338,-0.6338,0.0,0.0,0.0,0.0,0.0,0.0,0.0,0.0,0.0,0.0,0.0,0.0,0.0,0.0,0.0,0.0,0.0,0.0,0.0,0.0,0.0,0.0,0.0,0.0,0.0,0.0,-0.9628,-1.0498,-1.1082,-1.1096,-1.1188,-1.1304,-1.1332,-1.0682,-1.0521,-1.0692,-1.0692,-1.0692,-1.0692,-1.0692,-1.0692,-1.0692,-1.0692,-1.0692,-1.0692,-1.0692,-1.0692,-1.0692,-1.0692,-1.0692,-1.0692,-1.0692,-1.0692,-1.0692,-1.0692,-1.0692,-1.0692,-1.0692,-1.0692,-1.0692,-1.0692,-1.0692,-1.0692,-1.0692,-1.0692,-1.0692,-1.0692,-1.0692,-1.0692,-1.0692,-1.0692,-1.0692,-1.0692,-1.0692,-1.0692,-1.0692,-1.0692,-1.0692,-1.0692,-1.0692,-1.0692,-1.0692,-1.0692,-1.0692,-1.0692,-1.0692,-1.0692,-1.0692,-1.0692,-1.0692,-1.0692,-1.0692,-1.0692,-1.0692,-1.0692,-1.0692,-1.0692,-1.0692,-1.0692,-1.0692,-1.0692,-1.0692,-1.0692,-1.0692,-1.0692,-1.0692,-1.0692,-1.0692,-0.6321,-0.6567,-0.6799,0.0,0.0,0.0,0.0,0.0,0.0,0.0,0.0,0.0,0.0,0.0,0.0,0.0,0.0,0.0,0.0,0.0,0.0,0.0,0.0,0.0,0.0,0.0,0.0,0.0,0.0,0.0,-1.157,-1.1955,-1.1853,-1.1268,-1.125,-1.1056,-1.0483,-1.0344,-1.0775,-1.1599,-1.0962,-1.0692,-1.0692,-1.0692,-1.0692,-1.0692,-1.0692,-1.0692,-1.0692,-1.0692,-1.0692,-1.0692,-1.0692,-1.0692,-1.0692,-1.0692,-1.0692,-1.0692,-1.0692,-1.0692,-1.0692,-1.0692,-1.0692,-1.0692,-1.0692,-1.0692,-1.0692,-1.0692,-1.0692,-1.0692,-1.0692,-1.0692,-1.0692,-1.0692,-1.0692,-1.0692,-1.0692,-1.0692,-1.0692,-1.0692,-1.0692,-1.0692,-1.0692,-1.0692,-1.0692,-1.0692,-1.0692,-1.0692,-1.0692,-1.0692,-1.0692,-1.0692,-1.0692,-1.0692,-1.0692,-1.0692,-1.0692,-1.0692,-1.0692,-1.0692,-1.0692,-1.0692,-1.0692,-1.0692,-1.0692,-1.0692,-1.0692,-1.0692,-1.0692,-1.0692,-1.0692,-1.0692,-0.6563,-0.6795,-0.7022,0.0,0.0,0.0,0.0,0.0,0.0,0.0,0.0,0.0,0.0,0.0,0.0,0.0,0.0,0.0,0.0,0.0,0.0,0.0,0.0,0.0,0.0,0.0,0.0,0.0,0.0,0.0,0.0,-1.3022,-1.2926,-1.2242,-1.215,-1.1928,-1.1288,-1.1198,-1.161,-1.2546,-1.1907,-1.1711,-1.1769,-1.1769,-1.1555,-1.1232,-1.1232,-1.1017,-1.0692,-1.0692,-1.0692,-1.0692,-1.0692,-1.0692,-1.0692,-1.0692,-1.0692,-1.0692,-1.0692,-1.0692,-1.0692,-1.0692,-1.0692,-1.0692,-1.0692,-1.0692,-1.0692,-1.0692,-1.0692,-1.0692,-1.0692,-1.0692,-1.0692,-1.0692,-1.0692,-1.0692,-1.0692,-1.0692,-1.0692,-1.0692,-1.0692,-1.0692,-1.0692,-1.0692,-1.0692,-1.0692,-1.0692,-1.0692,-1.0692,-1.0692,-1.0692,-1.0692,-1.0692,-1.0692,-1.0692,-1.0692,-1.0692,-1.0692,-1.0692,-1.0692,-1.0692,-1.0692,-1.0692,-1.0692,-1.0692,-1.0692,-1.0692,-1.0692,-1.0692,-1.0692,-1.0692,-1.0907,-0.6942,-0.6942,0.0,0.0,0.0,0.0,0.0,0.0,0.0,0.0,0.0,0.0,0.0,0.0,0.0,0.0,0.0,0.0,0.0,0.0,0.0,0.0,0.0,0.0,0.0,0.0,0.0,0.0,0.0,0.0,-1.2727,-1.3709,-1.4298,-1.4298,-1.4298,-1.4298,-1.4298,-1.3473,-1.3111,-1.3448,-1.3674,-1.3911,-1.4132,-1.4132,-1.3491,-1.2413,-1.2413,-1.1769,-1.0692,-1.0692,-1.0692,-1.0692,-1.0692,-1.0692,-1.0692,-1.0692,-1.0692,-1.0692,-1.0692,-1.0692,-1.0692,-1.0692,-1.0692,-1.0692,-1.0692,-1.0692,-1.0692,-1.0692,-1.0692,-1.0692,-1.0692,-1.0692,-1.0692,-1.0692,-1.0692,-1.0692,-1.0692,-1.0692,-1.0692,-1.0692,-1.0692,-1.0692,-1.0692,-1.0692,-1.0692,-1.0692,-1.0692,-1.0692,-1.0692,-1.0692,-1.0692,-1.0692,-1.0692,-1.0692,-1.0692,-1.0692,-1.0692,-1.0692,-1.0692,-1.0692,-1.0692,-1.0692,-1.0692,-1.0692,-1.0692,-1.0692,-1.0692,-1.0692,-1.0692,-1.0692,-1.0692,-1.1341,-0.7778,0.0,0.0,0.0,0.0,0.0,0.0,0.0,0.0,0.0,0.0,0.0,0.0,0.0,0.0,0.0,0.0,0.0,0.0,0.0,0.0,0.0,0.0,0.0,0.0,0.0,0.0,0.0,0.0,-1.486,-1.486,-1.5153,-1.5064,-1.4298,-1.4298,-1.4004,-1.3414,-1.3363,-1.3902,-1.5279,-1.5427,-1.5065,-1.4465,-1.4245,-1.403,-1.3927,-1.3706,-1.3383,-1.3058,-1.22,-1.1446,-1.0692,-1.0692,-1.0692,-1.0692,-1.0692,-1.0692,-1.0692,-1.0692,-1.0692,-1.0692,-1.0692,-1.0692,-1.0692,-1.0692,-1.0692,-1.0692,-1.0692,-1.0692,-1.0692,-1.0692,-1.0692,-1.0692,-1.0692,-1.0692,-1.0692,-1.0692,-1.0692,-1.0692,-1.0692,-1.0692,-1.0692,-1.0692,-1.0692,-1.0692,-1.0692,-1.0692,-1.0692,-1.0692,-1.0692,-1.0692,-1.0692,-1.0692,-1.0692,-1.0692,-1.0692,-1.0692,-1.0692,-1.0692,-1.0692,-1.0692,-1.0692,-1.0692,-1.0692,-1.0692,-1.0692,-1.0692,-1.1555,-1.1878,-1.1878,-1.2738,-1.3275,-0.8484,0.0,0.0,0.0,0.0,0.0,0.0,0.0,0.0,0.0,0.0,0.0,0.0,0.0,0.0,0.0,0.0,0.0,0.0,0.0,0.0,0.0,0.0,0.0,0.0,0.0,0.0,0.0,-1.5445,-1.5832,-1.5832,-1.5832,-1.554,-1.4968,-1.4968,-1.4771,-1.4382,-1.4528,-1.5231,-1.6421,-1.6605,-1.6478,-1.6132,-1.5913,-1.5636,-1.5316,-1.4245,-1.3496,-1.2847,-1.2205,-1.1446,-1.0692,-1.0692,-1.0692,-1.0692,-1.0692,-1.0692,-1.0692,-1.0692,-1.0692,-1.0692,-1.0692,-1.0692,-1.0692,-1.0692,-1.0692,-1.0692,-1.0692,-1.0692,-1.0692,-1.0692,-1.0692,-1.0692,-1.0692,-1.0692,-1.0692,-1.0692,-1.0692,-1.0692,-1.0692,-1.0692,-1.0692,-1.0692,-1.0692,-1.0692,-1.0692,-1.0692,-1.0692,-1.0692,-1.0692,-1.0692,-1.0692,-1.0692,-1.0692,-1.0692,-1.0692,-1.0692,-1.0692,-1.1126,-1.1337,-1.1337,-1.1337,-1.1337,-1.1337,-1.1769,-1.2091,-1.2091,-1.2738,-1.3058,-1.3058,-1.3809,-1.4352,0.0,0.0,0.0,0.0,0.0,0.0,0.0,0.0,0.0,0.0,0.0,0.0,0.0,0.0,0.0,0.0,0.0,0.0,0.0,0.0,0.0,0.0,0.0,0.0,0.0,0.0,0.0,-1.5832,-1.5832,-1.5832,-1.5832,-1.5832,-1.5832,-1.5825,-1.6123,-1.6224,-1.6319,-1.6494,-1.6735,-1.7043,-1.745,-1.7874,-1.8404,-1.8393,-1.7779,-1.6698,-1.468,-1.2965,-1.1559,-1.1559,-1.1341,-1.1017,-1.1017,-1.1017,-1.1017,-1.1017,-1.0907,-1.0798,-1.0798,-1.0798,-1.0798,-1.0798,-1.0907,-1.1017,-1.0911,-1.0798,-1.0798,-1.0692,-1.0692,-1.0692,-1.0692,-1.0692,-1.0692,-1.0692,-1.0692,-1.0692,-1.0692,-1.0692,-1.0692,-1.0692,-1.0692,-1.0692,-1.0692,-1.0692,-1.0692,-1.0692,-1.0692,-1.0692,-1.0692,-1.0692,-1.0692,-1.0798,-1.0798,-1.0907,-1.1017,-1.1017,-1.1017,-1.1017,-1.1982,-1.2521,-1.2521,-1.2521,-1.2521,-1.2521,-1.3599,-1.4132,-1.4132,-1.4239,-1.4239,-1.4239,-1.4347,-1.4995,0.0,0.0,0.0,0.0,0.0,0.0,0.0,0.0,0.0,0.0,0.0,0.0,0.0,0.0,0.0,0.0,0.0,0.0,0.0,0.0,0.0,0.0,0.0,0.0,0.0,0.0,-1.5832,-1.5832,-1.5832,-1.5927,-1.6123,-1.6123,-1.6218,-1.64,-1.6494,-1.6595,-1.6791,-1.6885,-1.713,-1.7623,-1.7949,-1.8374,-1.8702,-1.849,-1.8318,-1.7996,-1.7569,-1.6499,-1.5215,-1.5215,-1.4465,-1.3383,-1.3383,-1.3383,-1.3383,-1.3383,-1.2847,-1.1987,-1.1987,-1.1987,-1.1987,-1.1987,-1.263,-1.3166,-1.2309,-1.1987,-1.1878,-1.0907,-1.0692,-1.0692,-1.0692,-1.0692,-1.0692,-1.0692,-1.0692,-1.0692,-1.0692,-1.0692,-1.0692,-1.0692,-1.0692,-1.0692,-1.0692,-1.0692,-1.0692,-1.0692,-1.0692,-1.0692,-1.0692,-1.0692,-1.1017,-1.1987,-1.1987,-1.2417,-1.3275,-1.3383,-1.3383,-1.3383,-1.3599,-1.3706,-1.3706,-1.3706,-1.3706,-1.3706,-1.403,-1.4132,-1.4132,-1.4995,-1.5535,-1.5535,-1.6399,-1.7041,0.0,0.0,0.0,0.0,0.0,0.0,0.0,0.0,0.0,0.0,0.0,0.0,0.0,0.0,0.0,0.0,0.0,0.0,0.0,0.0,0.0,0.0,0.0,0.0,0.0,-1.5658,-1.5832,-1.6021,-1.6028,-1.6123,-1.6407,-1.64,-1.6494,-1.6588,-1.6683,-1.6878,-1.6979,-1.7066,-1.7232,-1.7589,-1.7911,-1.8321,-1.8796,-1.8808,-1.8527,-1.8003,-1.8003,-1.7246,-1.5855,-1.5761,-1.5108,-1.4358,-1.4137,-1.4132,-1.4132,-1.4132,-1.3706,-1.3166,-1.3166,-1.3166,-1.3166,-1.3166,-1.3599,-1.4024,-1.3383,-1.3166,-1.3058,-1.2521,-1.2309,-1.2309,-1.2309,-1.2309,-1.2309,-1.2309,-1.1446,-1.0692,-1.0692,-1.0692,-1.0692,-1.0692,-1.0692,-1.0692,-1.0692,-1.0692,-1.0692,-1.0692,-1.1122,-1.1555,-1.1555,-1.1987,-1.2521,-1.3166,-1.3166,-1.3491,-1.4024,-1.4132,-1.4132,-1.4132,-1.4674,-1.4995,-1.4995,-1.5535,-1.5535,-1.4995,-1.553,-1.5749,-1.5749,-1.6399,-1.6717,-1.6723,-1.7364,-1.7582,0.0,0.0,0.0,0.0,0.0,0.0,0.0,0.0,0.0,0.0,0.0,0.0,0.0,0.0,0.0,0.0,0.0,0.0,0.0,0.0,0.0,0.0,0.0,0.0,-1.5389,-1.5725,-1.6021,-1.6218,-1.6319,-1.6407,-1.6683,-1.6683,-1.6683,-1.6676,-1.6972,-1.7073,-1.7073,-1.7246,-1.7326,-1.7333,-1.7721,-1.8211,-1.8803,-1.9125,-1.8743,-1.7898,-1.7898,-1.714,-1.5956,-1.5755,-1.5435,-1.5215,-1.4888,-1.4781,-1.4781,-1.4669,-1.4561,-1.4454,-1.4454,-1.4454,-1.4454,-1.4454,-1.4561,-1.4674,-1.446,-1.4454,-1.4352,-1.4132,-1.4132,-1.4132,-1.4132,-1.4132,-1.4132,-1.4132,-1.263,-1.1341,-1.1341,-1.1341,-1.1341,-1.1341,-1.1341,-1.1341,-1.1341,-1.1341,-1.1341,-1.1341,-1.2091,-1.2738,-1.2738,-1.3491,-1.4137,-1.4352,-1.4454,-1.446,-1.4669,-1.4674,-1.4674,-1.4674,-1.5642,-1.618,-1.618,-1.7153,-1.7153,-1.618,-1.7147,-1.7582,-1.7582,-1.7582,-1.7582,-1.7582,-1.7582,-1.7582,0.0,0.0,0.0,0.0,0.0,0.0,0.0,0.0,0.0,0.0,0.0,0.0,0.0,0.0,0.0,0.0,0.0,0.0,0.0,0.0,0.0,0.0,0.0,0.0,-1.5266,-1.579,-1.6218,-1.6494,-1.6588,-1.6683,-1.6885,-1.6979,-1.7066,-1.7232,-1.7239,-1.7239,-1.7239,-1.7333,-1.7326,-1.7333,-1.7947,-1.843,-1.8803,-1.9125,-1.9168,-1.9063,-1.9063,-1.8855,-1.8436,-1.8108,-1.7884,-1.7884,-1.7358,-1.7259,-1.7477,-1.7259,-1.6505,-1.5642,-1.5642,-1.5642,-1.5642,-1.5642,-1.6287,-1.6935,-1.5968,-1.5642,-1.5429,-1.4352,-1.4132,-1.4132,-1.4132,-1.4132,-1.4132,-1.4132,-1.3922,-1.3599,-1.3599,-1.3599,-1.3599,-1.3599,-1.3599,-1.3599,-1.3599,-1.3599,-1.3599,-1.3599,-1.3814,-1.3922,-1.3922,-1.403,-1.446,-1.5535,-1.5642,-1.6074,-1.7041,-1.7147,-1.7147,-1.7147,-1.7259,-1.7364,-1.7364,-1.7477,-1.7582,-1.7371,-1.7477,-1.7582,-1.7582,-1.7582,-1.7582,-1.7582,-1.7582,-1.7582,0.0,0.0,0.0,0.0,0.0,0.0,0.0,0.0,0.0,0.0,0.0,0.0,0.0,0.0,0.0,0.0,0.0,0.0,0.0,0.0,0.0,0.0,0.0,-1.5301,-1.5479,-1.604,-1.6501,-1.6784,-1.6784,-1.6878,-1.7153,-1.7153,-1.7239,-1.7326,-1.7326,-1.7326,-1.7326,-1.7326,-1.7326,-1.7333,-1.7801,-1.8203,-1.8525,-1.8855,-1.9103,-1.9279,-1.9279,-1.9279,-1.9078,-1.8757,-1.8646,-1.8646,-1.8016,-1.7911,-1.8016,-1.7694,-1.7259,-1.6829,-1.6829,-1.6829,-1.6829,-1.6829,-1.7153,-1.7477,-1.7041,-1.6829,-1.6717,-1.618,-1.6068,-1.6068,-1.6068,-1.6068,-1.6068,-1.6068,-1.6068,-1.6068,-1.6068,-1.4995,-1.4132,-1.4132,-1.4132,-1.4132,-1.4132,-1.4132,-1.4132,-1.4132,-1.4674,-1.5102,-1.5102,-1.5642,-1.6287,-1.6829,-1.6829,-1.7041,-1.7582,-1.7582,-1.7582,-1.7582,-1.7582,-1.7582,-1.7582,-1.7582,-1.7582,-1.7582,-1.7582,-1.7582,-1.7582,-1.7582,-1.7582,-1.7582,-1.7582,-1.7582,0.0,0.0,0.0,0.0,0.0,0.0,0.0,0.0,0.0,0.0,0.0,0.0,0.0,0.0,0.0,0.0,0.0,0.0,0.0,0.0,0.0,0.0,-1.4943,-1.5389,-1.5747,-1.6246,-1.6692,-1.7059,-1.7066,-1.716,-1.7333,-1.7326,-1.7326,-1.7326,-1.7326,-1.7326,-1.7326,-1.7326,-1.7326,-1.7333,-1.7662,-1.7984,-1.8313,-1.8642,-1.8964,-1.9279,-1.9279,-1.9279,-1.9279,-1.8974,-1.8974,-1.8974,-1.8331,-1.8122,-1.8227,-1.7905,-1.7793,-1.7793,-1.7687,-1.7687,-1.7694,-1.7582,-1.7582,-1.7582,-1.7582,-1.7582,-1.7582,-1.7582,-1.7582,-1.7582,-1.7582,-1.7582,-1.7582,-1.7582,-1.7582,-1.7582,-1.7582,-1.618,-1.4995,-1.4995,-1.4995,-1.4995,-1.4995,-1.4995,-1.4995,-1.4995,-1.5749,-1.6287,-1.6287,-1.7041,-1.7582,-1.7582,-1.7582,-1.7582,-1.7582,-1.7582,-1.7582,-1.7582,-1.7582,-1.7582,-1.7582,-1.7582,-1.7582,-1.7582,-1.7582,-1.7582,-1.7582,-1.7582,-1.7582,-1.7582,-1.7687,-1.7687,0.0,0.0,0.0,0.0,0.0,0.0,0.0,0.0,0.0,0.0,0.0,0.0,0.0,0.0,0.0,0.0,0.0,0.0,0.0,0.0,0.0,0.0,-1.5021,-1.543,-1.591,-1.6328,-1.6735,-1.721,-1.7232,-1.7333,-1.7326,-1.7326,-1.7326,-1.7326,-1.7326,-1.7326,-1.7326,-1.7326,-1.7326,-1.7333,-1.7662,-1.7984,-1.8313,-1.8642,-1.8964,-1.9279,-1.9279,-1.9279,-1.9279,-1.8974,-1.9078,-1.9168,-1.8639,-1.8541,-1.8764,-1.8429,-1.8318,-1.8318,-1.8122,-1.8016,-1.7911,-1.7687,-1.7582,-1.7582,-1.7582,-1.7582,-1.7582,-1.7582,-1.7582,-1.7582,-1.7582,-1.7582,-1.7582,-1.7582,-1.7582,-1.7582,-1.7582,-1.7477,-1.747,-1.747,-1.747,-1.747,-1.747,-1.747,-1.747,-1.747,-1.7477,-1.7477,-1.7477,-1.7582,-1.7582,-1.7582,-1.7582,-1.7582,-1.7582,-1.7582,-1.7582,-1.7582,-1.7582,-1.7582,-1.7582,-1.7582,-1.7582,-1.7582,-1.7582,-1.7582,-1.7582,-1.7582,-1.7582,-1.7582,-1.7905,-1.8016,-1.4027,0.0,0.0,0.0,0.0,0.0,0.0,0.0,0.0,0.0,0.0,0.0,0.0,0.0,0.0,0.0,0.0,0.0,0.0,0.0,0.0,0.0,-1.5276,-1.5676,-1.6161,-1.6577,-1.6897,-1.7304,-1.7326,-1.7326,-1.7326,-1.7326,-1.7326,-1.7326,-1.7326,-1.7326,-1.7326,-1.7326,-1.7326,-1.7326,-1.7443,-1.7669,-1.7999,-1.8328,-1.8657,-1.8979,-1.9184,-1.9279,-1.9272,-1.9175,-1.9175,-1.9279,-1.8855,-1.8757,-1.8869,-1.8534,-1.8318,-1.8122,-1.8016,-1.7911,-1.7694,-1.7582,-1.7582,-1.7582,-1.7582,-1.7582,-1.7582,-1.7582,-1.7582,-1.7582,-1.7582,-1.7582,-1.7582,-1.7582,-1.7582,-1.7582,-1.7582,-1.7582,-1.7582,-1.7582,-1.7582,-1.7582,-1.7582,-1.7582,-1.7582,-1.7582,-1.7582,-1.7582,-1.7582,-1.7582,-1.7582,-1.7582,-1.7582,-1.7582,-1.7582,-1.7582,-1.7582,-1.7582,-1.7582,-1.7582,-1.7582,-1.7582,-1.7582,-1.7582,-1.7582,-1.7582,-1.7582,-1.7582,-1.7582,-1.7582,-1.7694,-1.7694,-1.4189,0.0,0.0,0.0,0.0,0.0,0.0,0.0,0.0,0.0,0.0,0.0,0.0,0.0,0.0,0.0,0.0,0.0,0.0,0.0,0.0,0.0,-1.536,-1.5741,-1.633,-1.6565,-1.6865,-1.7296,-1.7326,0.0,-1.7326,-1.7326,-1.7326,-1.7326,-1.7326,-1.7326,-1.7326,-1.7326,-1.7326,-1.7326,-1.7326,-1.7501,-1.783,-1.8152,-1.8482,-1.8803,-1.9133,-1.9279,-1.9279,-1.9279,-1.9279,-1.9279,-1.9078,-1.9078,-1.8974,-1.8743,-1.8541,-1.8436,-1.8227,-1.801,-1.7793,-1.7687,-1.7582,-1.7582,-1.7582,-1.7582,-1.7582,-1.7582,-1.7582,-1.7582,-1.7582,-1.7582,-1.7582,-1.7582,-1.7582,-1.7582,-1.7582,-1.7582,-1.7582,-1.7582,-1.7582,-1.7582,-1.7582,-1.7582,-1.7582,-1.7582,-1.7582,-1.7582,-1.7582,-1.7582,-1.7582,-1.7582,-1.7582,-1.7582,-1.7582,-1.7582,-1.7582,-1.7582,-1.7582,-1.7582,-1.7582,-1.7582,-1.7582,-1.7582,-1.7582,-1.7582,-1.7582,-1.7582,-1.7582,-1.7582,-1.7694,-1.7793,0.0,0.0,0.0,0.0,0.0,0.0,0.0,0.0,0.0,0.0,0.0,0.0,0.0,0.0,0.0,0.0,0.0,0.0,0.0,0.0,0.0,0.0,-1.5431,-1.5672,-1.6397,-1.6455,-1.6638,-1.7282,-1.7326,-1.7326,-1.7326,-1.7326,-1.7326,-1.7326,-1.7326,-1.7326,-1.7326,-1.7326,-1.7326,-1.7326,-1.7326,-1.7494,-1.7808,-1.8145,-1.8474,-1.8789,-1.9133,-1.9279,-1.9279,-1.9279,-1.9279,-1.9279,-1.9279,-1.9279,-1.9279,-1.9279,-1.9272,-1.9168,-1.8639,-1.8422,-1.8318,-1.7793,-1.7582,-1.7582,-1.7582,-1.7582,-1.7582,-1.7582,-1.7582,-1.7582,-1.7582,-1.7582,-1.7582,-1.7582,-1.7582,-1.7582,-1.7582,-1.7582,-1.7582,-1.7582,-1.7582,-1.7582,-1.7582,-1.7582,-1.7582,-1.7582,-1.7582,-1.7582,-1.7582,-1.7582,-1.7582,-1.7582,-1.7582,-1.7582,-1.7582,-1.7582,-1.7582,-1.7582,-1.7582,-1.7582,-1.7582,-1.7582,-1.7582,-1.7582,-1.7582,-1.7582,-1.7582,-1.7582,-1.7582,-1.7582,-1.7918,-1.8135,-1.4088,0.0,0.0,0.0,0.0,0.0,0.0,0.0,0.0,0.0,0.0,0.0,0.0,0.0,0.0,0.0,0.0,0.0,0.0,0.0,0.0,0.0,-1.5741,-1.5926,-1.717,-1.68,-1.6638,0.0,-1.7326,-1.7326,-1.7326,-1.7326,-1.7326,-1.7326,-1.7326,-1.7326,-1.7326,-1.7326,-1.7326,-1.7326,-1.7326,-1.7377,-1.7479,-1.805,-1.835,-1.8467,-1.903,-1.9279,-1.9279,-1.9279,-1.9279,-1.9279,-1.9279,-1.9279,-1.9279,-1.9279,-1.9175,-1.8974,-1.8862,-1.8436,-1.8122,-1.8108,-1.7898,-1.7687,-1.7799,-1.7911,-1.7806,-1.7687,-1.7694,-1.7799,-1.7687,-1.7582,-1.7582,-1.7582,-1.7582,-1.7582,-1.7582,-1.7582,-1.7582,-1.7582,-1.7582,-1.7582,-1.7582,-1.7582,-1.7582,-1.7582,-1.7582,-1.7582,-1.7582,-1.7582,-1.7582,-1.7582,-1.7582,-1.7582,-1.7582,-1.7582,-1.7582,-1.7582,-1.7582,-1.7582,-1.7582,-1.7582,-1.7694,-1.7911,-1.7911,-1.801,-1.8213,-1.7793,-1.7582,-1.7589,-1.8136,-1.8345,0.0,0.0,0.0,0.0,0.0,0.0,-1.5477,-1.6617,-1.7747,0.0,0.0,0.0,0.0,0.0,0.0,0.0,0.0,0.0,0.0,0.0,0.0,0.0,-1.6221,-1.6408,-1.7605,-1.7231,-1.7078,-1.7282,-1.7326,-1.7326,-1.7326,-1.7326,-1.7326,-1.7326,-1.7326,-1.7326,-1.7326,-1.7326,-1.7326,-1.7326,-1.7326,-1.7326,-1.7347,-1.8006,-1.8299,-1.8343,-1.8994,-1.9279,-1.9279,-1.9279,-1.9279,-1.9279,-1.9279,-1.9279,-1.9279,-1.9279,-1.9175,-1.9078,-1.8974,-1.866,-1.8338,-1.8429,-1.8213,-1.8003,-1.8115,-1.8122,-1.8115,-1.7799,-1.7799,-1.7799,-1.7687,-1.7582,-1.7582,-1.7582,-1.7582,-1.7582,-1.7582,-1.7582,-1.7582,-1.7582,-1.7582,-1.7582,-1.7582,-1.7582,-1.7582,-1.7582,-1.7582,-1.7582,-1.7582,-1.7582,-1.7582,-1.7582,-1.7582,-1.7582,-1.7582,-1.7687,-1.7799,-1.7799,-1.7898,-1.7959,-1.8187,-1.8088,-1.8256,-1.86,-1.8607,-1.8707,-1.8807,-1.8362,-1.8256,-1.8386,-1.8679,-1.8877,0.0,0.0,0.0,0.0,0.0,0.0,-1.4566,-1.5959,-1.7342,-1.7755,0.0,0.0,0.0,0.0,0.0,0.0,0.0,0.0,0.0,0.0,0.0,0.0,0.0,-1.6976,-1.777,-1.7755,-1.7606,-1.7461,-1.7326,-1.7326,-1.7326,-1.7326,-1.7326,-1.7326,-1.7326,-1.7326,-1.7326,-1.7326,-1.7326,-1.7326,-1.7326,-1.7326,-1.7347,-1.7969,-1.8269,-1.8335,-1.8957,-1.9242,-1.9279,-1.9279,-1.9279,-1.9279,-1.9279,-1.9279,-1.9279,-1.9279,-1.9279,-1.9279,-1.9078,-1.8869,-1.8869,-1.8639,-1.8422,-1.8422,-1.8422,-1.8429,-1.8429,-1.8122,-1.7799,-1.7582,-1.7582,-1.7582,-1.7582,-1.7582,-1.7582,-1.7582,-1.7582,-1.7582,-1.7687,-1.7687,-1.7687,-1.7582,-1.7582,-1.7687,-1.7687,-1.7687,-1.7687,-1.7687,-1.7687,-1.7687,-1.7582,-1.7582,-1.7582,-1.7687,-1.7687,-1.7939,-1.8064,-1.8064,-1.8408,-1.8653,-1.8926,-1.894,-1.9066,-1.9456,-1.9463,-1.9484,-1.9512,-1.9196,-1.908,-1.9353,-1.9498,-1.9512,0.0,0.0,0.0,0.0,0.0,0.0,-1.465,-1.5643,-1.6632,0.0,0.0,0.0,0.0,0.0,0.0,0.0,0.0,0.0,0.0,0.0,0.0,0.0,0.0,-1.73,-1.87,-1.8181,-1.7953,-1.8464,-1.7785,-1.7326,-1.7326,-1.7326,-1.7326,-1.7326,-1.7326,-1.7326,-1.7326,-1.7326,-1.7326,-1.7326,-1.7326,-1.7326,-1.734,-1.7735,-1.8057,-1.8321,-1.8716,-1.903,-1.9279,-1.9279,-1.9279,-1.9279,-1.9279,-1.9279,-1.9279,-1.9279,-1.9279,-1.9272,-1.9279,-1.9078,-1.8869,-1.9071,-1.8848,-1.8422,-1.8757,-1.8764,-1.8757,-1.8429,-1.8003,-1.7582,-1.7582,-1.7582,-1.7582,-1.7582,-1.7582,-1.7582,-1.7582,-1.7799,-1.7911,-1.7911,-1.7911,-1.7806,-1.7687,-1.8003,-1.822,-1.7905,-1.8115,-1.822,-1.7911,-1.7911,-1.7799,-1.7582,-1.7799,-1.7911,-1.7911,-1.8448,-1.8693,-1.8693,-1.9038,-1.9199,-1.9262,-1.9262,-1.94,-1.9669,-1.9902,-2.0142,-2.0402,-1.9637,-1.9297,-1.936,-1.9939,-2.0165,0.0,0.0,0.0,-1.4088,0.0,0.0,0.0,-1.5394,-1.637,-1.7098,-1.7989,-1.8886,0.0,0.0,0.0,0.0,0.0,0.0,0.0,0.0,0.0,0.0,0.0,-1.8004,-1.8991,-1.8779,-1.8669,-1.8748,-1.7878,-1.7326,-1.7326,-1.7326,-1.7326,-1.7326,-1.7326,-1.7326,-1.7326,-1.7326,-1.7326,-1.7326,-1.7326,-1.7326,-1.734,-1.7662,-1.7991,-1.8321,-1.865,-1.8979,-1.9279,-1.9279,-1.9279,-1.9279,-1.9279,-1.9279,-1.9279,-1.9279,-1.9279,-1.9279,-1.9279,-1.9175,-1.9071,-1.9279,-1.9063,-1.8848,-1.9071,-1.8862,-1.8646,-1.8422,-1.8003,-1.7582,-1.7799,-1.7799,-1.7799,-1.8003,-1.8003,-1.8003,-1.8003,-1.8108,-1.822,-1.822,-1.8331,-1.8331,-1.8003,-1.8213,-1.8318,-1.822,-1.822,-1.822,-1.822,-1.8122,-1.8016,-1.8003,-1.8115,-1.8282,-1.8434,-1.8807,-1.9177,-1.9325,-1.9597,-1.9864,-2.0022,-2.0036,-2.0219,-2.0482,-2.0601,-2.0801,-2.0969,-2.0456,-2.0272,-2.0272,-2.0656,-2.0728,0.0,0.0,0.0,0.0,0.0,-1.4243,0.0,0.0,0.0,-1.7098,-1.7917,0.0,0.0,0.0,0.0,0.0,0.0,0.0,0.0,0.0,0.0,0.0,-1.8749,-1.8549,-1.8751,-1.918,-1.9208,-1.8588,-1.7785,-1.7326,-1.7326,-1.7326,-1.7326,-1.7326,-1.7326,-1.7326,-1.7326,-1.7326,-1.7326,-1.7326,-1.7326,-1.7326,-1.7333,-1.7604,-1.7933,-1.8321,-1.8584,-1.8913,-1.9279,-1.9279,-1.9279,-1.9279,-1.9279,-1.9279,-1.9279,-1.9279,-1.9279,-1.9279,-1.9279,-1.9279,-1.9279,-1.9279,-1.9279,-1.9279,-1.9279,-1.8959,-1.8534,-1.8534,-1.8115,-1.7793,-1.8016,-1.8122,-1.8115,-1.8318,-1.8422,-1.8422,-1.8422,-1.8422,-1.8534,-1.8534,-1.8757,-1.8862,-1.8422,-1.8527,-1.8534,-1.8534,-1.8331,-1.8331,-1.8429,-1.8331,-1.8227,-1.8422,-1.8478,-1.8724,-1.8977,-1.9334,-1.9729,-1.9967,-2.0274,-2.0537,-2.0808,-2.0815,-2.094,-2.1203,-2.1211,-2.1211,-2.1211,-2.1211,-2.1211,-2.1211,-2.1211,-2.1211,0.0,0.0,0.0,0.0,-1.4243,0.0,0.0,0.0,-1.5249,-1.5582,0.0,0.0,0.0,0.0,0.0,0.0,0.0,0.0,-1.8399,0.0,-1.8975,-1.8238,-1.8331,-1.8372,-1.7959,-1.8522,-1.8472,-1.7505,-1.7326,-1.7326,-1.7326,-1.7326,-1.7326,-1.7326,-1.7326,-1.7326,-1.7326,-1.7326,-1.7326,-1.7326,-1.7326,-1.7326,-1.7326,-1.7362,-1.7721,-1.8306,-1.8343,-1.8708,-1.9279,-1.9279,-1.9279,-1.9279,-1.9279,-1.9279,-1.9279,-1.9279,-1.9279,-1.9279,-1.9279,-1.9279,-1.9279,-1.9279,-1.9279,-1.9279,-1.9279,-1.9071,-1.8869,-1.8869,-1.8541,-1.8318,-1.8318,-1.8318,-1.8318,-1.8422,-1.8422,-1.8422,-1.8422,-1.8646,-1.8869,-1.8869,-1.9071,-1.9063,-1.8527,-1.8848,-1.9168,-1.8869,-1.9071,-1.9071,-1.8869,-1.8869,-1.8653,-1.8429,-1.8893,-1.9184,-1.922,-2.0062,-2.0521,-2.055,-2.094,-2.1115,-2.1152,-2.1152,-2.1174,-2.1211,-2.1211,-2.1211,-2.1211,-2.1211,-2.1211,-2.1211,-2.1211,-2.1211,0.0,0.0,0.0,0.0,0.0,0.0,-1.465,0.0,-1.5257,0.0,0.0,0.0,0.0,0.0,0.0,0.0,-1.8078,0.0,0.0,0.0,-1.8912,0.0,0.0,0.0,-1.8385,-1.8072,-1.7963,-1.8149,-1.7606,-1.7326,-1.7326,-1.7326,-1.7326,-1.7326,-1.7326,-1.7326,-1.7326,-1.7326,-1.7326,-1.7326,-1.7326,-1.7326,-1.7326,-1.7326,-1.7684,-1.8299,-1.8299,-1.8672,-1.9279,-1.9279,-1.9279,-1.9279,-1.9279,-1.9279,-1.9279,-1.9279,-1.9279,-1.9279,-1.9279,-1.9279,-1.9279,-1.9279,-1.9279,-1.9279,-1.9279,-1.9071,-1.8869,-1.8869,-1.8646,-1.8422,-1.8646,-1.8646,-1.875,-1.8848,-1.8959,-1.8959,-1.8959,-1.9063,-1.9175,-1.9175,-1.9175,-1.9168,-1.8959,-1.9168,-1.9279,-1.9182,-1.9078,-1.9078,-1.9182,-1.9132,-1.9141,-1.9233,-1.9628,-1.9896,-2.0084,-2.0456,-2.0801,-2.0998,-2.113,-2.1211,-2.1211,-2.1211,-2.1211,-2.1211,-2.1211,-2.1211,-2.1211,-2.1211,-2.1211,-2.1211,-2.1211,-2.1211,-1.425,0.0,0.0,0.0,0.0,0.0,0.0,0.0,0.0,0.0,0.0,0.0,0.0,0.0,0.0,0.0,0.0,-1.787,0.0,0.0,0.0,0.0,0.0,0.0,0.0,-1.7692,-1.7606,-1.8334,-1.7692,-1.7326,-1.7326,-1.7326,-1.7326,-1.7326,-1.7326,-1.7326,-1.7326,-1.7326,-1.7326,-1.7326,-1.7326,-1.7326,-1.7326,-1.7326,-1.7684,-1.8299,-1.8299,-1.8672,-1.9279,-1.9279,-1.9279,-1.9279,-1.9279,-1.9279,-1.9279,-1.9279,-1.9279,-1.9279,-1.9279,-1.9279,-1.9279,-1.9279,-1.9279,-1.9279,-1.9279,-1.9175,-1.8974,-1.8974,-1.8855,-1.8743,-1.8974,-1.8974,-1.9078,-1.9279,-1.9279,-1.9279,-1.9279,-1.9279,-1.9301,-1.9396,-1.9411,-1.944,-1.952,-1.9389,-1.9301,-1.9396,-1.9306,-1.9237,-1.9528,-1.9534,-1.9679,-1.9894,-2.0179,-2.0464,-2.0706,-2.0801,-2.0955,-2.1196,-2.1211,-2.1211,-2.1211,-2.1211,-2.1211,-2.1211,-2.1211,-2.1211,-2.1211,-2.1211,-2.1211,-2.1211,-2.1211,-2.1211,0.0,0.0,0.0,-1.425,0.0,0.0,0.0,0.0,-1.4566,0.0,0.0,0.0,0.0,0.0,0.0,0.0,0.0,0.0,0.0,0.0,0.0,0.0,0.0,0.0,0.0,-1.7326,-1.7326,-1.7326,-1.7326,-1.7326,-1.7326,-1.7326,-1.7326,-1.7326,-1.7326,-1.7326,-1.7326,-1.7326,-1.7326,-1.7326,-1.7326,-1.7326,-1.7326,-1.7326,-1.7684,-1.8299,-1.8299,-1.8672,-1.9279,-1.9279,-1.9279,-1.9279,-1.9279,-1.9279,-1.9279,-1.9279,-1.9279,-1.9279,-1.9279,-1.9279,-1.9279,-1.9279,-1.9279,-1.9279,-1.9279,-1.9272,-1.9279,-1.9279,-1.9279,-1.9272,-1.9279,-1.9279,-1.9279,-1.9279,-1.9279,-1.9279,-1.9279,-1.9279,-1.9367,-1.9689,-1.9747,-1.9842,-2.015,-1.9689,-1.9381,-1.9696,-1.9747,-1.9857,-2.0164,-2.0216,-2.0223,-2.0223,-2.0516,-2.0713,-2.072,-2.1013,-2.1196,-2.1211,-2.1211,-2.1211,-2.1211,-2.1211,-2.1211,-2.1211,-2.1211,-2.1211,-2.1211,-2.1211,-2.1211,-2.1211,-2.1211,-2.1211,0.0,0.0,-1.4915,-1.4838,0.0,0.0,0.0,0.0,0.0,0.0,0.0,0.0,0.0,0.0,0.0,0.0,0.0,0.0,0.0,0.0,0.0,0.0,0.0,0.0,0.0,0.0,0.0,-1.7527,-1.7527,-1.7527,-1.7527,-1.7527,-1.752,-1.7333,-1.7326,-1.7326,-1.7326,-1.7326,-1.7326,-1.7326,-1.7326,-1.7326,-1.7326,-1.7326,-1.7684,-1.8299,-1.8299,-1.8672,-1.9279,-1.9279,-1.9279,-1.9279,-1.9279,-1.9279,-1.9279,-1.9279,-1.9279,-1.9279,-1.9279,-1.9279,-1.9279,-1.9279,-1.9279,-1.9279,-1.9279,-1.9279,-1.9279,-1.9279,-1.9279,-1.9279,-1.9279,-1.9279,-1.9279,-1.9279,-1.944,-1.9594,-1.9594,-1.9762,-1.9945,-2.0055,-2.0077,-2.0106,-2.0216,-2.0055,-1.9945,-2.0062,-2.0077,-2.0113,-2.0223,-2.042,-2.0559,-2.0559,-2.0852,-2.1042,-2.1042,-2.1145,-2.1211,-2.1211,-2.1211,-2.1211,-2.1211,-2.1211,-2.1211,-2.1211,-2.1211,-2.1211,-2.1211,-2.1211,-2.1211,-2.1211,-2.1211,-2.1211,-1.4824,-1.4999,0.0,-1.4999,-1.509,0.0,-1.5317,0.0,-1.5339,0.0,0.0,0.0,0.0,0.0,0.0,0.0,0.0,0.0,0.0,-1.7201,0.0,0.0,0.0,0.0,0.0,-1.7426,-1.7434,-1.7527,-1.7721,-1.7721,0.0,-1.7628,-1.7621,-1.7333,-1.7326,-1.7326,-1.7326,-1.7326,-1.7326,-1.7326,-1.7326,-1.7326,-1.7326,-1.7326,-1.7684,-1.8299,-1.8299,-1.8672,-1.9279,-1.9279,-1.9279,-1.9279,-1.9279,-1.9279,-1.9279,-1.9279,-1.9279,-1.9279,-1.9279,-1.9279,-1.9279,-1.9279,-1.9279,-1.9279,-1.9279,-1.9279,-1.9301,-1.9418,-1.9367,-1.9301,-1.9418,-1.936,-1.9301,-1.9425,-1.9608,-1.9798,-1.9908,-2.0091,-2.0267,-2.0384,-2.0413,-2.045,-2.0559,-2.0581,-2.0545,-2.0428,-2.0413,-2.045,-2.0567,-2.0764,-2.0896,-2.0896,-2.1086,-2.1211,-2.1211,-2.1211,-2.1211,-2.1211,-2.1211,-2.1211,-2.1211,-2.1211,-2.1262,-2.1379,-2.1269,-2.1269,-2.1386,-2.1269,-2.1211,-2.1211,-2.1211,-2.1211]},{"header":{"parameterUnit":"m.s-1","parameterCategory":1,"la1":30.6,"la2":29.2853,"lo1":-89.7004,"lo2":-87.6739,"dy":0.0162,"dx":0.0183,"nx":112,"ny":82,"refTime":"2023-07-18T12:00:00:Z","depth":0,"parameterNumber":3,"parameterNumberName":"V-component_of_WINDS"},"data":[0.0,0.0,0.0,0.0,0.0,0.0,0.0,0.0,0.0,0.0,0.0,0.0,0.0,0.0,0.0,0.0,0.0,0.0,0.0,0.0,0.0,0.0,0.0,0.0,0.0,0.0,0.0,0.0,0.0,0.0,0.0,0.0,0.0,0.0,0.0,0.0,0.0,0.0,0.0,0.0,0.0,0.0,0.0,0.0,0.0,0.0,0.0,0.0,0.0,0.0,0.0,0.0,0.0,0.0,0.0,0.0,0.0,0.0,0.0,0.0,0.0,0.0,0.0,0.0,0.0,0.0,0.0,0.0,0.0,0.0,0.0,0.0,0.0,0.0,0.0,0.0,0.0,0.0,0.0,0.0,0.0,0.0,0.0,0.0,0.0,0.0,0.0,0.0,0.0,0.0,-2.6016,-2.6537,-2.6892,-2.7213,-2.7612,-2.7897,-2.8139,-2.8428,0.0,0.0,0.0,0.0,0.0,0.0,0.0,0.0,0.0,0.0,0.0,0.0,0.0,0.0,0.0,0.0,0.0,0.0,0.0,0.0,0.0,0.0,0.0,0.0,0.0,0.0,0.0,0.0,0.0,0.0,0.0,0.0,0.0,0.0,0.0,0.0,0.0,0.0,0.0,0.0,0.0,0.0,0.0,0.0,0.0,0.0,0.0,0.0,0.0,0.0,0.0,0.0,0.0,0.0,0.0,0.0,0.0,0.0,0.0,0.0,0.0,0.0,0.0,0.0,0.0,0.0,0.0,0.0,0.0,0.0,0.0,0.0,0.0,0.0,0.0,0.0,0.0,0.0,0.0,0.0,0.0,0.0,0.0,0.0,0.0,0.0,0.0,0.0,0.0,0.0,0.0,0.0,0.0,0.0,0.0,0.0,0.0,0.0,0.0,0.0,0.0,0.0,0.0,0.0,-2.5742,-2.6537,-2.7055,-2.7373,-2.7434,-2.7642,-2.7869,-2.8139,0.0,0.0,0.0,0.0,0.0,0.0,0.0,0.0,0.0,0.0,0.0,0.0,0.0,0.0,0.0,0.0,0.0,0.0,0.0,0.0,0.0,0.0,0.0,0.0,0.0,0.0,0.0,0.0,0.0,0.0,0.0,0.0,0.0,0.0,0.0,0.0,0.0,0.0,0.0,0.0,0.0,0.0,0.0,0.0,0.0,0.0,0.0,0.0,0.0,0.0,0.0,0.0,0.0,0.0,0.0,0.0,0.0,0.0,0.0,0.0,0.0,0.0,0.0,0.0,0.0,0.0,0.0,0.0,0.0,0.0,0.0,0.0,0.0,0.0,0.0,0.0,0.0,0.0,0.0,0.0,0.0,0.0,0.0,0.0,0.0,0.0,0.0,0.0,0.0,0.0,0.0,0.0,0.0,0.0,0.0,0.0,0.0,0.0,0.0,0.0,0.0,0.0,0.0,-2.5701,-2.6026,-2.6537,-2.6842,-2.7087,-2.7373,-2.7478,-2.7683,-2.8075,-2.8621,0.0,0.0,0.0,0.0,0.0,0.0,0.0,0.0,0.0,0.0,0.0,0.0,0.0,0.0,0.0,0.0,0.0,0.0,0.0,0.0,0.0,0.0,0.0,0.0,0.0,0.0,0.0,0.0,0.0,0.0,0.0,0.0,0.0,0.0,0.0,0.0,0.0,0.0,0.0,0.0,0.0,0.0,0.0,0.0,0.0,0.0,0.0,0.0,0.0,0.0,0.0,0.0,0.0,0.0,0.0,0.0,0.0,0.0,0.0,0.0,0.0,0.0,0.0,0.0,0.0,0.0,0.0,0.0,0.0,0.0,0.0,0.0,0.0,0.0,0.0,0.0,0.0,0.0,0.0,0.0,0.0,0.0,0.0,0.0,0.0,0.0,0.0,0.0,0.0,0.0,0.0,0.0,0.0,0.0,0.0,0.0,0.0,0.0,0.0,0.0,0.0,0.0,-2.5848,-2.6151,-2.6468,-2.6554,-2.6809,-2.7279,-2.7373,-2.7582,-2.7964,-2.835,0.0,0.0,0.0,0.0,0.0,0.0,0.0,0.0,0.0,0.0,0.0,0.0,0.0,0.0,0.0,0.0,0.0,0.0,0.0,0.0,0.0,0.0,0.0,0.0,0.0,0.0,0.0,0.0,0.0,0.0,0.0,0.0,0.0,0.0,0.0,0.0,0.0,0.0,0.0,0.0,0.0,0.0,0.0,0.0,0.0,0.0,0.0,0.0,0.0,0.0,0.0,0.0,0.0,0.0,0.0,0.0,0.0,0.0,0.0,0.0,0.0,0.0,0.0,0.0,0.0,0.0,0.0,0.0,0.0,0.0,0.0,0.0,0.0,0.0,0.0,0.0,0.0,0.0,0.0,0.0,0.0,0.0,0.0,0.0,0.0,0.0,0.0,0.0,0.0,0.0,0.0,0.0,0.0,0.0,0.0,0.0,0.0,0.0,0.0,0.0,0.0,0.0,-2.5635,-2.5721,-2.6168,-2.645,-2.6708,-2.7006,-2.7279,-2.7478,-2.7713,-2.8219,0.0,0.0,0.0,0.0,0.0,0.0,0.0,0.0,0.0,0.0,0.0,0.0,0.0,0.0,0.0,0.0,0.0,0.0,0.0,0.0,0.0,0.0,0.0,0.0,0.0,0.0,0.0,0.0,0.0,0.0,0.0,0.0,0.0,0.0,0.0,0.0,0.0,0.0,0.0,0.0,0.0,0.0,0.0,0.0,0.0,0.0,0.0,0.0,0.0,0.0,0.0,0.0,0.0,0.0,0.0,0.0,0.0,0.0,0.0,0.0,0.0,0.0,0.0,0.0,0.0,0.0,0.0,0.0,0.0,0.0,0.0,0.0,0.0,0.0,0.0,0.0,0.0,0.0,0.0,0.0,0.0,0.0,0.0,0.0,0.0,0.0,0.0,0.0,0.0,0.0,0.0,0.0,0.0,0.0,0.0,0.0,0.0,0.0,0.0,0.0,0.0,0.0,-2.6332,-2.633,-2.664,-2.6792,-2.6957,-2.7247,-2.7341,-2.7496,-2.7701,0.0,0.0,0.0,0.0,0.0,0.0,0.0,0.0,0.0,0.0,0.0,0.0,0.0,0.0,0.0,0.0,0.0,0.0,0.0,0.0,0.0,0.0,0.0,0.0,0.0,0.0,0.0,0.0,0.0,0.0,0.0,0.0,0.0,0.0,0.0,0.0,0.0,0.0,0.0,0.0,0.0,0.0,0.0,0.0,0.0,0.0,0.0,0.0,0.0,0.0,0.0,0.0,0.0,0.0,0.0,0.0,0.0,0.0,0.0,0.0,0.0,0.0,0.0,0.0,0.0,0.0,0.0,0.0,0.0,0.0,0.0,0.0,0.0,0.0,0.0,0.0,0.0,0.0,0.0,0.0,0.0,0.0,0.0,0.0,0.0,0.0,0.0,0.0,0.0,0.0,0.0,0.0,0.0,0.0,0.0,0.0,0.0,0.0,0.0,0.0,0.0,0.0,-2.7103,-2.6925,-2.6859,-2.7038,-2.7053,-2.7198,-2.7509,-2.7539,-2.7659,-2.7904,0.0,0.0,0.0,0.0,0.0,0.0,0.0,0.0,0.0,0.0,0.0,0.0,0.0,0.0,0.0,0.0,0.0,0.0,0.0,0.0,0.0,0.0,0.0,0.0,0.0,0.0,0.0,0.0,0.0,0.0,0.0,0.0,0.0,0.0,0.0,0.0,0.0,0.0,0.0,0.0,0.0,0.0,0.0,0.0,0.0,0.0,0.0,0.0,0.0,0.0,0.0,0.0,0.0,0.0,0.0,0.0,0.0,0.0,0.0,0.0,0.0,0.0,0.0,0.0,0.0,0.0,0.0,0.0,0.0,0.0,0.0,0.0,0.0,0.0,0.0,0.0,0.0,0.0,0.0,0.0,0.0,0.0,0.0,0.0,0.0,0.0,0.0,0.0,0.0,0.0,0.0,0.0,0.0,0.0,0.0,0.0,0.0,0.0,0.0,0.0,0.0,0.0,-2.7421,-2.731,-2.723,-2.7247,-2.7247,-2.7386,-2.7806,-2.7836,-2.8007,0.0,0.0,0.0,0.0,0.0,0.0,0.0,0.0,0.0,0.0,0.0,0.0,0.0,0.0,0.0,0.0,0.0,0.0,0.0,0.0,0.0,0.0,0.0,0.0,0.0,0.0,0.0,0.0,0.0,0.0,0.0,0.0,0.0,0.0,0.0,0.0,0.0,0.0,0.0,0.0,0.0,0.0,0.0,0.0,0.0,0.0,0.0,0.0,0.0,0.0,0.0,0.0,0.0,0.0,0.0,0.0,0.0,0.0,0.0,0.0,0.0,0.0,0.0,0.0,0.0,0.0,0.0,0.0,0.0,0.0,0.0,0.0,0.0,0.0,0.0,0.0,0.0,0.0,0.0,0.0,0.0,0.0,0.0,0.0,0.0,0.0,0.0,0.0,0.0,0.0,0.0,0.0,0.0,0.0,0.0,0.0,0.0,0.0,0.0,0.0,0.0,0.0,0.0,-2.892,-2.9165,-2.9378,-2.9597,-2.9597,-2.9698,-2.995,-2.9996,-3.0089,-3.0363,0.0,0.0,0.0,0.0,0.0,0.0,0.0,0.0,0.0,0.0,0.0,0.0,0.0,0.0,0.0,0.0,0.0,0.0,0.0,0.0,0.0,0.0,0.0,0.0,0.0,0.0,0.0,0.0,0.0,0.0,0.0,0.0,0.0,0.0,0.0,0.0,0.0,0.0,0.0,0.0,0.0,0.0,0.0,0.0,0.0,0.0,0.0,0.0,0.0,0.0,0.0,0.0,0.0,0.0,0.0,0.0,0.0,0.0,0.0,0.0,0.0,0.0,0.0,0.0,0.0,0.0,0.0,0.0,0.0,0.0,0.0,0.0,0.0,0.0,0.0,0.0,0.0,0.0,0.0,0.0,0.0,0.0,0.0,0.0,0.0,0.0,0.0,0.0,0.0,0.0,0.0,0.0,0.0,0.0,0.0,0.0,0.0,0.0,0.0,0.0,0.0,0.0,-3.0224,-3.0448,-3.065,-3.0893,-3.0921,-3.1003,-3.1151,-3.1195,-3.1254,-3.1427,0.0,0.0,0.0,0.0,0.0,0.0,0.0,0.0,0.0,0.0,0.0,0.0,0.0,0.0,0.0,0.0,0.0,0.0,0.0,0.0,0.0,0.0,0.0,0.0,0.0,0.0,0.0,0.0,0.0,0.0,0.0,0.0,0.0,0.0,0.0,0.0,0.0,0.0,0.0,0.0,0.0,0.0,0.0,0.0,0.0,0.0,0.0,0.0,0.0,0.0,0.0,0.0,0.0,0.0,0.0,0.0,0.0,0.0,0.0,0.0,0.0,0.0,0.0,0.0,0.0,0.0,0.0,0.0,0.0,0.0,0.0,0.0,0.0,0.0,0.0,0.0,0.0,0.0,0.0,0.0,0.0,0.0,0.0,0.0,0.0,0.0,0.0,0.0,0.0,0.0,0.0,0.0,0.0,0.0,0.0,0.0,0.0,0.0,0.0,0.0,0.0,0.0,-3.1364,-3.136,-3.1441,-3.1624,-3.1624,-3.1715,-3.1834,-3.1834,-3.1922,-3.2054,0.0,0.0,0.0,0.0,0.0,0.0,0.0,0.0,0.0,0.0,0.0,0.0,0.0,0.0,0.0,0.0,0.0,0.0,0.0,0.0,0.0,0.0,0.0,0.0,0.0,0.0,0.0,0.0,0.0,0.0,0.0,0.0,0.0,0.0,0.0,0.0,0.0,0.0,0.0,0.0,0.0,0.0,0.0,0.0,0.0,0.0,0.0,0.0,0.0,0.0,0.0,0.0,0.0,0.0,0.0,0.0,0.0,0.0,0.0,0.0,-2.9126,0.0,0.0,0.0,0.0,0.0,0.0,0.0,0.0,0.0,0.0,0.0,0.0,0.0,0.0,0.0,0.0,0.0,0.0,0.0,0.0,0.0,0.0,0.0,0.0,0.0,0.0,0.0,0.0,0.0,0.0,0.0,0.0,0.0,0.0,0.0,0.0,0.0,0.0,0.0,0.0,0.0,-3.2617,-3.3075,-3.3405,-3.3437,-3.3456,-3.3512,-3.3724,-3.3724,-3.3794,-3.3992,-3.3412,0.0,0.0,0.0,0.0,0.0,0.0,0.0,0.0,0.0,0.0,0.0,0.0,0.0,0.0,0.0,0.0,0.0,0.0,0.0,0.0,0.0,0.0,0.0,0.0,0.0,0.0,0.0,0.0,0.0,0.0,0.0,0.0,0.0,0.0,0.0,0.0,0.0,0.0,0.0,0.0,0.0,0.0,0.0,0.0,0.0,0.0,0.0,0.0,0.0,0.0,0.0,0.0,0.0,0.0,0.0,0.0,0.0,0.0,0.0,0.0,-2.9314,0.0,0.0,0.0,0.0,0.0,0.0,0.0,0.0,0.0,0.0,0.0,0.0,0.0,0.0,0.0,0.0,0.0,0.0,0.0,0.0,0.0,0.0,0.0,0.0,0.0,0.0,0.0,0.0,0.0,0.0,0.0,0.0,0.0,0.0,0.0,0.0,0.0,0.0,0.0,0.0,-3.3747,-3.3985,-3.4173,-3.4269,-3.4293,-3.4316,-3.445,-3.445,-3.4495,-3.4583,-3.4207,0.0,0.0,0.0,0.0,0.0,0.0,0.0,0.0,0.0,0.0,0.0,0.0,0.0,0.0,0.0,0.0,0.0,0.0,0.0,0.0,0.0,0.0,0.0,0.0,0.0,0.0,0.0,0.0,0.0,0.0,0.0,0.0,0.0,0.0,0.0,0.0,0.0,0.0,0.0,0.0,0.0,0.0,0.0,0.0,0.0,0.0,0.0,0.0,0.0,0.0,0.0,0.0,0.0,-2.977,-2.9826,-3.017,-3.099,-3.1379,-3.1324,-3.0433,-3.0096,-3.0152,-3.0058,0.0,0.0,0.0,0.0,0.0,0.0,0.0,0.0,0.0,0.0,0.0,0.0,0.0,0.0,0.0,0.0,0.0,0.0,0.0,0.0,0.0,0.0,0.0,0.0,-3.174,-3.1924,-3.1808,0.0,0.0,0.0,0.0,0.0,0.0,0.0,0.0,0.0,0.0,0.0,-3.4626,-3.4498,-3.4476,-3.4626,-3.467,-3.4691,-3.4691,-3.4691,-3.4691,-3.4691,-3.4691,-3.4691,0.0,0.0,0.0,0.0,0.0,0.0,0.0,0.0,0.0,0.0,0.0,0.0,0.0,0.0,0.0,0.0,0.0,0.0,0.0,0.0,0.0,0.0,0.0,0.0,0.0,0.0,0.0,0.0,0.0,0.0,0.0,0.0,-2.8112,-2.8376,0.0,0.0,0.0,0.0,0.0,0.0,0.0,0.0,0.0,0.0,0.0,0.0,0.0,-2.9664,-2.9701,-3.0358,-3.0791,-3.1004,-3.1653,-3.2081,-3.2298,-3.2424,-3.2481,-3.2481,-3.2352,0.0,-3.203,-3.1845,0.0,0.0,0.0,0.0,0.0,0.0,0.0,0.0,0.0,0.0,0.0,0.0,0.0,0.0,0.0,0.0,0.0,0.0,0.0,0.0,0.0,0.0,-3.2873,-3.2854,-3.3527,-3.418,0.0,-3.3105,-3.2261,-3.2533,-3.3167,0.0,0.0,0.0,0.0,0.0,0.0,0.0,-3.4831,-3.4831,-3.4831,-3.487,-3.4962,-3.503,-3.503,-3.503,-3.503,-3.503,-3.503,-3.5047,-3.5117,-3.485,0.0,0.0,0.0,0.0,0.0,0.0,0.0,0.0,0.0,0.0,0.0,0.0,0.0,0.0,0.0,0.0,0.0,0.0,0.0,0.0,0.0,0.0,0.0,0.0,0.0,0.0,0.0,0.0,0.0,-2.8047,-2.8219,-2.846,-2.886,-2.9126,0.0,0.0,0.0,0.0,0.0,0.0,0.0,0.0,0.0,-3.0377,-3.0809,-3.1092,-3.1221,-3.158,-3.1839,-3.2038,-3.2393,-3.2611,-3.2723,-3.3281,-3.3532,-3.357,-3.4005,-3.4175,-3.3991,-3.2854,-3.249,-3.2611,0.0,0.0,0.0,0.0,-3.2241,-3.2066,-3.1981,-3.192,-3.1899,-3.1753,0.0,0.0,0.0,0.0,0.0,0.0,0.0,0.0,0.0,0.0,-3.4126,-3.4207,-3.4946,-3.5609,-3.5609,-3.5453,-3.5039,0.0,-3.4192,-3.4717,-3.5352,0.0,0.0,0.0,0.0,-3.6369,-3.6461,-3.6479,-3.6479,-3.6479,-3.653,-3.6564,-3.6564,-3.6105,-3.5837,-3.5837,-3.5362,-3.5114,-3.513,-3.5015,-3.4944,0.0,0.0,0.0,0.0,0.0,0.0,0.0,0.0,0.0,0.0,0.0,0.0,0.0,0.0,0.0,0.0,0.0,0.0,0.0,0.0,0.0,0.0,0.0,0.0,0.0,0.0,0.0,0.0,-2.8264,-2.8394,-2.8597,-2.8971,-2.9209,0.0,0.0,0.0,0.0,0.0,0.0,-3.0302,-3.0884,-3.1223,-3.128,-3.1864,-3.2279,-3.2473,-3.2683,-3.2877,-3.3097,-3.3297,-3.3415,-3.3493,-3.4241,-3.4577,-3.4615,-3.5218,-3.5604,-3.57,-3.3953,-3.3345,-3.3448,-3.3245,-3.3201,-3.3233,-3.3137,-3.2995,-3.2883,-3.2883,-3.2883,-3.2883,-3.2883,-3.2883,-3.2977,-3.3638,0.0,0.0,0.0,0.0,-3.5416,-3.5571,-3.5628,-3.5645,-3.5747,-3.6258,-3.6733,-3.6733,-3.723,-3.7238,0.0,-3.5514,-3.5818,-3.6464,0.0,0.0,0.0,0.0,-3.7723,-3.7773,-3.7773,-3.7773,-3.777,-3.7805,-3.782,-3.7855,-3.7245,-3.688,-3.6895,-3.6285,-3.5825,-3.5595,-3.5487,-3.5295,-3.4982,0.0,0.0,0.0,0.0,0.0,0.0,0.0,0.0,0.0,0.0,0.0,0.0,0.0,0.0,0.0,0.0,0.0,0.0,0.0,0.0,0.0,0.0,0.0,0.0,0.0,0.0,0.0,0.0,0.0,-2.8938,-2.9119,0.0,0.0,0.0,0.0,-3.079,-3.0827,-3.1185,-3.1936,-3.2011,-3.2128,-3.233,-3.2349,-3.249,-3.2684,-3.3448,-3.3921,-3.4128,-3.4899,-3.5367,-3.5562,-3.5599,-3.5618,-3.562,-3.5658,-3.6193,-3.6901,-3.5547,-3.5094,-3.5257,-3.5243,-3.5243,-3.5243,-3.5243,-3.5124,-3.4947,-3.4947,-3.4947,-3.4947,-3.4947,-3.4947,-3.4966,-3.5005,-3.5613,0.0,0.0,-3.691,-3.7557,-3.7557,-3.7575,-3.7555,-3.7575,-3.7594,-3.7632,-3.7632,-3.767,-3.767,0.0,-3.7538,-3.7575,-3.7632,0.0,-3.7699,-3.7858,-3.777,-3.7773,-3.7954,-3.7921,-3.7901,-3.7983,-3.8112,-3.8187,-3.8272,-3.8179,-3.8141,-3.8214,-3.8156,-3.7779,-3.6929,-3.6716,-3.6152,-3.52,-3.5069,0.0,0.0,0.0,0.0,0.0,0.0,0.0,0.0,0.0,0.0,0.0,0.0,0.0,0.0,0.0,0.0,0.0,0.0,0.0,0.0,0.0,0.0,0.0,0.0,0.0,0.0,0.0,0.0,-2.931,-2.9899,0.0,-3.0337,-3.0883,-3.1354,-3.1654,-3.1789,-3.1995,-3.2278,-3.2916,-3.3304,-3.3369,-3.3868,-3.4235,-3.4438,-3.4707,-3.4962,-3.5187,-3.6018,-3.6458,-3.6551,-3.7113,-3.7405,-3.7434,-3.7376,-3.756,-3.7841,-3.7356,-3.7185,-3.7197,-3.7154,-3.7082,-3.7016,-3.7016,-3.6944,-3.6834,-3.6834,-3.6834,-3.6834,-3.6834,-3.6818,-3.6766,-3.6766,-3.6999,-3.7247,-3.7245,-3.7474,-3.7723,-3.7867,-3.7847,-3.7862,-3.8053,-3.8466,-3.8865,-3.891,-3.9335,-3.9683,-3.9683,-3.8714,-3.807,-3.8627,-3.8844,-3.911,-3.9688,-3.9728,-3.9728,-3.9777,-3.9777,-3.9777,-3.9801,-3.9832,-3.9893,-3.9904,-3.9409,-3.9118,-3.9129,-3.8606,-3.816,-3.7841,-3.7727,-3.7193,-3.6185,-3.6078,-3.5618,0.0,0.0,0.0,0.0,0.0,0.0,0.0,0.0,0.0,0.0,0.0,0.0,0.0,0.0,0.0,0.0,0.0,0.0,0.0,0.0,0.0,0.0,0.0,0.0,0.0,0.0,-2.9917,-3.0357,-3.0998,-3.1355,-3.1257,-3.1883,-3.2392,-3.258,-3.2785,-3.302,-3.3289,-3.3939,-3.4339,-3.4385,-3.5209,-3.5724,-3.5894,-3.6203,-3.6407,-3.6547,-3.7149,-3.7441,-3.7453,-3.8035,-3.8326,-3.8354,-3.8316,-3.8471,-3.8772,-3.8772,-3.8908,-3.9043,-3.8404,-3.8112,-3.8029,-3.8029,-3.8022,-3.7982,-3.7982,-3.7982,-3.7982,-3.7982,-3.7935,-3.7887,-3.7887,-3.8118,-3.8334,-3.8344,-3.8541,-3.8787,-3.8917,-3.891,-3.891,-3.9096,-3.9564,-3.9951,-3.9993,-4.0419,-4.0807,-4.0807,-3.9809,-3.9136,-3.9715,-3.9917,-4.0186,-4.0718,-4.0796,-4.0807,-4.0807,-4.0807,-4.0818,-4.0839,-4.0818,-4.0807,-4.0837,-4.0313,-4.0003,-4.0052,-3.9499,-3.9053,-3.8743,-3.8711,-3.8187,-3.7153,-3.7036,-3.6492,-3.5469,0.0,0.0,0.0,0.0,0.0,0.0,0.0,0.0,0.0,0.0,0.0,0.0,0.0,0.0,0.0,0.0,0.0,0.0,0.0,0.0,0.0,0.0,0.0,-3.1181,-3.0942,-3.1204,-3.2109,-3.2351,-3.2372,-3.2178,-3.2533,-3.3023,-3.3598,-3.3827,-3.4289,-3.5114,-3.5168,-3.5266,-3.5482,-3.6309,-3.68,-3.6942,-3.7773,-3.8191,-3.8194,-3.8322,-3.8382,-3.8384,-3.8442,-3.8462,-3.8452,-3.8452,-3.8986,-3.982,-3.982,-4.0286,-4.0801,-3.9063,-3.8384,-3.8384,-3.8384,-3.8384,-3.8384,-3.8384,-3.8384,-3.8384,-3.8384,-3.8384,-3.8384,-3.8384,-3.8965,-3.9635,-3.9635,-4.0186,-4.0807,-4.0807,-4.0807,-4.0807,-4.0807,-4.0807,-4.0807,-4.0787,-4.0798,-4.0818,-4.0787,-4.0798,-4.0818,-4.0787,-4.0787,-4.0796,-4.08,-4.0815,0.0,-4.0787,-4.0787,-4.0828,-4.0878,-4.0839,-4.0818,-4.0888,-4.0848,-4.0818,-4.0907,-4.0907,-4.0519,-3.9685,-3.9645,-3.9143,-3.8067,-3.7832,-3.736,-3.6636,0.0,0.0,0.0,0.0,0.0,0.0,0.0,0.0,0.0,0.0,0.0,0.0,0.0,0.0,0.0,0.0,0.0,0.0,0.0,0.0,0.0,0.0,-3.2461,-3.201,-3.2079,-3.2273,-3.2534,-3.3102,-3.3484,-3.3418,-3.4085,-3.4592,-3.4754,-3.4908,-3.5359,-3.6205,-3.6408,-3.6767,-3.7416,-3.7715,-3.7873,-3.7904,-3.8158,-3.8266,-3.8296,-3.9517,-4.0139,-4.0218,-4.144,-4.2024,-4.2063,-4.2063,-4.2218,-4.2461,-4.2461,-4.2597,-4.2617,-4.0869,-4.0189,-4.0189,-4.0189,-4.0189,-4.0189,-4.0189,-4.0189,-4.0189,-4.0189,-4.0189,-4.0198,-4.0198,-4.0324,-4.0488,-4.0518,-4.0662,-4.0807,-4.0867,-4.0837,-4.0818,-4.0867,-4.0877,-4.0877,-4.0859,-4.0904,-4.0929,-4.0878,-4.0921,-4.0935,-4.0888,-4.0868,-4.0869,-4.0878,-4.0859,0.0,-4.0869,-4.0869,-4.0869,-4.0907,-4.0878,-4.0888,-4.0898,-4.0869,-4.0888,-4.0898,-4.0898,-4.0801,-4.0548,-4.0539,-4.0111,-3.9176,-3.8338,-3.7828,0.0,0.0,0.0,0.0,0.0,0.0,0.0,0.0,0.0,0.0,0.0,0.0,0.0,0.0,0.0,0.0,0.0,0.0,0.0,0.0,0.0,0.0,-3.3467,-3.3791,-3.3611,-3.3375,-3.3345,-3.3782,-3.4242,-3.45,-3.4454,-3.5033,-3.5532,-3.5801,-3.5978,-3.6426,-3.7283,-3.7475,-3.776,-3.8241,-3.8963,-3.9342,-3.9351,-4.0102,-4.048,-4.0499,-4.1485,-4.1976,-4.205,-4.3031,-4.3506,-4.3532,-4.3532,-4.3532,-4.3532,-4.3532,-4.3532,0.0,0.0,0.0,0.0,0.0,-4.1995,-4.1995,-4.1995,-4.1995,-4.1995,-4.1995,-4.1985,-4.1985,-4.1985,-4.1955,-4.1936,-4.1985,-4.1955,-4.1946,-4.1984,-4.1954,-4.1954,-4.2031,-4.2018,-4.2026,-4.2039,-4.207,-4.2081,-4.2046,-4.2056,0.0,-4.2039,-4.1422,-4.0935,-4.0948,-4.0935,-4.0935,-4.0948,-4.0945,-4.0937,-4.0935,-4.0913,-4.0906,-4.0941,-4.0915,0.0,0.0,0.0,-4.0898,-4.0908,-4.0908,0.0,0.0,0.0,-3.9054,-3.8717,0.0,0.0,0.0,-3.5863,-3.5562,0.0,0.0,0.0,0.0,0.0,0.0,0.0,0.0,0.0,0.0,0.0,0.0,0.0,0.0,0.0,0.0,-3.4836,-3.5418,-3.5418,-3.4669,-3.4429,-3.5341,-3.5432,-3.543,-3.5407,-3.5662,-3.614,-3.6826,-3.7046,-3.7497,-3.8307,0.0,0.0,0.0,0.0,-4.1111,-4.1131,-4.2719,-4.3518,-4.3518,-4.3675,-4.3755,-4.3759,-4.3844,-4.3886,-4.3886,-4.3886,-4.3886,-4.3886,-4.3886,-4.3886,-4.3879,-4.3615,-4.351,-4.351,-4.351,-4.351,-4.351,-4.351,0.0,0.0,-4.351,-4.351,-4.351,-4.351,-4.351,-4.351,-4.351,-4.351,-4.3508,-4.3507,-4.35,-4.3538,-4.3587,-4.3593,-4.3593,-4.3593,-4.3615,-4.3618,-4.3596,-4.3618,-4.3601,-4.3618,-4.2324,-4.1283,-4.1293,-4.13,-4.1283,-4.1293,-4.1281,-4.1301,-4.1283,0.0,0.0,-4.1136,-4.1003,-4.0904,-4.0904,-4.0906,-4.0907,-4.0907,-4.0907,-4.0907,-4.0907,-4.0907,-4.0548,-3.9839,-3.9839,-3.9403,-3.8569,-3.7282,-3.6684,0.0,0.0,0.0,0.0,0.0,0.0,0.0,0.0,0.0,0.0,0.0,0.0,0.0,0.0,0.0,-3.5147,-3.5412,-3.5631,-3.5631,-3.5458,-3.5411,-3.5626,-3.5646,-3.5908,-3.6596,-3.6705,-3.7094,-3.7938,-3.8035,-3.8422,-3.9277,-4.001,-4.0731,-4.1427,-4.2499,-4.3051,-4.3061,-4.3411,-4.3576,-4.3595,0.0,0.0,-4.466,-4.5382,-4.5698,-4.5698,-4.5698,-4.5698,-4.5698,-4.5698,-4.5698,-4.5558,-4.4122,-4.3591,-4.3591,-4.3591,-4.3591,-4.3591,-4.3591,-4.3591,-4.3591,-4.3591,-4.3591,-4.3591,-4.3591,-4.3591,0.0,-4.3591,-4.3591,-4.3572,-4.358,-4.3583,-4.3583,-4.3593,-4.3593,-4.3593,-4.3593,-4.3647,-4.3651,-4.3618,-4.3633,-4.3685,-4.3672,-4.3351,-4.3105,-4.3102,-4.3105,-4.3105,-4.3102,-4.3099,-4.3099,-4.3105,-4.2467,-4.2026,-4.2054,-4.1382,-4.0988,-4.0988,-4.0986,-4.0964,-4.0898,-4.0898,-4.0898,-4.0898,-4.0898,-4.082,-4.0674,-4.0674,-4.0577,-4.0354,-3.8597,-3.7752,0.0,0.0,0.0,0.0,0.0,0.0,0.0,0.0,0.0,0.0,0.0,-3.5039,0.0,0.0,-3.5673,-3.5565,-3.5623,-3.5841,-3.6297,-3.6357,-3.6348,-3.6357,-3.6346,-3.6696,-3.757,-3.7657,-3.8006,-3.8889,-3.9343,-3.9991,-4.0837,-4.1753,-4.2451,-4.2889,-4.3771,-4.4254,-4.4247,-4.4677,-4.5112,-4.5562,-4.6035,-4.6465,-4.6875,-4.7304,-4.75,-4.75,-4.75,-4.75,-4.75,-4.75,-4.75,-4.7402,-4.6542,-4.5661,-4.4898,-4.4898,-4.4898,-4.4898,-4.4898,-4.4898,-4.4898,-4.4898,-4.4898,-4.4898,-4.4898,-4.4898,-4.4898,-4.4898,-4.4898,-4.4901,-4.4895,-4.4897,-4.4919,-4.4941,-4.4941,-4.4941,-4.4941,-4.4978,-4.4995,-4.496,-4.4972,-4.4998,-4.4991,-4.4978,-4.4668,-4.3789,-4.3652,-4.3652,-4.3652,-4.3651,-4.3651,-4.3652,-4.3236,-4.2954,-4.3003,-4.2173,-4.1657,-4.1657,-4.1246,-4.0989,-4.0955,-4.096,-4.0957,-4.0957,-4.0915,-4.0907,-4.0907,-4.0907,-4.0907,-4.0888,-3.9936,-3.9273,0.0,0.0,0.0,0.0,0.0,0.0,0.0,0.0,-3.5704,-3.5704,-3.5704,-3.5704,-3.5704,-3.5695,-3.5753,-3.5927,-3.5949,-3.626,-3.7132,-3.7259,-3.7327,-3.7501,-3.7355,-3.7579,-3.8462,-3.8559,-3.8996,-4.0053,-4.0785,-4.1545,-4.2429,-4.3353,-4.3847,-4.3847,-4.4714,-4.5245,-4.5421,-4.6113,-4.6893,-4.7753,-4.7816,-4.8174,-4.8798,-4.8798,-4.8798,-4.8798,-4.8798,-4.8798,-4.8798,-4.8798,-4.8798,-4.8798,-4.8798,-4.7945,-4.671,-4.671,-4.671,-4.671,-4.671,-4.671,-4.671,-4.671,-4.671,-4.671,-4.671,-4.671,-4.671,-4.671,-4.671,-4.6713,-4.6719,-4.6718,-4.6716,-4.6775,-4.6671,-4.6554,-4.6554,-4.6417,-4.63,-4.63,-4.63,-4.63,-4.63,-4.63,-4.5812,-4.4426,-4.4211,-4.4211,-4.4211,-4.421,-4.4213,-4.4214,-4.4003,-4.3825,-4.371,-4.3006,-4.2568,-4.2563,-4.1743,-4.1272,-4.1247,-4.1096,-4.0992,-4.0992,-4.096,-4.0921,-4.0921,-4.0921,-4.0921,-4.0921,-4.0921,-4.0574,-3.4118,-3.4853,-3.5414,-3.5383,-3.5461,-3.5549,0.0,0.0,-3.5704,-3.5704,-3.5704,-3.5704,-3.5704,-3.5706,-3.5959,-3.6734,-3.6851,-3.7162,-3.8035,-3.8152,-3.8443,-3.9209,-3.8637,-3.8501,-3.9374,-3.9513,-4.0227,-4.1864,-4.2086,-4.2522,-4.3411,-4.4273,-4.4746,-4.4746,-4.5657,-4.6524,-4.7286,-4.74,-4.7849,-4.8649,-4.8665,-4.8701,-4.8798,-4.8798,-4.8798,-4.8798,-4.8798,-4.8798,-4.8798,-4.8798,-4.8798,-4.8798,-4.8798,-4.8685,-4.8516,-4.8516,-4.8516,-4.8516,-4.8516,-4.8516,-4.8516,-4.8516,-4.8516,-4.8516,-4.8516,-4.8516,-4.8516,-4.8516,-4.8516,-4.8516,-4.8512,-4.8512,-4.8509,-4.8525,-4.7978,-4.7451,-4.7451,-4.6846,-4.63,-4.63,-4.63,-4.63,-4.63,-4.63,-4.6222,-4.6046,-4.6007,-4.6007,-4.6007,-4.601,-4.601,-4.6007,-4.5311,-4.4533,-4.3769,-4.3596,-4.3546,-4.3535,-4.2734,-4.2223,-4.2165,-4.1417,-4.1003,-4.1003,-4.098,-4.1,-4.1,-4.1,-4.1,-4.1,-4.1,-4.0908,-3.4991,-3.5433,0.0,0.0,-3.5704,-3.5704,-3.5704,-3.5704,-3.5695,-3.5706,-3.5687,-3.5852,-3.6357,-3.6464,-3.6745,0.0,-3.7791,-3.8113,-3.8988,-3.9156,-3.948,-4.0325,-4.0084,-4.0013,-4.0373,-4.0902,-4.1525,-4.2256,-4.3247,-4.3961,-4.4333,-4.5213,-4.5712,-4.5712,-4.6599,-4.7237,-4.7608,-4.8057,-4.872,-4.956,-4.956,-4.9813,-5.0301,-5.0301,-5.0301,-5.0301,-5.0301,-5.0301,-5.0301,-5.0301,-5.0301,-5.0301,-5.0301,-5.0301,-5.0184,-4.9169,-4.8798,-4.8798,-4.8798,-4.8798,-4.8798,-4.8798,-4.8798,-4.8798,-4.8798,-4.8798,-4.8798,-4.8798,-4.8798,-4.8798,-4.8798,-4.8798,-4.8798,-4.8798,-4.8545,-4.8291,-4.8291,-4.8017,-4.7744,-4.7744,-4.7373,-4.7061,-4.7061,-4.6632,-4.63,-4.63,-4.63,-4.63,-4.63,-4.63,-4.63,-4.63,-4.5968,-4.5617,-4.5246,-4.4758,-4.4452,-4.4462,-4.3642,-4.3139,-4.3124,-4.2284,-4.1813,-4.1813,-4.1275,-4.0991,-4.0991,-4.0991,-4.0991,-4.0991,-4.0991,-4.0972,-3.5616,0.0,0.0,-3.5736,-3.5736,-3.5736,-3.5736,-3.5736,-3.5726,-3.5735,-3.5918,-3.6276,-3.6914,-3.7214,-3.7669,-3.8544,-3.8747,-3.9082,-3.9939,-4.0095,-4.0346,-4.0922,-4.1016,-4.1114,-4.1358,-4.1963,-4.2522,-4.2976,-4.4199,-4.5036,-4.5271,-4.5922,-4.6417,-4.6651,-4.7276,-4.7822,-4.8291,-4.8876,-4.9599,-5.0457,-5.0457,-5.0789,-5.1394,-5.1394,-5.1394,-5.1394,-5.1394,-5.1394,-5.1394,-5.1394,-5.1394,-5.1394,-5.1394,-5.1394,-5.1258,-4.9989,-4.952,-4.952,-4.952,-4.952,-4.952,-4.952,-4.952,-4.952,-4.952,-4.952,-4.952,-4.952,-4.952,-4.952,-4.952,-4.952,-4.952,-4.952,-4.9325,-4.9169,-4.9169,-4.8974,-4.8798,-4.8798,-4.833,-4.7939,-4.7939,-4.7412,-4.6905,-4.669,-4.6651,-4.6573,-4.6339,-4.63,-4.63,-4.63,-4.63,-4.63,-4.63,-4.5714,-4.5363,-4.5363,-4.4543,-4.4055,-4.4055,-4.3214,-4.2752,-4.2752,-4.1854,-4.1382,-4.1382,-4.1147,-4.103,-4.103,-4.103,-4.103,0.0,0.0,-3.5802,-3.5802,-3.5802,-3.5802,-3.5802,-3.5802,-3.5806,-3.5806,-3.6473,-3.7063,-3.7082,-3.7792,-3.8639,-3.9513,-3.9719,-4.0034,-4.0854,-4.0952,-4.0971,-4.0991,-4.105,-4.1426,0.0,-4.2383,-4.3066,-4.4707,-4.4931,-4.5363,-4.6206,-4.628,-4.669,-4.753,-4.7588,-4.8388,-5.0008,-5.0048,-5.0496,-5.1355,-5.1355,-5.1375,-5.1394,-5.1394,-5.1394,-5.1394,-5.1394,-5.1394,-5.1394,-5.1394,-5.1394,-5.1394,-5.1394,-5.1394,-5.1394,-5.1336,-5.1316,-5.1316,-5.1316,-5.1316,-5.1316,-5.1316,-5.1316,-5.1316,-5.1316,-5.1316,-5.1316,-5.1316,-5.1316,-5.1316,-5.1316,-5.1316,-5.1316,-5.1316,-5.0672,-5.0067,-5.0067,-4.9403,-4.8798,-4.8798,-4.8779,-4.8759,-4.8759,-4.874,-4.8466,-4.7686,-4.7569,-4.7256,-4.6417,-4.63,-4.63,-4.63,-4.63,-4.63,-4.63,-4.628,-4.6261,-4.6261,-4.5441,-4.4953,-4.4953,-4.4114,-4.3668,-4.3668,-4.2809,-4.236,-4.236,-4.1501,-4.1091,-4.1091,-4.1091,-4.1091,0.0,0.0,-3.5857,-3.5814,-3.581,-3.581,-3.581,-3.581,-3.5966,-3.6544,-3.6898,-3.7468,-3.8661,-3.9133,-3.9605,-4.0421,-4.0615,-4.0759,-4.1033,-4.1074,-4.1072,-4.1072,-4.1087,0.0,0.0,0.0,0.0,-4.4889,-4.5526,-4.5987,-4.628,-4.6846,-4.7295,-4.7588,-4.8681,-4.954,-5.0087,-5.0672,-5.1102,-5.1394,-5.1394,-5.1394,-5.1394,-5.1394,-5.1394,-5.1394,-5.1394,-5.1394,-5.1394,-5.1406,-5.1406,-5.1401,-5.1391,-5.1411,-5.1411,-5.1411,-5.1411,-5.1391,-5.141,-5.1394,-5.1394,-5.1394,-5.1394,-5.1394,-5.1394,-5.1394,-5.1394,-5.1394,-5.1394,-5.1394,-5.1394,-5.1394,-5.1394,-5.1394,-5.118,-5.0965,-5.0965,-5.0731,-5.0535,-5.0535,-5.0067,-4.9657,-4.9657,-4.9189,-4.8701,-4.8447,-4.7451,-4.6632,-4.6339,-4.63,-4.63,-4.63,-4.63,-4.63,-4.63,-4.63,-4.63,-4.63,-4.6027,-4.5851,-4.5851,-4.5031,-4.4563,-4.4563,-4.3704,-4.3255,-4.3255,-4.2962,-4.2825,-4.2825,-4.2825,-4.2825,-3.5956,-3.5937,-3.5937,-3.5873,-3.587,-3.587,-3.587,-3.6105,-3.6497,-3.7066,-3.7653,-3.8416,-3.9588,-4.0057,-4.0428,-4.0955,-4.1074,-4.109,-4.109,-4.1101,-4.1108,-4.1108,-4.1361,-4.2123,0.0,0.0,0.0,-4.5402,-4.5987,-4.63,-4.63,-4.7139,-4.7725,-4.8017,-4.9384,-5.0243,-5.0555,-5.1121,-5.1394,-5.1394,-5.1394,-5.1394,-5.141,-5.141,-5.1406,-5.1401,-5.1401,-5.1401,-5.1401,-5.1391,-5.1391,-5.1411,-5.14,-5.1394,-5.1394,-5.1394,-5.14,-5.1405,-5.1396,-5.1401,-5.1401,-5.1401,-5.1406,-5.141,-5.141,-5.139,-5.1394,-5.1394,-5.1394,-5.1394,-5.1394,-5.1394,-5.1394,-5.1394,-5.1394,-5.1394,-5.1394,-5.1394,-5.1394,-5.1394,-5.0945,-5.0555,-5.0555,-4.9833,-4.9267,-4.9267,-4.8076,-4.7081,-4.6807,-4.6768,-4.6651,-4.6339,-4.63,-4.63,-4.63,-4.63,-4.63,-4.63,-4.63,-4.63,-4.63,-4.5753,-4.546,-4.546,-4.4602,-4.4153,-4.4153,-4.384,-4.3704,-4.3704,-4.3704,-4.3704,-3.5991,-3.5991,-3.5991,-3.5991,-3.5991,-3.601,-3.6049,-3.6716,-3.7321,-3.7419,-3.8687,-3.9819,0.0,0.0,-4.1108,-4.1108,-4.1108,-4.1108,-4.1108,-4.1108,-4.1108,0.0,0.0,0.0,0.0,0.0,0.0,-4.6222,0.0,-4.6319,-4.6358,-4.7198,-4.8037,-4.8837,-4.9716,-5.0555,-5.1394,-5.1394,-5.1394,-5.1394,-5.1394,-5.141,-5.1396,-5.1396,-5.1411,-5.1394,-5.1394,-5.1394,-5.1394,-5.1394,-5.1394,-5.1394,-5.1394,-5.1394,-5.1394,-5.1394,-5.138,-5.1391,-5.14,-5.1394,-5.1394,-5.1394,-5.1405,-5.1401,-5.1401,-5.1406,-5.1394,-5.1394,-5.1394,-5.1394,-5.1394,-5.1394,-5.1394,-5.1394,-5.1394,-5.1394,-5.1394,-5.1394,-5.1394,-5.1394,-5.1394,-5.1394,-5.1394,-5.0711,-5.0165,-5.0165,-4.9462,-4.8623,-4.7764,-4.7666,-4.7334,-4.6456,-4.6378,-4.6358,-4.63,-4.63,-4.63,-4.63,-4.63,-4.63,-4.63,-4.63,-4.63,-4.63,-4.55,-4.507,-4.507,-4.4231,-4.3821,-4.3821,-4.3821,-4.3821,-3.5991,-3.5991,-3.5991,-3.5991,-3.5991,-3.6169,-3.6813,-3.7145,-3.7653,-3.8902,-3.9507,-3.9995,0.0,0.0,0.0,-4.1108,-4.1108,0.0,-4.1108,-4.1108,0.0,-4.1108,0.0,-4.2747,-4.3626,-4.4484,0.0,0.0,-4.63,-4.6573,-4.7237,-4.8057,-4.8896,-4.9735,-5.0605,-5.1171,-5.1394,-5.1394,-5.1394,-5.1394,-5.1406,-5.1401,-5.1396,-5.1405,-5.14,-5.1394,-5.1394,-5.1394,-5.1394,-5.1343,-5.1336,-5.1336,-5.1323,-5.1335,-5.1335,-5.1335,-5.1335,-5.1323,-5.1335,-5.1349,-5.1406,-5.1406,-5.1406,-5.139,-5.139,-5.139,-5.1394,-5.1394,-5.1394,-5.1394,-5.1394,-5.1394,-5.1394,-5.1394,-5.1394,-5.1394,-5.1394,-5.1394,-5.1394,-5.1394,-5.1394,-5.1394,-5.1394,-5.1219,-5.1063,-5.1063,-5.0887,-5.0184,-4.8681,-4.8486,-4.8174,-4.7354,-4.7276,-4.7002,-4.6358,-4.63,-4.63,-4.63,-4.63,-4.63,-4.63,-4.63,-4.63,-4.63,-4.6085,-4.5968,-4.5968,-4.5753,-4.5636,-4.5636,-4.5636,-4.5636,-3.5991,-3.5991,-3.5991,-3.5991,-3.5991,-3.6228,-3.7106,-3.7594,-3.8238,-3.9527,-4.0093,0.0,0.0,0.0,0.0,0.0,0.0,0.0,-4.1108,-4.1108,-4.1108,0.0,-4.2201,0.0,-4.3661,-4.4832,-4.5769,0.0,-4.63,-4.6671,-4.7549,-4.8365,-4.92,-5.0078,-5.0947,-5.1396,-5.1406,-5.1406,-5.1406,-5.1406,-5.1396,-5.1386,-5.1361,-5.1369,-5.1362,-5.1349,0.0,-5.1349,-5.1349,-5.1323,-5.1296,-5.1296,-5.1308,-5.13,-5.13,-5.13,-5.1308,-5.1296,-5.1296,-5.1343,-5.1396,-5.1366,-5.1366,-5.1352,-5.1352,-5.1377,-5.1396,-5.1396,-5.1396,-5.1396,-5.1396,-5.1401,-5.1406,-5.1401,-5.1401,-5.1406,-5.1401,-5.1396,-5.1401,-5.1406,-5.1406,-5.141,-5.1394,-5.1394,-5.1394,-5.1394,-5.1394,-5.1043,-5.0067,-4.9618,-4.9052,-4.8213,-4.8135,-4.7939,-4.7432,-4.7061,-4.6866,-4.6866,-4.6515,-4.63,-4.63,-4.63,-4.63,-4.63,-4.63,-4.63,-4.63,-4.6296,-4.6292,-4.6292,-4.6292,-4.6273,-3.5985,-3.5985,-3.5985,-3.5985,-3.5988,-3.6267,-3.7243,-3.8063,-3.8863,-3.978,0.0,-4.1108,-4.1108,-4.1108,-4.1108,-4.1108,0.0,-4.1108,-4.1081,-4.1081,-4.1081,-4.1081,-4.2526,-4.3556,-4.3693,-4.5164,-4.6179,-4.6284,-4.6292,-4.6726,-4.7701,-4.8415,-4.9245,-5.024,-5.101,-5.14,-5.1391,-5.1396,-5.1396,-5.1396,-5.14,-5.1362,-5.1291,-5.1291,-5.1296,-5.13,-5.13,-5.13,-5.13,-5.13,-5.13,-5.13,-5.13,-5.13,-5.13,-5.13,-5.1296,-5.131,-5.131,-5.1336,-5.1382,-5.1335,-5.1303,-5.1317,-5.1317,-5.1343,-5.1394,-5.1394,-5.1394,-5.1394,-5.1394,-5.1405,-5.1391,-5.14,-5.1405,-5.1391,-5.14,-5.1394,-5.14,-5.1391,-5.1396,-5.1396,-5.141,-5.141,-5.141,-5.141,-5.139,-5.139,-5.139,-5.075,-4.995,-4.9072,-4.8974,-4.8935,-4.8818,-4.8154,-4.7764,-4.7764,-4.7042,-4.6632,-4.6632,-4.6534,-4.6475,-4.6475,-4.6358,-4.63,-4.63,-4.6292,-4.6308,-4.6308,-4.6308,-4.6318,-3.5889,-3.5924,-3.5924,-3.5924,-3.5951,-3.6423,-3.8004,-3.8495,0.0,0.0,0.0,-4.1108,-4.1108,-4.1108,0.0,-4.1108,0.0,0.0,0.0,0.0,-4.1031,0.0,0.0,0.0,0.0,0.0,0.0,0.0,0.0,-4.6971,-4.8508,-4.8723,-4.9494,-5.105,-5.1291,-5.1369,-5.1323,-5.1375,-5.14,-5.14,-5.1343,-5.1317,-5.1291,-5.1296,-5.13,-5.13,-5.13,0.0,-5.13,-5.13,-5.13,-5.13,-5.13,-5.13,-5.13,-5.13,-5.13,-5.1308,-5.1308,-5.1308,-5.1316,-5.1375,-5.1388,-5.1369,-5.1369,-5.1394,-5.1394,-5.1394,-5.1394,-5.1394,-5.1394,-5.1394,-5.14,-5.1394,-5.1394,-5.14,-5.1394,-5.1394,-5.1394,-5.14,-5.14,-5.14,-5.14,-5.14,-5.14,-5.14,-5.1391,-5.1401,-5.1401,-5.1273,-5.0848,-4.9969,-4.9872,-4.9579,-4.8857,-4.8662,-4.8584,-4.8584,-4.8447,-4.8369,-4.8369,-4.7725,-4.7373,-4.7373,-4.6671,-4.63,-4.63,-4.63,-4.6296,-4.6296,-4.6296,-4.6687,-3.5787,-3.5794,-3.5794,-3.5794,-3.582,-3.6292,-3.8052,0.0,0.0,0.0,-4.1074,-4.1108,-4.1108,0.0,0.0,0.0,0.0,0.0,0.0,0.0,0.0,0.0,0.0,0.0,0.0,0.0,0.0,0.0,0.0,-4.6996,-4.8708,-4.9619,-5.0465,-5.1277,-5.1336,-5.1323,-5.1291,-5.1261,-5.1281,-5.1343,-5.1245,-5.1237,-5.1296,-5.1308,-5.13,-5.13,-5.13,-5.13,-5.13,-5.13,-5.13,-5.13,-5.13,-5.13,-5.13,-5.13,-5.13,-5.13,-5.13,-5.13,-5.13,-5.1342,-5.1349,-5.1349,-5.1349,-5.1349,-5.1349,-5.1349,-5.1349,-5.1349,-5.1349,-5.1356,-5.1343,-5.1349,-5.1349,-5.1349,-5.1349,-5.1349,-5.1349,-5.1343,-5.1343,-5.1362,-5.1394,-5.1394,-5.1394,-5.1394,-5.14,-5.1405,-5.1405,-5.1391,-5.124,-5.082,-5.0781,-5.0601,-5.0186,-4.9747,-4.9478,-4.9473,-4.9048,-4.8798,-4.8798,-4.8427,-4.8213,-4.8213,-4.7803,-4.7608,-4.7608,-4.7604,-4.76,-4.76,-4.76,-4.781,-3.5659,-3.5687,-3.5687,-3.5687,-3.5685,-3.6168,-3.7897,-3.8357,0.0,0.0,-4.0925,-4.1049,-4.0844,0.0,0.0,0.0,0.0,0.0,0.0,0.0,0.0,0.0,0.0,0.0,0.0,0.0,0.0,0.0,0.0,0.0,-4.8652,-5.0299,-5.1189,-5.1181,-5.118,-5.1198,-5.1198,-5.1092,-5.1092,-5.1198,-5.1089,-5.1097,-5.1181,-5.1181,-5.1181,-5.1181,-5.1181,-5.1181,-5.1181,-5.1181,-5.1181,-5.1181,-5.1181,-5.1181,-5.1181,-5.1181,-5.1219,-5.1248,-5.121,-5.1248,-5.13,-5.1276,-5.1284,-5.13,-5.13,-5.13,-5.13,-5.13,-5.13,-5.13,-5.13,-5.1296,-5.1303,-5.13,-5.13,-5.13,-5.13,-5.13,-5.1308,-5.1303,-5.1303,-5.131,-5.1362,-5.1382,-5.1382,-5.1382,-5.1388,-5.1388,-5.1388,-5.1388,-5.1375,-5.1386,-5.1391,-5.1405,-5.1394,-5.0772,-5.0386,-5.0377,-4.9742,-4.9356,-4.9356,-4.9185,-4.9087,-4.9087,-4.8892,-4.8794,-4.8794,-4.8806,-4.8796,-4.8796,-4.8767,-4.8833,-3.5596,-3.5599,-3.5599,-3.5599,-3.565,-3.6168,-3.7897,0.0,0.0,-3.963,-4.0496,-4.0844,-3.9998,-4.0467,0.0,0.0,0.0,0.0,0.0,0.0,0.0,0.0,0.0,0.0,0.0,0.0,0.0,0.0,0.0,0.0,-4.8506,-5.0002,-5.085,-5.0855,-5.085,-5.085,-5.085,-5.0835,-5.0835,-5.085,-5.082,-5.082,-5.0855,-5.0855,-5.0855,-5.0855,-5.0855,-5.0855,0.0,-5.0855,-5.0855,-5.0855,-5.0855,-5.0855,-5.0855,-5.0855,-5.0959,-5.1086,-5.0912,-5.1047,-5.1284,-5.115,-5.1211,-5.13,-5.13,-5.13,-5.13,-5.13,-5.13,-5.13,-5.13,-5.13,-5.13,-5.13,-5.13,-5.13,-5.13,-5.13,-5.13,-5.13,-5.13,-5.13,-5.1308,-5.1308,-5.1308,-5.1308,-5.1303,-5.1317,-5.1317,-5.1317,-5.1317,-5.1317,-5.1369,-5.1394,-5.1394,-5.1336,-5.1283,-5.1277,-5.1205,-5.1166,-5.1166,-5.0396,-4.9972,-4.9972,-4.9191,-4.8801,-4.8801,-4.8806,-4.88,-4.88,-4.8608,-4.8943,-3.5522,-3.5547,-3.5547,-3.5547,-3.5565,-3.6026,-3.7738,0.0,0.0,-3.9299,-3.9941,-4.016,-3.9813,-4.0364,-4.0855,0.0,0.0,0.0,0.0,0.0,0.0,0.0,0.0,0.0,0.0,0.0,0.0,0.0,0.0,0.0,-4.8211,-4.9846,-5.079,-5.079,-5.079,-5.079,-5.079,-5.0731,-5.0731,-5.079,-5.0731,-5.0711,-5.079,-5.079,-5.079,-5.079,-5.079,-5.079,0.0,-5.079,-5.079,-5.079,-5.079,-5.079,-5.079,-5.079,-5.0855,-5.0918,-5.084,-5.0898,-5.0979,-5.0945,-5.0959,-5.1035,-5.1248,-5.13,-5.13,-5.13,-5.13,-5.13,-5.13,-5.13,-5.13,-5.13,-5.13,-5.13,-5.13,-5.13,-5.13,-5.13,-5.13,-5.13,-5.13,-5.13,-5.13,-5.13,-5.1308,-5.1296,-5.1296,-5.1296,-5.1296,-5.1296,-5.131,-5.1336,-5.1342,-5.1382,-5.1369,-5.1343,-5.1388,-5.1394,-5.1394,-5.1068,-5.0873,-5.0873,-5.0542,-5.0366,-5.0366,-5.0244,-5.0174,-5.0174,-5.0012,-5.013,-3.5493,-3.5493,-3.5493,-3.5493,-3.5493,-3.5872,0.0,0.0,0.0,-3.85,-3.9292,-3.9643,-3.9409,-4.0154,-4.0791,0.0,0.0,0.0,0.0,0.0,0.0,0.0,0.0,0.0,0.0,0.0,0.0,0.0,0.0,0.0,-4.7933,-4.9663,-5.0659,-5.0659,-5.0659,-5.0659,-5.0659,-5.0548,-5.0548,-5.0659,-5.0567,-5.0548,-5.0659,-5.0659,-5.0659,-5.0659,-5.0659,-5.0659,0.0,-5.0659,-5.0659,-5.0659,-5.0659,-5.0659,-5.0659,-5.0659,-5.0694,-5.0728,-5.0677,-5.0728,-5.079,-5.0761,-5.0778,-5.0835,-5.107,-5.1162,-5.1162,-5.1162,-5.1201,-5.1239,-5.1239,-5.1256,-5.13,-5.13,-5.13,-5.13,-5.13,-5.13,-5.13,-5.13,-5.13,-5.13,-5.13,-5.13,-5.13,-5.13,-5.13,-5.13,-5.13,-5.13,-5.13,-5.13,-5.1296,-5.1296,-5.13,-5.1342,-5.1356,-5.1303,-5.1336,-5.1382,-5.1382,-5.1323,-5.1316,-5.1316,-5.1253,-5.1217,-5.1217,-5.1083,-5.102,-5.102,-5.086,-5.079,-3.5493,-3.5493,-3.5493,-3.5493,-3.5493,-3.5718,0.0,0.0,0.0,-3.7014,-3.8505,-3.9501,-3.8505,-3.9674,-4.0721,-4.053,0.0,0.0,0.0,0.0,0.0,0.0,0.0,0.0,0.0,0.0,0.0,0.0,0.0,0.0,-4.7799,-4.9385,-5.0302,-5.0302,-5.0302,-5.0302,-5.0302,-5.0302,-5.0302,-5.0302,-5.0302,-5.0302,-5.0302,-5.0302,-5.0302,-5.0302,-5.0302,-5.0302,0.0,-5.0302,-5.0302,-5.0302,-5.0302,-5.0302,-5.0302,-5.0302,-5.0421,-5.0567,-5.0374,-5.0509,-5.0793,-5.0643,-5.0696,-5.079,-5.0805,-5.0805,-5.0805,-5.0805,-5.0945,-5.1105,-5.1105,-5.1211,-5.13,-5.13,-5.13,-5.13,-5.13,-5.13,-5.13,-5.13,-5.13,-5.13,-5.13,-5.13,-5.13,-5.13,-5.13,-5.13,-5.13,-5.13,-5.13,-5.13,-5.13,-5.13,-5.13,-5.13,-5.13,-5.13,-5.13,-5.13,-5.13,-5.1181,-5.1092,-5.1092,-5.0914,-5.0811,-5.0811,-5.0801,-5.0805,-5.079,-5.0662,-5.0506,-3.532,-3.5493,-3.5493,-3.5493,-3.5493,-3.5718,-3.6526,0.0,0.0,-3.686,-3.7981,-3.8766,-3.8551,-3.9758,-4.0791,-4.0718,-4.0596,0.0,0.0,0.0,0.0,0.0,0.0,0.0,0.0,0.0,0.0,0.0,0.0,0.0,-4.778,-4.8869,-4.9729,-5.0283,-5.0302,-5.0302,-5.0302,-5.0302,-5.0302,-5.0302,-5.0302,-5.0302,-5.0302,-5.0302,-5.0302,-5.0302,-5.0302,-5.0302,-5.0302,-5.0302,-5.0302,-5.0302,-5.0302,-5.0302,-5.0302,-5.0302,-5.0329,-5.0396,-5.0325,-5.0355,-5.0466,-5.0399,-5.0421,-5.0466,-5.0466,-5.0623,-5.079,-5.079,-5.0855,-5.0884,-5.0884,-5.0926,-5.0979,-5.112,-5.1161,-5.1201,-5.1284,-5.13,-5.13,-5.13,-5.13,-5.13,-5.13,-5.13,-5.13,-5.13,-5.13,-5.13,-5.13,-5.13,-5.13,-5.13,-5.13,-5.13,-5.13,-5.13,-5.13,-5.13,-5.1201,-5.1161,-5.1161,-5.0998,-5.0893,-5.0893,-5.0835,-5.0786,-5.0786,-5.0713,-5.0587,-5.0466,-5.0421,-5.0352,0.0,-3.5493,-3.5493,-3.5493,-3.5493,0.0,0.0,0.0,0.0,0.0,0.0,-3.8473,-3.8483,-3.975,-4.0781,-4.0696,-4.0582,0.0,0.0,0.0,0.0,0.0,0.0,0.0,0.0,0.0,0.0,0.0,0.0,0.0,-4.7283,-4.8449,-4.9328,-4.9824,-5.0149,-5.0302,-5.0302,-5.0302,-5.0302,-5.0302,-5.0302,-5.0302,-5.0302,-5.0302,-5.0302,-5.0302,-5.0302,-5.0302,0.0,-5.0302,-5.0302,-5.0302,-5.0302,-5.0302,-5.0302,-5.0302,-5.0302,-5.0302,-5.0302,-5.0302,-5.0302,-5.0302,-5.0302,-5.0302,-5.0302,-5.0445,-5.0605,-5.0605,-5.0659,-5.0711,-5.0711,-5.0761,-5.084,-5.0945,-5.0992,-5.1017,-5.11,-5.1111,-5.1111,-5.1111,-5.1111,-5.1111,-5.1111,-5.1162,-5.123,-5.123,-5.1276,-5.13,-5.13,-5.13,-5.1284,-5.123,-5.123,-5.1191,-5.1111,-5.1219,-5.1248,-5.1122,-5.1097,-5.1062,-5.0992,-5.0828,-5.0711,-5.0711,-5.0641,-5.0605,-5.0605,-5.0527,-5.0421,-5.0302,-5.0302,-5.0302,0.0,0.0,0.0,0.0,0.0,0.0,0.0,0.0,0.0,0.0,0.0,0.0,0.0,-3.9674,-4.0729,-4.0545,-4.0504,0.0,0.0,0.0,0.0,0.0,0.0,0.0,0.0,0.0,0.0,0.0,0.0,0.0,-4.65,-4.8086,-4.9041,-4.9098,-4.9882,-5.0302,-5.0302,-5.0302,-5.0302,-5.0302,-5.0302,-5.0302,-5.0302,-5.0302,-5.0302,0.0,-5.0302,-5.0302,-5.0302,-5.0302,-5.0302,-5.0302,-5.0302,-5.0302,-5.0302,-5.0302,-5.0302,-5.0302,-5.0302,-5.0302,-5.0302,-5.0302,-5.0302,-5.0302,-5.0302,-5.0302,-5.0302,-5.0302,-5.0421,-5.0586,-5.0586,-5.0661,-5.0758,-5.0774,-5.0793,-5.0774,-5.079,-5.079,-5.079,-5.079,-5.079,-5.079,-5.079,-5.0945,-5.1093,-5.1093,-5.1181,-5.1265,-5.1265,-5.1265,-5.123,-5.1086,-5.1093,-5.0992,-5.079,-5.1089,-5.1122,-5.082,-5.0978,-5.0978,-5.079,-5.0662,-5.0586,-5.0586,-5.0396,-5.0302,-5.0302,-5.0302,-5.0302,-5.0302,-5.0302,-5.0302,-3.5026,0.0,-3.5493,-3.5493,-3.5493,0.0,0.0,0.0,0.0,0.0,0.0,0.0,0.0,0.0,0.0,0.0,0.0,0.0,0.0,0.0,0.0,0.0,0.0,0.0,0.0,0.0,0.0,0.0,0.0,-4.5851,-4.6481,-4.7532,-4.8411,-4.9079,-4.9882,-5.0302,-5.0302,-5.0302,-5.0302,-5.0302,-5.0302,-5.0302,-5.0302,-5.0302,-5.0302,-5.0302,-5.0302,-5.0302,-5.0302,-5.0302,-5.0302,-5.0302,-5.0302,-5.0302,-5.0302,-5.0302,-5.0302,-5.0302,-5.0302,-5.0302,-5.0302,-5.0302,-5.0302,-5.0302,-5.0302,-5.0302,-5.0302,-5.0302,-5.0329,-5.0374,-5.0374,-5.0399,-5.0466,-5.0606,-5.0643,-5.068,-5.0793,-5.079,-5.079,-5.079,-5.079,-5.079,-5.079,-5.084,-5.087,-5.087,-5.0898,-5.0926,-5.0926,-5.0926,-5.0912,-5.087,-5.087,-5.0809,-5.0662,-5.0809,-5.0879,-5.0805,-5.0748,-5.0717,-5.0643,-5.0485,-5.0374,-5.0374,-5.0325,-5.0302,-5.0302,-5.0302,-5.0302,-5.0302,-5.0302,-5.0302,-3.4545,-3.5199,-3.5493,-3.5493,-3.5493,-3.5493,0.0,0.0,0.0,0.0,0.0,0.0,0.0,0.0,0.0,0.0,0.0,0.0,0.0,0.0,0.0,0.0,0.0,0.0,0.0,0.0,0.0,0.0,0.0,-4.5488,-4.5927,-4.6748,-4.7608,-4.8487,-4.9308,-4.992,-5.0302,-5.0302,-5.0302,-5.0302,-5.0302,-5.0302,-5.0302,-5.0302,-5.0302,-5.0302,-5.0302,-5.0302,-5.0302,-5.0302,-5.0302,-5.0302,-5.0302,-5.0302,-5.0302,-5.0302,-5.0302,-5.0302,-5.0302,-5.0302,-5.0302,-5.0302,-5.0302,-5.0302,-5.0302,-5.0302,-5.0302,-5.0302,-5.0302,-5.0302,-5.0302,-5.0302,-5.0325,-5.044,-5.0464,-5.0466,-5.0548,-5.0568,-5.0568,-5.0568,-5.0568,-5.0568,-5.0568,-5.0661,-5.0713,-5.0713,-5.0761,-5.079,-5.079,-5.079,-5.0778,-5.0694,-5.0713,-5.0642,-5.0485,-5.0528,-5.0568,-5.0568,-5.0587,-5.0567,-5.0464,-5.0352,-5.0302,-5.0302,-5.0302,-5.0302,-5.0302,-5.0302,-5.0302,-5.0302,-5.0302,-5.0302,-3.4122,-3.4949,-3.5493,-3.5493,-3.5493,-3.5493,0.0,0.0,0.0,0.0,0.0,0.0,0.0,0.0,0.0,0.0,0.0,0.0,0.0,0.0,0.0,0.0,0.0,0.0,0.0,0.0,0.0,0.0,0.0,-4.5297,-4.5297,-4.6061,-4.6844,-4.7589,-4.8582,-4.9423,-5.0111,-5.0245,-5.0302,-5.0302,-5.0302,-5.0302,-5.0302,-5.0302,-5.0302,-5.0302,0.0,0.0,-5.0302,-5.0302,-5.0302,-5.0302,-5.0302,-5.0302,-5.0302,-5.0302,-5.0302,-5.0302,-5.0302,-5.0302,-5.0302,-5.0302,-5.0302,-5.0302,-5.0302,-5.0302,-5.0302,-5.0302,-5.0302,-5.0302,-5.0302,-5.0302,-5.0302,-5.0302,-5.0302,-5.0302,-5.0302,-5.0302,-5.0302,-5.0302,-5.0302,-5.0302,-5.0302,-5.0442,-5.0547,-5.0547,-5.0661,-5.0709,-5.0709,-5.0709,-5.0677,-5.0567,-5.0547,-5.0485,-5.0325,-5.0302,-5.0302,-5.0302,-5.0464,-5.0485,-5.0302,-5.0302,-5.0302,-5.0302,-5.0302,-5.0302,-5.0302,-5.0302,-5.0302,-5.0302,-5.0302,-5.0302,-3.4872,-3.5411,-3.5493,-3.5493,-3.5493,-3.5493,0.0,0.0,0.0,0.0,0.0,0.0,0.0,0.0,0.0,0.0,0.0,0.0,0.0,0.0,0.0,0.0,0.0,0.0,0.0,0.0,0.0,0.0,0.0,-4.5297,-4.5297,-4.6061,-4.6557,-4.671,-4.8258,-4.9156,-4.927,-4.9958,-5.0302,-5.0302,-5.0302,-5.0302,-5.0302,-5.0302,-5.0302,-5.0302,0.0,-5.0302,-5.0302,-5.0302,-5.0302,-5.0302,-5.0302,-5.0302,-5.0302,-5.0302,-5.0302,-5.0302,-5.0302,-5.0302,-5.0302,-5.0302,-5.0302,-5.0302,-5.0302,-5.0302,-5.0302,-5.0302,-5.0302,-5.0302,-5.0302,-5.0302,-5.0302,-5.0302,-5.0302,-5.0302,-5.0302,-5.0302,-5.0302,-5.0302,-5.0302,-5.0302,-5.0302,-5.0325,-5.0348,-5.0348,-5.0374,-5.0377,-5.0377,-5.0377,-5.0355,-5.0352,-5.0348,-5.0329,-5.0302,-5.0302,-5.0302,-5.0302,-5.0325,-5.0329,-5.0302,-5.0302,-5.0302,-5.0302,-5.0302,-5.0302,-5.0302,-5.0302,-5.0302,-5.0302,-5.0302,-5.0302,-3.5161,-3.546,-3.5446,-3.5446,-3.5446,-3.5446,0.0,0.0,0.0,0.0,0.0,0.0,0.0,0.0,0.0,0.0,0.0,0.0,0.0,0.0,0.0,0.0,0.0,0.0,0.0,0.0,0.0,0.0,0.0,0.0,-4.5297,-4.564,-4.6042,-4.65,-4.7283,-4.8143,-4.9079,-4.9461,-4.9862,-5.0302,-5.0302,-5.0302,-5.0302,-5.0302,-5.0302,-5.0302,0.0,-5.0302,-5.0302,-5.0302,-5.0302,-5.0302,-5.0302,-5.0302,-5.0302,-5.0302,-5.0302,-5.0302,-5.0302,-5.0302,-5.0302,-5.0302,-5.0302,-5.0302,-5.0302,-5.0302,-5.0302,-5.0302,-5.0302,-5.0302,-5.0302,-5.0302,-5.0302,-5.0302,-5.0302,-5.0302,-5.0302,-5.0302,-5.0302,-5.0302,-5.0302,-5.0302,-5.0302,-5.0302,-5.0302,-5.0302,-5.0302,-5.0302,-5.0302,-5.0302,-5.0302,-5.0302,-5.0302,-5.0302,-5.0302,-5.0302,-5.0302,-5.0302,-5.0302,-5.0302,-5.0302,-5.0302,-5.0302,-5.0302,-5.0302,-5.0302,-5.0302,-5.0302,-5.0302,-5.0302,-5.0302,-5.0302,-3.5257,-3.546,-3.5412,0.0,0.0,0.0,0.0,0.0,0.0,0.0,0.0,0.0,0.0,0.0,0.0,0.0,0.0,0.0,0.0,0.0,0.0,0.0,0.0,0.0,0.0,0.0,0.0,0.0,0.0,0.0,-4.5297,-4.5235,-4.5459,-4.6069,-4.6298,-4.7064,-4.838,-4.8865,-4.95,-5.0302,-5.0302,-5.0302,-5.0302,-5.0302,-5.0302,-5.0302,-5.0302,-5.0302,-5.0302,-5.0302,-5.0302,-5.0302,-5.0302,-5.0302,-5.0302,-5.0302,-5.0302,-5.0302,-5.0302,-5.0302,-5.0302,-5.0302,-5.0302,-5.0302,-5.0302,-5.0302,-5.0302,-5.0302,-5.0302,-5.0302,-5.0302,-5.0302,-5.0302,-5.0302,-5.0302,-5.0302,-5.0302,-5.0302,-5.0302,-5.0302,-5.0302,-5.0302,-5.0302,-5.0302,-5.0302,-5.0302,-5.0302,-5.0302,-5.0302,-5.0302,-5.0302,-5.0302,-5.0302,-5.0302,-5.0302,-5.0302,-5.0302,-5.0302,-5.0302,-5.0302,-5.0302,-5.0302,-5.0302,-5.0302,-5.0302,-5.0302,-5.0302,-5.0302,-5.0302,-5.0302,-5.0302,-5.0302,-3.5257,-3.5493,-3.5493,-3.5493,0.0,0.0,0.0,0.0,0.0,0.0,0.0,0.0,0.0,0.0,0.0,0.0,0.0,0.0,0.0,0.0,0.0,0.0,0.0,0.0,0.0,0.0,0.0,0.0,0.0,0.0,-4.5297,-4.5023,-4.4862,-4.4919,-4.5721,-4.6196,-4.6309,-4.8185,-4.95,-5.0302,-5.0302,-5.0302,-5.0302,-5.0302,-5.0302,-5.0302,-5.0302,-5.0302,-5.0302,-5.0302,-5.0302,-5.0302,-5.0302,-5.0302,-5.0302,-5.0302,-5.0302,-5.0302,-5.0302,-5.0302,-5.0302,-5.0302,-5.0302,-5.0302,-5.0302,-5.0302,-5.0302,-5.0302,-5.0302,-5.0302,-5.0302,-5.0302,-5.0302,-5.0302,-5.0302,-5.0302,-5.0302,-5.0302,-5.0302,-5.0302,-5.0302,-5.0302,-5.0302,-5.0302,-5.0302,-5.0302,-5.0302,-5.0302,-5.0302,-5.0302,-5.0302,-5.0302,-5.0302,-5.0302,-5.0302,-5.0302,-5.0302,-5.0302,-5.0302,-5.0302,-5.0302,-5.0302,-5.0302,-5.0302,-5.0302,-5.0302,-5.0302,-5.0302,-5.0302,-5.0302,-5.0302,-5.0302,-3.5397,-3.5432,-3.5388,0.0,0.0,0.0,0.0,0.0,0.0,0.0,0.0,0.0,0.0,0.0,0.0,0.0,0.0,0.0,0.0,0.0,0.0,0.0,0.0,0.0,0.0,0.0,0.0,0.0,0.0,0.0,-4.4739,-4.4617,-4.4624,-4.4776,-4.5122,-4.5613,-4.6329,-4.764,-4.8605,-4.9258,-4.9964,-5.0302,-5.0302,-5.0302,-5.0302,-5.0302,-5.0302,-5.0302,-5.0302,-5.0302,-5.0302,-5.0302,-5.0302,-5.0302,-5.0302,-5.0302,-5.0302,-5.0302,-5.0302,-5.0302,-5.0302,-5.0302,-5.0302,-5.0302,-5.0302,-5.0302,-5.0302,-5.0302,-5.0302,-5.0302,-5.0302,-5.0302,-5.0302,-5.0302,-5.0302,-5.0302,-5.0302,-5.0302,-5.0302,-5.0302,-5.0302,-5.0302,-5.0302,-5.0302,-5.0302,-5.0302,-5.0302,-5.0302,-5.0302,-5.0302,-5.0302,-5.0302,-5.0302,-5.0302,-5.0302,-5.0302,-5.0302,-5.0302,-5.0302,-5.0302,-5.0302,-5.0302,-5.0302,-5.0302,-5.0302,-5.0302,-5.0302,-5.0302,-5.0302,-5.0302,-5.0302,-5.0302,-3.5412,-3.5369,-3.5304,0.0,0.0,0.0,0.0,0.0,0.0,0.0,0.0,0.0,0.0,0.0,0.0,0.0,0.0,0.0,0.0,0.0,0.0,0.0,0.0,0.0,0.0,0.0,0.0,0.0,0.0,0.0,0.0,-4.4318,-4.4346,-4.4519,-4.4565,-4.4908,-4.5697,-4.6643,-4.7448,-4.8077,-4.9124,-4.9733,-4.9981,-4.9981,-5.0051,-5.0144,-5.0144,-5.0212,-5.0302,-5.0302,-5.0302,-5.0302,-5.0302,-5.0302,-5.0302,-5.0302,-5.0302,-5.0302,-5.0302,-5.0302,-5.0302,-5.0302,-5.0302,-5.0302,-5.0302,-5.0302,-5.0302,-5.0302,-5.0302,-5.0302,-5.0302,-5.0302,-5.0302,-5.0302,-5.0302,-5.0302,-5.0302,-5.0302,-5.0302,-5.0302,-5.0302,-5.0302,-5.0302,-5.0302,-5.0302,-5.0302,-5.0302,-5.0302,-5.0302,-5.0302,-5.0302,-5.0302,-5.0302,-5.0302,-5.0302,-5.0302,-5.0302,-5.0302,-5.0302,-5.0302,-5.0302,-5.0302,-5.0302,-5.0302,-5.0302,-5.0302,-5.0302,-5.0302,-5.0302,-5.0302,-5.0302,-5.0236,-3.53,-3.53,0.0,0.0,0.0,0.0,0.0,0.0,0.0,0.0,0.0,0.0,0.0,0.0,0.0,0.0,0.0,0.0,0.0,0.0,0.0,0.0,0.0,0.0,0.0,0.0,0.0,0.0,0.0,0.0,-4.4383,-4.4151,-4.4005,-4.4005,-4.4005,-4.4005,-4.4005,-4.5121,-4.6102,-4.6899,-4.7687,-4.8514,-4.9283,-4.9283,-4.9483,-4.9784,-4.9784,-4.9981,-5.0302,-5.0302,-5.0302,-5.0302,-5.0302,-5.0302,-5.0302,-5.0302,-5.0302,-5.0302,-5.0302,-5.0302,-5.0302,-5.0302,-5.0302,-5.0302,-5.0302,-5.0302,-5.0302,-5.0302,-5.0302,-5.0302,-5.0302,-5.0302,-5.0302,-5.0302,-5.0302,-5.0302,-5.0302,-5.0302,-5.0302,-5.0302,-5.0302,-5.0302,-5.0302,-5.0302,-5.0302,-5.0302,-5.0302,-5.0302,-5.0302,-5.0302,-5.0302,-5.0302,-5.0302,-5.0302,-5.0302,-5.0302,-5.0302,-5.0302,-5.0302,-5.0302,-5.0302,-5.0302,-5.0302,-5.0302,-5.0302,-5.0302,-5.0302,-5.0302,-5.0302,-5.0302,-5.0302,-5.012,-3.5086,0.0,0.0,0.0,0.0,0.0,0.0,0.0,0.0,0.0,0.0,0.0,0.0,0.0,0.0,0.0,0.0,0.0,0.0,0.0,0.0,0.0,0.0,0.0,0.0,0.0,0.0,0.0,0.0,-4.3777,-4.3777,-4.3697,-4.3749,-4.4005,-4.4005,-4.4079,-4.4221,-4.5113,-4.5828,-4.6335,-4.7129,-4.8147,-4.9227,-4.9271,-4.9333,-4.9382,-4.9424,-4.9512,-4.9599,-4.9857,-5.0076,-5.0302,-5.0302,-5.0302,-5.0302,-5.0302,-5.0302,-5.0302,-5.0302,-5.0302,-5.0302,-5.0302,-5.0302,-5.0302,-5.0302,-5.0302,-5.0302,-5.0302,-5.0302,-5.0302,-5.0302,-5.0302,-5.0302,-5.0302,-5.0302,-5.0302,-5.0302,-5.0302,-5.0302,-5.0302,-5.0302,-5.0302,-5.0302,-5.0302,-5.0302,-5.0302,-5.0302,-5.0302,-5.0302,-5.0302,-5.0302,-5.0302,-5.0302,-5.0302,-5.0302,-5.0302,-5.0302,-5.0302,-5.0302,-5.0302,-5.0302,-5.0302,-5.0302,-5.0302,-5.0302,-5.0302,-5.0302,-5.0051,-4.9955,-4.9955,-4.9702,-4.9541,-3.5002,0.0,0.0,0.0,0.0,0.0,0.0,0.0,0.0,0.0,0.0,0.0,0.0,0.0,0.0,0.0,0.0,0.0,0.0,0.0,0.0,0.0,0.0,0.0,0.0,0.0,0.0,0.0,-4.3615,-4.3497,-4.3497,-4.3497,-4.3582,-4.3781,-4.3781,-4.3828,-4.3936,-4.4382,-4.4868,-4.5424,-4.625,-4.7186,-4.8213,-4.8614,-4.8847,-4.8949,-4.9271,-4.9502,-4.9674,-4.9876,-5.0076,-5.0302,-5.0302,-5.0302,-5.0302,-5.0302,-5.0302,-5.0302,-5.0302,-5.0302,-5.0302,-5.0302,-5.0302,-5.0302,-5.0302,-5.0302,-5.0302,-5.0302,-5.0302,-5.0302,-5.0302,-5.0302,-5.0302,-5.0302,-5.0302,-5.0302,-5.0302,-5.0302,-5.0302,-5.0302,-5.0302,-5.0302,-5.0302,-5.0302,-5.0302,-5.0302,-5.0302,-5.0302,-5.0302,-5.0302,-5.0302,-5.0302,-5.0302,-5.0302,-5.0302,-5.0302,-5.0302,-5.0302,-5.0188,-5.01,-5.01,-5.01,-5.01,-5.01,-4.9981,-4.9884,-4.9884,-4.9702,-4.9599,-4.9599,-4.9375,-4.924,0.0,0.0,0.0,0.0,0.0,0.0,0.0,0.0,0.0,0.0,0.0,0.0,0.0,0.0,0.0,0.0,0.0,0.0,0.0,0.0,0.0,0.0,0.0,0.0,0.0,0.0,0.0,-4.3497,-4.3497,-4.3497,-4.3497,-4.3497,-4.3497,-4.3479,-4.3411,-4.3394,-4.3359,-4.3251,-4.3597,-4.44,-4.5164,-4.5963,-4.6721,-4.7605,-4.8192,-4.8495,-4.9164,-4.9684,-5.007,-5.007,-5.012,-5.0212,-5.0212,-5.0212,-5.0212,-5.0212,-5.0236,-5.0259,-5.0259,-5.0259,-5.0259,-5.0259,-5.0236,-5.0212,-5.0255,-5.0259,-5.0259,-5.0302,-5.0302,-5.0302,-5.0302,-5.0302,-5.0302,-5.0302,-5.0302,-5.0302,-5.0302,-5.0302,-5.0302,-5.0302,-5.0302,-5.0302,-5.0302,-5.0302,-5.0302,-5.0302,-5.0302,-5.0302,-5.0302,-5.0302,-5.0302,-5.0259,-5.0259,-5.0236,-5.0212,-5.0212,-5.0212,-5.0212,-4.991,-4.9757,-4.9757,-4.9757,-4.9757,-4.9757,-4.9453,-4.9283,-4.9283,-4.9252,-4.9252,-4.9252,-4.9221,-4.9048,0.0,0.0,0.0,0.0,0.0,0.0,0.0,0.0,0.0,0.0,0.0,0.0,0.0,0.0,0.0,0.0,0.0,0.0,0.0,0.0,0.0,0.0,0.0,0.0,0.0,0.0,-4.3497,-4.3497,-4.3497,-4.3463,-4.3411,-4.3411,-4.3376,-4.3286,-4.3251,-4.3233,-4.3178,-4.3141,-4.3486,-4.4173,-4.4989,-4.5765,-4.6581,-4.7547,-4.8032,-4.8132,-4.8269,-4.8604,-4.9001,-4.9001,-4.9227,-4.9512,-4.9512,-4.9512,-4.9512,-4.9512,-4.9674,-4.9929,-4.9929,-4.9929,-4.9929,-4.9929,-4.973,-4.957,-4.983,-4.9929,-4.9955,-5.0236,-5.0302,-5.0302,-5.0302,-5.0302,-5.0302,-5.0302,-5.0302,-5.0302,-5.0302,-5.0302,-5.0302,-5.0302,-5.0302,-5.0302,-5.0302,-5.0302,-5.0302,-5.0302,-5.0302,-5.0302,-5.0302,-5.0302,-5.0212,-4.9929,-4.9929,-4.9803,-4.9541,-4.9512,-4.9512,-4.9512,-4.9453,-4.9424,-4.9424,-4.9424,-4.9424,-4.9424,-4.9333,-4.9283,-4.9283,-4.9048,-4.89,-4.89,-4.8658,-4.8458,0.0,0.0,0.0,0.0,0.0,0.0,0.0,0.0,0.0,0.0,0.0,0.0,0.0,0.0,0.0,0.0,0.0,0.0,0.0,0.0,0.0,0.0,0.0,0.0,0.0,-4.302,-4.3497,-4.3428,-4.3446,-4.3411,-4.3305,-4.3286,-4.3251,-4.3214,-4.3178,-4.3123,-4.3104,-4.3049,-4.3193,-4.3534,-4.4331,-4.5345,-4.6522,-4.7443,-4.7951,-4.8151,-4.8151,-4.8365,-4.8797,-4.8869,-4.9034,-4.9259,-4.9302,-4.9283,-4.9283,-4.9283,-4.9424,-4.957,-4.957,-4.957,-4.957,-4.957,-4.9453,-4.9314,-4.9512,-4.957,-4.9599,-4.9757,-4.983,-4.983,-4.983,-4.983,-4.983,-4.983,-5.0076,-5.0302,-5.0302,-5.0302,-5.0302,-5.0302,-5.0302,-5.0302,-5.0302,-5.0302,-5.0302,-5.0302,-5.0169,-5.0051,-5.0051,-4.9929,-4.9757,-4.957,-4.957,-4.9483,-4.9314,-4.9283,-4.9283,-4.9283,-4.9145,-4.9048,-4.9048,-4.89,-4.89,-4.9048,-4.8881,-4.8832,-4.8832,-4.8658,-4.855,-4.8569,-4.8364,-4.8306,0.0,0.0,0.0,0.0,0.0,0.0,0.0,0.0,0.0,0.0,0.0,0.0,0.0,0.0,0.0,0.0,0.0,0.0,0.0,0.0,0.0,0.0,0.0,0.0,-4.1996,-4.2913,-4.3428,-4.3376,-4.3359,-4.3305,-4.3178,-4.3178,-4.3178,-4.316,-4.3086,-4.3067,-4.3067,-4.2956,-4.2882,-4.29,-4.386,-4.5073,-4.654,-4.7337,-4.7888,-4.819,-4.819,-4.8402,-4.8744,-4.885,-4.8952,-4.9001,-4.908,-4.9113,-4.9113,-4.9126,-4.9158,-4.919,-4.919,-4.919,-4.919,-4.919,-4.9158,-4.9145,-4.9209,-4.919,-4.924,-4.9283,-4.9283,-4.9283,-4.9283,-4.9283,-4.9283,-4.9283,-4.973,-5.012,-5.012,-5.012,-5.012,-5.012,-5.012,-5.012,-5.012,-5.012,-5.012,-5.012,-4.9884,-4.9702,-4.9702,-4.9483,-4.9302,-4.924,-4.919,-4.9209,-4.9126,-4.9145,-4.9145,-4.9145,-4.8866,-4.8711,-4.8711,-4.8439,-4.8439,-4.8711,-4.8421,-4.8306,-4.8306,-4.8306,-4.8306,-4.8306,-4.8306,-4.8306,0.0,0.0,0.0,0.0,0.0,0.0,0.0,0.0,0.0,0.0,0.0,0.0,0.0,0.0,0.0,0.0,0.0,0.0,0.0,0.0,0.0,0.0,0.0,0.0,-4.1104,-4.2514,-4.3376,-4.3251,-4.3214,-4.3178,-4.3141,-4.3104,-4.3049,-4.292,-4.2938,-4.2938,-4.2938,-4.29,-4.2882,-4.29,-4.4421,-4.5617,-4.654,-4.7337,-4.7741,-4.7783,-4.7783,-4.7866,-4.8028,-4.8111,-4.8153,-4.8153,-4.8345,-4.8402,-4.8344,-4.8402,-4.8623,-4.8866,-4.8866,-4.8866,-4.8866,-4.8866,-4.8676,-4.8495,-4.8781,-4.8866,-4.8934,-4.924,-4.9283,-4.9283,-4.9283,-4.9283,-4.9283,-4.9283,-4.9363,-4.9453,-4.9453,-4.9453,-4.9453,-4.9453,-4.9453,-4.9453,-4.9453,-4.9453,-4.9453,-4.9453,-4.9394,-4.9363,-4.9363,-4.9333,-4.9209,-4.89,-4.8866,-4.8746,-4.8458,-4.8421,-4.8421,-4.8421,-4.8402,-4.8364,-4.8364,-4.8344,-4.8306,-4.8382,-4.8344,-4.8306,-4.8306,-4.8306,-4.8306,-4.8306,-4.8306,-4.8306,0.0,0.0,0.0,0.0,0.0,0.0,0.0,0.0,0.0,0.0,0.0,0.0,0.0,0.0,0.0,0.0,0.0,0.0,0.0,0.0,0.0,0.0,0.0,-4.0924,-4.0857,-4.2337,-4.3269,-4.316,-4.316,-4.3123,-4.2994,-4.2994,-4.2938,-4.2882,-4.2882,-4.2882,-4.2882,-4.2882,-4.2882,-4.29,-4.4059,-4.5055,-4.5852,-4.6667,-4.7283,-4.7717,-4.7717,-4.7717,-4.7819,-4.7925,-4.7947,-4.7947,-4.8187,-4.8226,-4.8187,-4.8286,-4.8402,-4.8532,-4.8532,-4.8532,-4.8532,-4.8532,-4.8439,-4.8344,-4.8458,-4.8532,-4.855,-4.8711,-4.8728,-4.8728,-4.8728,-4.8728,-4.8728,-4.8728,-4.8728,-4.8728,-4.8728,-4.9048,-4.9283,-4.9283,-4.9283,-4.9283,-4.9283,-4.9283,-4.9283,-4.9283,-4.9145,-4.9015,-4.9015,-4.8866,-4.8676,-4.8532,-4.8532,-4.8458,-4.8306,-4.8306,-4.8306,-4.8306,-4.8306,-4.8306,-4.8306,-4.8306,-4.8306,-4.8306,-4.8306,-4.8306,-4.8306,-4.8306,-4.8306,-4.8306,-4.8306,-4.8306,0.0,0.0,0.0,0.0,0.0,0.0,0.0,0.0,0.0,0.0,0.0,0.0,0.0,0.0,0.0,0.0,0.0,0.0,0.0,0.0,0.0,0.0,-3.9703,-4.062,-4.0755,-4.2049,-4.2923,-4.3031,-4.3049,-4.3012,-4.29,-4.2882,-4.2882,-4.2882,-4.2882,-4.2882,-4.2882,-4.2882,-4.2882,-4.29,-4.3715,-4.4512,-4.5327,-4.6142,-4.6939,-4.7717,-4.7717,-4.7717,-4.7717,-4.7861,-4.7861,-4.7861,-4.8068,-4.8148,-4.8108,-4.8208,-4.8229,-4.8229,-4.8267,-4.8267,-4.8286,-4.8306,-4.8306,-4.8306,-4.8306,-4.8306,-4.8306,-4.8306,-4.8306,-4.8306,-4.8306,-4.8306,-4.8306,-4.8306,-4.8306,-4.8306,-4.8306,-4.8711,-4.9048,-4.9048,-4.9048,-4.9048,-4.9048,-4.9048,-4.9048,-4.9048,-4.8832,-4.8676,-4.8676,-4.8458,-4.8306,-4.8306,-4.8306,-4.8306,-4.8306,-4.8306,-4.8306,-4.8306,-4.8306,-4.8306,-4.8306,-4.8306,-4.8306,-4.8306,-4.8306,-4.8306,-4.8306,-4.8306,-4.8306,-4.8306,-4.8267,-4.8267,0.0,0.0,0.0,0.0,0.0,0.0,0.0,0.0,0.0,0.0,0.0,0.0,0.0,0.0,0.0,0.0,0.0,0.0,0.0,0.0,0.0,0.0,-3.913,-3.9935,-4.065,-4.1451,-4.2214,-4.2865,-4.292,-4.29,-4.2882,-4.2882,-4.2882,-4.2882,-4.2882,-4.2882,-4.2882,-4.2882,-4.2882,-4.29,-4.3715,-4.4512,-4.5327,-4.6142,-4.6939,-4.7717,-4.7717,-4.7717,-4.7717,-4.7861,-4.7819,-4.7741,-4.7929,-4.7988,-4.7943,-4.801,-4.8032,-4.8032,-4.8148,-4.8187,-4.8226,-4.8267,-4.8306,-4.8306,-4.8306,-4.8306,-4.8306,-4.8306,-4.8306,-4.8306,-4.8306,-4.8306,-4.8306,-4.8306,-4.8306,-4.8306,-4.8306,-4.8344,-4.8326,-4.8326,-4.8326,-4.8326,-4.8326,-4.8326,-4.8326,-4.8326,-4.8344,-4.8344,-4.8344,-4.8306,-4.8306,-4.8306,-4.8306,-4.8306,-4.8306,-4.8306,-4.8306,-4.8306,-4.8306,-4.8306,-4.8306,-4.8306,-4.8306,-4.8306,-4.8306,-4.8306,-4.8306,-4.8306,-4.8306,-4.8306,-4.8208,-4.8187,-3.8022,0.0,0.0,0.0,0.0,0.0,0.0,0.0,0.0,0.0,0.0,0.0,0.0,0.0,0.0,0.0,0.0,0.0,0.0,0.0,0.0,0.0,-3.9031,-3.9797,-4.0508,-4.1289,-4.2086,-4.2828,-4.2882,-4.2882,-4.2882,-4.2882,-4.2882,-4.2882,-4.2882,-4.2882,-4.2882,-4.2882,-4.2882,-4.2882,-4.3172,-4.3733,-4.4548,-4.5363,-4.6178,-4.6975,-4.7482,-4.7717,-4.7699,-4.7759,-4.7759,-4.7717,-4.7866,-4.7925,-4.7902,-4.797,-4.8032,-4.8148,-4.8187,-4.8226,-4.8286,-4.8306,-4.8306,-4.8306,-4.8306,-4.8306,-4.8306,-4.8306,-4.8306,-4.8306,-4.8306,-4.8306,-4.8306,-4.8306,-4.8306,-4.8306,-4.8306,-4.8306,-4.8306,-4.8306,-4.8306,-4.8306,-4.8306,-4.8306,-4.8306,-4.8306,-4.8306,-4.8306,-4.8306,-4.8306,-4.8306,-4.8306,-4.8306,-4.8306,-4.8306,-4.8306,-4.8306,-4.8306,-4.8306,-4.8306,-4.8306,-4.8306,-4.8306,-4.8306,-4.8306,-4.8306,-4.8306,-4.8306,-4.8306,-4.8306,-4.8286,-4.8286,-3.8462,0.0,0.0,0.0,0.0,0.0,0.0,0.0,0.0,0.0,0.0,0.0,0.0,0.0,0.0,0.0,0.0,0.0,0.0,0.0,0.0,0.0,-3.8746,-3.9456,-4.0419,-4.0999,-4.1741,-4.281,-4.2882,0.0,-4.2882,-4.2882,-4.2882,-4.2882,-4.2882,-4.2882,-4.2882,-4.2882,-4.2882,-4.2882,-4.2882,-4.3317,-4.4132,-4.4928,-4.5743,-4.654,-4.7355,-4.7717,-4.7717,-4.7717,-4.7717,-4.7717,-4.7819,-4.7819,-4.7861,-4.7888,-4.7988,-4.8028,-4.8108,-4.8169,-4.8229,-4.8267,-4.8306,-4.8306,-4.8306,-4.8306,-4.8306,-4.8306,-4.8306,-4.8306,-4.8306,-4.8306,-4.8306,-4.8306,-4.8306,-4.8306,-4.8306,-4.8306,-4.8306,-4.8306,-4.8306,-4.8306,-4.8306,-4.8306,-4.8306,-4.8306,-4.8306,-4.8306,-4.8306,-4.8306,-4.8306,-4.8306,-4.8306,-4.8306,-4.8306,-4.8306,-4.8306,-4.8306,-4.8306,-4.8306,-4.8306,-4.8306,-4.8306,-4.8306,-4.8306,-4.8306,-4.8306,-4.8306,-4.8306,-4.8306,-4.8286,-4.8229,0.0,0.0,0.0,0.0,0.0,0.0,0.0,0.0,0.0,0.0,0.0,0.0,0.0,0.0,0.0,0.0,0.0,0.0,0.0,0.0,0.0,0.0,-3.8192,-3.879,-4.0329,-4.0474,-4.118,-4.2774,-4.2882,-4.2882,-4.2882,-4.2882,-4.2882,-4.2882,-4.2882,-4.2882,-4.2882,-4.2882,-4.2882,-4.2882,-4.2882,-4.3299,-4.4077,-4.491,-4.5725,-4.6504,-4.7355,-4.7717,-4.7717,-4.7717,-4.7717,-4.7717,-4.7717,-4.7717,-4.7717,-4.7717,-4.7699,-4.7741,-4.7929,-4.7992,-4.8032,-4.8229,-4.8306,-4.8306,-4.8306,-4.8306,-4.8306,-4.8306,-4.8306,-4.8306,-4.8306,-4.8306,-4.8306,-4.8306,-4.8306,-4.8306,-4.8306,-4.8306,-4.8306,-4.8306,-4.8306,-4.8306,-4.8306,-4.8306,-4.8306,-4.8306,-4.8306,-4.8306,-4.8306,-4.8306,-4.8306,-4.8306,-4.8306,-4.8306,-4.8306,-4.8306,-4.8306,-4.8306,-4.8306,-4.8306,-4.8306,-4.8306,-4.8306,-4.8306,-4.8306,-4.8306,-4.8306,-4.8306,-4.8306,-4.8306,-4.8245,-4.8184,-3.8707,0.0,0.0,0.0,0.0,0.0,0.0,0.0,0.0,0.0,0.0,0.0,0.0,0.0,0.0,0.0,0.0,0.0,0.0,0.0,0.0,0.0,-3.8002,-3.8686,-3.9964,-4.0311,-4.118,0.0,-4.2882,-4.2882,-4.2882,-4.2882,-4.2882,-4.2882,-4.2882,-4.2882,-4.2882,-4.2882,-4.2882,-4.2882,-4.2882,-4.3009,-4.3262,-4.4675,-4.5417,-4.5707,-4.7102,-4.7717,-4.7717,-4.7717,-4.7717,-4.7717,-4.7717,-4.7717,-4.7717,-4.7717,-4.7759,-4.7861,-4.7884,-4.8028,-4.8148,-4.8111,-4.819,-4.8267,-4.8247,-4.8226,-4.8265,-4.8267,-4.8286,-4.8247,-4.8267,-4.8306,-4.8306,-4.8306,-4.8306,-4.8306,-4.8306,-4.8306,-4.8306,-4.8306,-4.8306,-4.8306,-4.8306,-4.8306,-4.8306,-4.8306,-4.8306,-4.8306,-4.8306,-4.8306,-4.8306,-4.8306,-4.8306,-4.8306,-4.8306,-4.8306,-4.8306,-4.8306,-4.8306,-4.8306,-4.8306,-4.8306,-4.8286,-4.8226,-4.8226,-4.8169,-4.8072,-4.8229,-4.8306,-4.8324,-4.8831,-4.9065,0.0,0.0,0.0,0.0,0.0,0.0,-3.8068,-3.7542,-3.6999,0.0,0.0,0.0,0.0,0.0,0.0,0.0,0.0,0.0,0.0,0.0,0.0,0.0,-3.7756,-3.842,-3.9774,-4.0107,-4.0978,-4.2774,-4.2882,-4.2882,-4.2882,-4.2882,-4.2882,-4.2882,-4.2882,-4.2882,-4.2882,-4.2882,-4.2882,-4.2882,-4.2882,-4.2882,-4.2936,-4.4566,-4.5291,-4.5399,-4.7011,-4.7717,-4.7717,-4.7717,-4.7717,-4.7717,-4.7717,-4.7717,-4.7717,-4.7717,-4.7759,-4.7819,-4.7861,-4.7984,-4.8087,-4.801,-4.8072,-4.8151,-4.813,-4.8148,-4.813,-4.8247,-4.8247,-4.8247,-4.8267,-4.8306,-4.8306,-4.8306,-4.8306,-4.8306,-4.8306,-4.8306,-4.8306,-4.8306,-4.8306,-4.8306,-4.8306,-4.8306,-4.8306,-4.8306,-4.8306,-4.8306,-4.8306,-4.8306,-4.8306,-4.8306,-4.8306,-4.8306,-4.8306,-4.8267,-4.8247,-4.8247,-4.819,-4.8355,-4.8645,-4.8703,-4.8828,-4.9094,-4.9113,-4.9054,-4.8995,-4.8788,-4.8828,-4.9175,-4.9628,-4.9825,0.0,0.0,0.0,0.0,0.0,0.0,-3.8446,-3.7826,-3.719,-3.7017,0.0,0.0,0.0,0.0,0.0,0.0,0.0,0.0,0.0,0.0,0.0,0.0,0.0,-3.813,-3.9679,-3.9878,-4.0733,-4.268,-4.2882,-4.2882,-4.2882,-4.2882,-4.2882,-4.2882,-4.2882,-4.2882,-4.2882,-4.2882,-4.2882,-4.2882,-4.2882,-4.2882,-4.2936,-4.4476,-4.5218,-4.5381,-4.692,-4.7627,-4.7717,-4.7717,-4.7717,-4.7717,-4.7717,-4.7717,-4.7717,-4.7717,-4.7717,-4.7717,-4.7819,-4.7902,-4.7902,-4.7929,-4.7992,-4.7992,-4.7992,-4.801,-4.801,-4.8148,-4.8247,-4.8306,-4.8306,-4.8306,-4.8306,-4.8306,-4.8306,-4.8306,-4.8306,-4.8306,-4.8267,-4.8267,-4.8267,-4.8306,-4.8306,-4.8267,-4.8267,-4.8267,-4.8267,-4.8267,-4.8267,-4.8267,-4.8306,-4.8306,-4.8306,-4.8267,-4.8267,-4.83,-4.8315,-4.8315,-4.8269,-4.8593,-4.9305,-4.9341,-4.9669,-5.0356,-5.0375,-5.0429,-5.0502,-4.9682,-4.9706,-5.0417,-5.0466,-5.0502,0.0,0.0,0.0,0.0,0.0,0.0,-3.8415,-3.8,-3.7577,0.0,0.0,0.0,0.0,0.0,0.0,0.0,0.0,0.0,0.0,0.0,0.0,0.0,0.0,-3.7962,-3.9206,-3.9665,-4.056,-4.2213,-4.2673,-4.2882,-4.2882,-4.2882,-4.2882,-4.2882,-4.2882,-4.2882,-4.2882,-4.2882,-4.2882,-4.2882,-4.2882,-4.2882,-4.2918,-4.3896,-4.4693,-4.5345,-4.6323,-4.7102,-4.7717,-4.7717,-4.7717,-4.7717,-4.7717,-4.7717,-4.7717,-4.7717,-4.7717,-4.7699,-4.7717,-4.7819,-4.7902,-4.7801,-4.7847,-4.7992,-4.7925,-4.7943,-4.7925,-4.801,-4.8151,-4.8306,-4.8306,-4.8306,-4.8306,-4.8306,-4.8306,-4.8306,-4.8306,-4.8247,-4.8226,-4.8226,-4.8226,-4.8265,-4.8267,-4.8151,-4.809,-4.8208,-4.813,-4.809,-4.8226,-4.8226,-4.8247,-4.8306,-4.8247,-4.8226,-4.8226,-4.8693,-4.9017,-4.9017,-4.9596,-5.0016,-5.018,-5.018,-5.0211,-5.0253,-5.0203,-5.0486,-5.1139,-5.0496,-5.0271,-5.0435,-5.0944,-5.1191,0.0,0.0,0.0,-3.8707,0.0,0.0,0.0,-3.8101,-3.765,-3.7303,-3.6882,-3.6474,0.0,0.0,0.0,0.0,0.0,0.0,0.0,0.0,0.0,0.0,0.0,-3.8174,-3.9153,-3.9817,-4.073,-4.2109,-4.2634,-4.2882,-4.2882,-4.2882,-4.2882,-4.2882,-4.2882,-4.2882,-4.2882,-4.2882,-4.2882,-4.2882,-4.2882,-4.2882,-4.2918,-4.3715,-4.453,-4.5345,-4.616,-4.6975,-4.7717,-4.7717,-4.7717,-4.7717,-4.7717,-4.7717,-4.7717,-4.7717,-4.7717,-4.7717,-4.7717,-4.7759,-4.7801,-4.7717,-4.7783,-4.7847,-4.7801,-4.7884,-4.7947,-4.7992,-4.8151,-4.8306,-4.8247,-4.8247,-4.8247,-4.8151,-4.8151,-4.8151,-4.8151,-4.8111,-4.809,-4.809,-4.8068,-4.8068,-4.8151,-4.8072,-4.8032,-4.809,-4.809,-4.809,-4.809,-4.8148,-4.8187,-4.8151,-4.813,-4.8254,-4.8656,-4.8995,-4.9313,-4.9695,-5.0071,-5.0428,-5.0828,-5.0864,-5.1002,-5.1338,-5.1312,-5.1484,-5.19,-5.1601,-5.1464,-5.1464,-5.1774,-5.1955,0.0,0.0,0.0,0.0,0.0,-3.8609,0.0,0.0,0.0,-3.7303,-3.6939,0.0,0.0,0.0,0.0,0.0,0.0,0.0,0.0,0.0,0.0,0.0,-3.74,-3.8456,-3.9312,-4.0211,-4.1191,-4.2244,-4.2673,-4.2882,-4.2882,-4.2882,-4.2882,-4.2882,-4.2882,-4.2882,-4.2882,-4.2882,-4.2882,-4.2882,-4.2882,-4.2882,-4.29,-4.357,-4.4385,-4.5345,-4.5997,-4.6812,-4.7717,-4.7717,-4.7717,-4.7717,-4.7717,-4.7717,-4.7717,-4.7717,-4.7717,-4.7717,-4.7717,-4.7717,-4.7717,-4.7717,-4.7717,-4.7717,-4.7717,-4.7824,-4.797,-4.797,-4.813,-4.8229,-4.8187,-4.8148,-4.813,-4.8032,-4.7992,-4.7992,-4.7992,-4.7992,-4.797,-4.797,-4.7925,-4.7884,-4.7992,-4.7951,-4.797,-4.797,-4.8068,-4.8068,-4.801,-4.8068,-4.8108,-4.7992,-4.8138,-4.8462,-4.9117,-4.9398,-4.9767,-5.0366,-5.0496,-5.0832,-5.1502,-5.152,-5.1828,-5.248,-5.2498,-5.2498,-5.2498,-5.2498,-5.2498,-5.2498,-5.2498,-5.2498,0.0,0.0,0.0,0.0,-3.8609,0.0,0.0,0.0,-3.8223,-3.8088,0.0,0.0,0.0,0.0,0.0,0.0,0.0,0.0,-3.6701,0.0,-3.6451,-3.6781,-3.7584,-3.8518,-3.9637,-4.1118,-4.223,-4.2788,-4.2882,-4.2882,-4.2882,-4.2882,-4.2882,-4.2882,-4.2882,-4.2882,-4.2882,-4.2882,-4.2882,-4.2882,-4.2882,-4.2882,-4.2882,-4.2973,-4.386,-4.5309,-4.5399,-4.6305,-4.7717,-4.7717,-4.7717,-4.7717,-4.7717,-4.7717,-4.7717,-4.7717,-4.7717,-4.7717,-4.7717,-4.7717,-4.7717,-4.7717,-4.7717,-4.7717,-4.7717,-4.7801,-4.7902,-4.7902,-4.7988,-4.8032,-4.8032,-4.8032,-4.8032,-4.7992,-4.7992,-4.7992,-4.7992,-4.7947,-4.7902,-4.7902,-4.7801,-4.7783,-4.7951,-4.7847,-4.7741,-4.7902,-4.7801,-4.7801,-4.7902,-4.7902,-4.7966,-4.801,-4.8584,-4.9016,-4.9107,-5.0286,-5.1112,-5.1185,-5.1828,-5.2263,-5.2353,-5.2353,-5.2408,-5.2498,-5.2498,-5.2498,-5.2498,-5.2498,-5.2498,-5.2498,-5.2498,-5.2498,0.0,0.0,0.0,0.0,0.0,0.0,-3.8415,0.0,-3.8241,0.0,0.0,0.0,0.0,0.0,0.0,0.0,-3.686,0.0,0.0,0.0,-3.7317,0.0,0.0,0.0,-4.1052,-4.2063,-4.2577,-4.2498,-4.2768,-4.2882,-4.2882,-4.2882,-4.2882,-4.2882,-4.2882,-4.2882,-4.2882,-4.2882,-4.2882,-4.2882,-4.2882,-4.2882,-4.2882,-4.2882,-4.3769,-4.5291,-4.5291,-4.6214,-4.7717,-4.7717,-4.7717,-4.7717,-4.7717,-4.7717,-4.7717,-4.7717,-4.7717,-4.7717,-4.7717,-4.7717,-4.7717,-4.7717,-4.7717,-4.7717,-4.7717,-4.7801,-4.7902,-4.7902,-4.7947,-4.7992,-4.7947,-4.7947,-4.7907,-4.7847,-4.7824,-4.7824,-4.7824,-4.7783,-4.7759,-4.7759,-4.7759,-4.7741,-4.7824,-4.7741,-4.7717,-4.7777,-4.7819,-4.7819,-4.7777,-4.826,-4.8592,-4.8514,-4.9198,-4.9869,-5.0341,-5.0949,-5.1484,-5.1973,-5.2299,-5.2498,-5.2498,-5.2498,-5.2498,-5.2498,-5.2498,-5.2498,-5.2498,-5.2498,-5.2498,-5.2498,-5.2498,-5.2498,-3.8627,0.0,0.0,0.0,0.0,0.0,0.0,0.0,0.0,0.0,0.0,0.0,0.0,0.0,0.0,0.0,0.0,-3.7676,0.0,0.0,0.0,0.0,0.0,0.0,0.0,-4.2711,-4.2768,-4.2418,-4.2711,-4.2882,-4.2882,-4.2882,-4.2882,-4.2882,-4.2882,-4.2882,-4.2882,-4.2882,-4.2882,-4.2882,-4.2882,-4.2882,-4.2882,-4.2882,-4.3769,-4.5291,-4.5291,-4.6214,-4.7717,-4.7717,-4.7717,-4.7717,-4.7717,-4.7717,-4.7717,-4.7717,-4.7717,-4.7717,-4.7717,-4.7717,-4.7717,-4.7717,-4.7717,-4.7717,-4.7717,-4.7759,-4.7861,-4.7861,-4.7866,-4.7888,-4.7861,-4.7861,-4.7819,-4.7717,-4.7717,-4.7717,-4.7717,-4.7717,-4.7772,-4.8007,-4.8043,-4.8116,-4.8315,-4.7989,-4.7772,-4.8007,-4.8085,-4.8218,-4.8333,-4.8962,-4.9325,-4.9238,-4.9945,-5.0651,-5.1249,-5.1484,-5.1864,-5.2462,-5.2498,-5.2498,-5.2498,-5.2498,-5.2498,-5.2498,-5.2498,-5.2498,-5.2498,-5.2498,-5.2498,-5.2498,-5.2498,-5.2498,0.0,0.0,0.0,-3.8627,0.0,0.0,0.0,0.0,-3.8446,0.0,0.0,0.0,0.0,0.0,0.0,0.0,0.0,0.0,0.0,0.0,0.0,0.0,0.0,0.0,0.0,-4.2882,-4.2882,-4.2882,-4.2882,-4.2882,-4.2882,-4.2882,-4.2882,-4.2882,-4.2882,-4.2882,-4.2882,-4.2882,-4.2882,-4.2882,-4.2882,-4.2882,-4.2882,-4.2882,-4.3769,-4.5291,-4.5291,-4.6214,-4.7717,-4.7717,-4.7717,-4.7717,-4.7717,-4.7717,-4.7717,-4.7717,-4.7717,-4.7717,-4.7717,-4.7717,-4.7717,-4.7717,-4.7717,-4.7717,-4.7717,-4.7699,-4.7717,-4.7717,-4.7717,-4.7699,-4.7717,-4.7717,-4.7717,-4.7717,-4.7717,-4.7717,-4.7717,-4.7717,-4.7935,-4.8731,-4.8876,-4.9112,-4.9872,-4.8731,-4.7971,-4.8749,-4.8876,-4.9148,-4.9908,-5.0035,-5.0053,-5.0053,-5.0778,-5.1267,-5.1285,-5.2009,-5.2462,-5.2498,-5.2498,-5.2498,-5.2498,-5.2498,-5.2498,-5.2498,-5.2498,-5.2498,-5.2498,-5.2498,-5.2498,-5.2498,-5.2498,-5.2498,0.0,0.0,-3.8354,-3.8405,0.0,0.0,0.0,0.0,0.0,0.0,0.0,0.0,0.0,0.0,0.0,0.0,0.0,0.0,0.0,0.0,0.0,0.0,0.0,0.0,0.0,0.0,0.0,-4.2842,-4.2842,-4.2842,-4.2842,-4.2842,-4.2824,-4.29,-4.2882,-4.2882,-4.2882,-4.2882,-4.2882,-4.2882,-4.2882,-4.2882,-4.2882,-4.2882,-4.3769,-4.5291,-4.5291,-4.6214,-4.7717,-4.7717,-4.7717,-4.7717,-4.7717,-4.7717,-4.7717,-4.7717,-4.7717,-4.7717,-4.7717,-4.7717,-4.7717,-4.7717,-4.7717,-4.7717,-4.7717,-4.7717,-4.7717,-4.7717,-4.7717,-4.7717,-4.7717,-4.7717,-4.7717,-4.7717,-4.8116,-4.8496,-4.8496,-4.8912,-4.9365,-4.9637,-4.9691,-4.9764,-5.0035,-4.9637,-4.9365,-4.9655,-4.9691,-4.9782,-5.0053,-5.0542,-5.0886,-5.0886,-5.1611,-5.2082,-5.2082,-5.2335,-5.2498,-5.2498,-5.2498,-5.2498,-5.2498,-5.2498,-5.2498,-5.2498,-5.2498,-5.2498,-5.2498,-5.2498,-5.2498,-5.2498,-5.2498,-5.2498,-3.8368,-3.8322,0.0,-3.8322,-3.8307,0.0,-3.8637,0.0,-3.8692,0.0,0.0,0.0,0.0,0.0,0.0,0.0,0.0,0.0,0.0,-4.2574,0.0,0.0,0.0,0.0,0.0,-4.2862,-4.288,-4.2842,-4.2783,-4.2783,0.0,-4.2822,-4.2804,-4.29,-4.2882,-4.2882,-4.2882,-4.2882,-4.2882,-4.2882,-4.2882,-4.2882,-4.2882,-4.2882,-4.3769,-4.5291,-4.5291,-4.6214,-4.7717,-4.7717,-4.7717,-4.7717,-4.7717,-4.7717,-4.7717,-4.7717,-4.7717,-4.7717,-4.7717,-4.7717,-4.7717,-4.7717,-4.7717,-4.7717,-4.7717,-4.7717,-4.7772,-4.8061,-4.7935,-4.7772,-4.8061,-4.7916,-4.7772,-4.8079,-4.8532,-4.9003,-4.9275,-4.9727,-5.0162,-5.0452,-5.0524,-5.0615,-5.0886,-5.0941,-5.085,-5.056,-5.0524,-5.0615,-5.0904,-5.1393,-5.1719,-5.1719,-5.219,-5.2498,-5.2498,-5.2498,-5.2498,-5.2498,-5.2498,-5.2498,-5.2498,-5.2498,-5.2625,-5.2915,-5.2643,-5.2643,-5.2933,-5.2643,-5.2498,-5.2498,-5.2498,-5.2498]}]]